[[{"header":{"parameterUnit":"m.s-1","parameterCategory":1,"la1":30.6,"la2":29.2853,"lo1":-89.7004,"lo2":-87.6739,"dy":0.0162,"dx":0.0183,"nx":112,"ny":82,"refTime":"2024-09-19T18:00:00:Z","depth":0,"parameterNumber":2,"parameterNumberName":"U-component_of_WINDS"},"data":[0.0,0.0,0.0,0.0,0.0,0.0,0.0,0.0,0.0,0.0,0.0,0.0,0.0,0.0,0.0,0.0,0.0,0.0,0.0,0.0,0.0,0.0,0.0,0.0,0.0,0.0,0.0,0.0,0.0,0.0,0.0,0.0,0.0,0.0,0.0,0.0,0.0,0.0,0.0,0.0,0.0,0.0,0.0,0.0,0.0,0.0,0.0,0.0,0.0,0.0,0.0,0.0,0.0,0.0,0.0,0.0,0.0,0.0,0.0,0.0,0.0,0.0,0.0,0.0,0.0,0.0,0.0,0.0,0.0,0.0,0.0,0.0,0.0,0.0,0.0,0.0,0.0,0.0,0.0,0.0,0.0,0.0,0.0,0.0,0.0,0.0,0.0,0.0,0.0,0.0,0.0,-2.5177,-2.7421,-2.8815,-2.8699,-2.7749,-2.6509,-2.5027,0.0,0.0,0.0,0.0,0.0,0.0,0.0,0.0,0.0,0.0,0.0,0.0,0.0,0.0,0.0,0.0,0.0,0.0,0.0,0.0,0.0,0.0,0.0,0.0,0.0,0.0,0.0,0.0,0.0,0.0,0.0,0.0,0.0,0.0,0.0,0.0,0.0,0.0,0.0,0.0,0.0,0.0,0.0,0.0,0.0,0.0,0.0,0.0,0.0,0.0,0.0,0.0,0.0,0.0,0.0,0.0,0.0,0.0,0.0,0.0,0.0,0.0,0.0,0.0,0.0,0.0,0.0,0.0,0.0,0.0,0.0,0.0,0.0,0.0,0.0,0.0,0.0,0.0,0.0,0.0,0.0,0.0,0.0,0.0,0.0,0.0,0.0,0.0,0.0,0.0,0.0,0.0,0.0,0.0,0.0,0.0,0.0,0.0,0.0,0.0,0.0,0.0,0.0,0.0,-2.37,-2.6338,-2.7588,-2.7981,-2.7361,-2.6527,-2.5112,-2.2901,0.0,0.0,0.0,0.0,0.0,0.0,0.0,0.0,0.0,0.0,0.0,0.0,0.0,0.0,0.0,0.0,0.0,0.0,0.0,0.0,0.0,0.0,0.0,0.0,0.0,0.0,0.0,0.0,0.0,0.0,0.0,0.0,0.0,0.0,0.0,0.0,0.0,0.0,0.0,0.0,0.0,0.0,0.0,0.0,0.0,0.0,0.0,0.0,0.0,0.0,0.0,0.0,0.0,0.0,0.0,0.0,0.0,0.0,0.0,0.0,0.0,0.0,0.0,0.0,0.0,0.0,0.0,0.0,0.0,0.0,0.0,0.0,0.0,0.0,0.0,0.0,0.0,0.0,0.0,0.0,0.0,0.0,0.0,0.0,0.0,0.0,0.0,0.0,0.0,0.0,0.0,0.0,0.0,0.0,0.0,0.0,0.0,0.0,0.0,0.0,0.0,0.0,0.0,-2.2576,-2.3725,-2.6099,-2.6696,-2.6762,-2.6435,-2.5534,-2.4395,-2.2975,-2.1686,0.0,0.0,0.0,0.0,0.0,0.0,0.0,0.0,0.0,0.0,0.0,0.0,0.0,0.0,0.0,0.0,0.0,0.0,0.0,0.0,0.0,0.0,0.0,0.0,0.0,0.0,0.0,0.0,0.0,0.0,0.0,0.0,0.0,0.0,0.0,0.0,0.0,0.0,0.0,0.0,0.0,0.0,0.0,0.0,0.0,0.0,0.0,0.0,0.0,0.0,0.0,0.0,0.0,0.0,0.0,0.0,0.0,0.0,0.0,0.0,0.0,0.0,0.0,0.0,0.0,0.0,0.0,0.0,0.0,0.0,0.0,0.0,0.0,0.0,0.0,0.0,0.0,0.0,0.0,0.0,0.0,0.0,0.0,0.0,0.0,0.0,0.0,0.0,0.0,0.0,0.0,0.0,0.0,0.0,0.0,0.0,0.0,0.0,0.0,0.0,0.0,0.0,-2.301,-2.3882,-2.5506,-2.5691,-2.5603,-2.5407,-2.4491,-2.3566,-2.274,-2.0543,0.0,0.0,0.0,0.0,0.0,0.0,0.0,0.0,0.0,0.0,0.0,0.0,0.0,0.0,0.0,0.0,0.0,0.0,0.0,0.0,0.0,0.0,0.0,0.0,0.0,0.0,0.0,0.0,0.0,0.0,0.0,0.0,0.0,0.0,0.0,0.0,0.0,0.0,0.0,0.0,0.0,0.0,0.0,0.0,0.0,0.0,0.0,0.0,0.0,0.0,0.0,0.0,0.0,0.0,0.0,0.0,0.0,0.0,0.0,0.0,0.0,0.0,0.0,0.0,0.0,0.0,0.0,0.0,0.0,0.0,0.0,0.0,0.0,0.0,0.0,0.0,0.0,0.0,0.0,0.0,0.0,0.0,0.0,0.0,0.0,0.0,0.0,0.0,0.0,0.0,0.0,0.0,0.0,0.0,0.0,0.0,0.0,0.0,0.0,0.0,0.0,0.0,-2.292,-2.4015,-2.4959,-2.506,-2.4752,-2.4009,-2.3252,-2.2186,-2.0695,-1.9164,0.0,0.0,0.0,0.0,0.0,0.0,0.0,0.0,0.0,0.0,0.0,0.0,0.0,0.0,0.0,0.0,0.0,0.0,0.0,0.0,0.0,0.0,0.0,0.0,0.0,0.0,0.0,0.0,0.0,0.0,0.0,0.0,0.0,0.0,0.0,0.0,0.0,0.0,0.0,0.0,0.0,0.0,0.0,0.0,0.0,0.0,0.0,0.0,0.0,0.0,0.0,0.0,0.0,0.0,0.0,0.0,0.0,0.0,0.0,0.0,0.0,0.0,0.0,0.0,0.0,0.0,0.0,0.0,0.0,0.0,0.0,0.0,0.0,0.0,0.0,0.0,0.0,0.0,0.0,0.0,0.0,0.0,0.0,0.0,0.0,0.0,0.0,0.0,0.0,0.0,0.0,0.0,0.0,0.0,0.0,0.0,0.0,0.0,0.0,0.0,0.0,0.0,-2.1666,-2.2572,0.0,-2.3478,-2.3357,-2.3024,-2.2777,-2.2172,-2.11,0.0,0.0,0.0,0.0,0.0,0.0,0.0,0.0,0.0,0.0,0.0,0.0,0.0,0.0,0.0,0.0,0.0,0.0,0.0,0.0,0.0,0.0,0.0,0.0,0.0,0.0,0.0,0.0,0.0,0.0,0.0,0.0,0.0,0.0,0.0,0.0,0.0,0.0,0.0,0.0,0.0,0.0,0.0,0.0,0.0,0.0,0.0,0.0,0.0,0.0,0.0,0.0,0.0,0.0,0.0,0.0,0.0,0.0,0.0,0.0,0.0,0.0,0.0,0.0,0.0,0.0,0.0,0.0,0.0,0.0,0.0,0.0,0.0,0.0,0.0,0.0,0.0,0.0,0.0,0.0,0.0,0.0,0.0,0.0,0.0,0.0,0.0,0.0,0.0,0.0,0.0,0.0,0.0,0.0,0.0,0.0,0.0,0.0,0.0,0.0,0.0,0.0,-1.9967,-2.0837,-2.1633,0.0,-2.2385,-2.2426,-2.2484,-2.2093,-2.1507,-2.0729,0.0,0.0,0.0,0.0,0.0,0.0,0.0,0.0,0.0,0.0,0.0,0.0,0.0,0.0,0.0,0.0,0.0,0.0,0.0,0.0,0.0,0.0,0.0,0.0,0.0,0.0,0.0,0.0,0.0,0.0,0.0,0.0,0.0,0.0,0.0,0.0,0.0,0.0,0.0,0.0,0.0,0.0,0.0,0.0,0.0,0.0,0.0,0.0,0.0,0.0,0.0,0.0,0.0,0.0,0.0,0.0,0.0,0.0,0.0,0.0,0.0,0.0,0.0,0.0,0.0,0.0,0.0,0.0,0.0,0.0,0.0,0.0,0.0,0.0,0.0,0.0,0.0,0.0,0.0,0.0,0.0,0.0,0.0,0.0,0.0,0.0,0.0,0.0,0.0,0.0,0.0,0.0,0.0,0.0,0.0,0.0,0.0,0.0,0.0,0.0,0.0,0.0,-1.9691,-2.0683,-2.1539,-2.1955,-2.1982,-2.213,-2.2474,-2.1084,-1.9889,0.0,0.0,0.0,0.0,0.0,0.0,0.0,0.0,0.0,0.0,0.0,0.0,0.0,0.0,0.0,0.0,0.0,0.0,0.0,0.0,0.0,0.0,0.0,0.0,0.0,0.0,0.0,0.0,0.0,0.0,0.0,0.0,0.0,0.0,0.0,0.0,0.0,0.0,0.0,0.0,0.0,0.0,0.0,0.0,0.0,0.0,0.0,0.0,0.0,0.0,0.0,0.0,0.0,0.0,0.0,0.0,0.0,0.0,0.0,0.0,0.0,0.0,0.0,0.0,0.0,0.0,0.0,0.0,0.0,0.0,0.0,0.0,0.0,0.0,0.0,0.0,0.0,0.0,0.0,0.0,0.0,0.0,0.0,0.0,0.0,0.0,0.0,0.0,0.0,0.0,0.0,0.0,0.0,0.0,0.0,0.0,0.0,0.0,0.0,0.0,0.0,0.0,0.0,-1.9211,-2.049,-2.1369,-2.1492,-2.1554,-2.16,-2.1645,-2.0846,-1.9987,-1.9161,0.0,0.0,0.0,0.0,0.0,0.0,0.0,0.0,0.0,0.0,0.0,0.0,0.0,0.0,0.0,0.0,0.0,0.0,0.0,0.0,0.0,0.0,0.0,0.0,0.0,0.0,0.0,0.0,0.0,0.0,0.0,0.0,0.0,0.0,0.0,0.0,0.0,0.0,0.0,0.0,0.0,0.0,0.0,0.0,0.0,0.0,0.0,0.0,0.0,0.0,0.0,0.0,0.0,0.0,0.0,0.0,0.0,0.0,0.0,0.0,0.0,0.0,0.0,0.0,0.0,0.0,0.0,0.0,0.0,0.0,0.0,0.0,0.0,0.0,0.0,0.0,0.0,0.0,0.0,0.0,0.0,0.0,0.0,0.0,0.0,0.0,0.0,0.0,0.0,0.0,0.0,0.0,0.0,0.0,0.0,0.0,0.0,0.0,0.0,0.0,0.0,0.0,-1.8861,-2.0081,-2.0942,-2.1087,-2.1151,-2.1198,-2.1276,-2.0689,-1.983,-1.8695,0.0,0.0,0.0,0.0,0.0,0.0,0.0,0.0,0.0,0.0,0.0,0.0,0.0,0.0,0.0,0.0,0.0,0.0,0.0,0.0,0.0,0.0,0.0,0.0,0.0,0.0,0.0,0.0,0.0,0.0,0.0,0.0,0.0,0.0,0.0,0.0,0.0,0.0,0.0,0.0,0.0,0.0,0.0,0.0,0.0,0.0,0.0,0.0,0.0,0.0,0.0,0.0,0.0,0.0,0.0,0.0,0.0,0.0,0.0,0.0,0.0,0.0,0.0,0.0,0.0,0.0,0.0,0.0,0.0,0.0,0.0,0.0,0.0,0.0,0.0,0.0,0.0,0.0,0.0,0.0,0.0,0.0,0.0,0.0,0.0,0.0,0.0,0.0,0.0,0.0,0.0,0.0,0.0,0.0,0.0,0.0,0.0,0.0,0.0,0.0,0.0,0.0,-1.8543,-1.9572,-2.0407,-2.0712,-2.0745,-2.086,-2.1166,-2.0507,-1.9513,-1.8099,0.0,0.0,0.0,0.0,0.0,0.0,0.0,0.0,0.0,0.0,0.0,0.0,0.0,0.0,0.0,0.0,0.0,0.0,0.0,0.0,0.0,0.0,0.0,0.0,0.0,0.0,0.0,0.0,0.0,0.0,0.0,0.0,0.0,0.0,0.0,0.0,0.0,0.0,0.0,0.0,0.0,0.0,0.0,0.0,0.0,0.0,0.0,0.0,0.0,0.0,0.0,0.0,0.0,0.0,0.0,0.0,0.0,0.0,0.0,0.0,-2.0074,0.0,0.0,0.0,0.0,0.0,0.0,0.0,0.0,0.0,0.0,0.0,0.0,0.0,0.0,0.0,0.0,0.0,0.0,0.0,0.0,0.0,0.0,0.0,0.0,0.0,0.0,0.0,0.0,0.0,0.0,0.0,0.0,0.0,0.0,0.0,0.0,0.0,0.0,0.0,0.0,0.0,-1.8207,-1.9358,-2.0168,-2.0239,-2.034,-2.0357,-2.0289,-1.9707,-1.918,-1.879,0.0,0.0,0.0,0.0,0.0,0.0,0.0,0.0,0.0,0.0,0.0,0.0,0.0,0.0,0.0,0.0,0.0,0.0,0.0,0.0,0.0,0.0,0.0,0.0,0.0,0.0,0.0,0.0,0.0,0.0,0.0,0.0,0.0,0.0,0.0,0.0,0.0,0.0,0.0,0.0,0.0,0.0,0.0,0.0,0.0,0.0,0.0,0.0,0.0,0.0,0.0,0.0,0.0,0.0,0.0,0.0,0.0,0.0,0.0,0.0,0.0,-2.1173,0.0,0.0,0.0,0.0,0.0,0.0,0.0,0.0,0.0,0.0,0.0,0.0,0.0,0.0,0.0,0.0,0.0,0.0,0.0,0.0,0.0,0.0,0.0,0.0,0.0,0.0,0.0,0.0,0.0,0.0,0.0,0.0,0.0,0.0,0.0,0.0,0.0,0.0,0.0,0.0,-1.8051,-1.924,-2.0061,-2.0061,-2.0113,-2.0113,-2.0005,-1.9706,-1.9372,-1.8968,-1.8,0.0,0.0,0.0,0.0,0.0,0.0,0.0,0.0,0.0,0.0,0.0,0.0,0.0,0.0,0.0,0.0,0.0,0.0,0.0,0.0,0.0,0.0,0.0,0.0,0.0,0.0,0.0,0.0,0.0,0.0,0.0,0.0,0.0,0.0,0.0,0.0,0.0,0.0,0.0,0.0,0.0,0.0,0.0,0.0,0.0,0.0,0.0,0.0,0.0,0.0,0.0,0.0,0.0,-2.5161,-2.5494,-2.5953,-2.5953,-2.5953,-2.5869,-2.4206,-2.3382,-2.3187,0.0,0.0,0.0,0.0,0.0,0.0,0.0,0.0,0.0,0.0,0.0,0.0,0.0,0.0,0.0,0.0,0.0,0.0,0.0,0.0,0.0,0.0,0.0,0.0,0.0,-1.9993,-1.9868,0.0,0.0,0.0,0.0,0.0,0.0,0.0,0.0,0.0,0.0,0.0,0.0,-1.8153,-1.9229,-1.997,-1.997,-1.9988,-1.9988,-1.9937,-1.9955,-1.9675,-1.8979,-1.8878,-1.8273,0.0,0.0,0.0,0.0,0.0,0.0,0.0,0.0,0.0,0.0,0.0,0.0,0.0,0.0,0.0,0.0,0.0,0.0,0.0,0.0,0.0,0.0,0.0,0.0,0.0,0.0,0.0,0.0,0.0,0.0,0.0,0.0,-1.9364,-2.0469,0.0,0.0,0.0,0.0,0.0,0.0,0.0,0.0,0.0,0.0,0.0,0.0,0.0,-2.4713,-2.5323,-2.6511,-2.6847,-2.6357,-2.7448,-2.7771,-2.7336,-2.7336,-2.7336,-2.7308,-2.6875,0.0,-2.4397,-2.3322,0.0,0.0,0.0,0.0,0.0,0.0,0.0,0.0,0.0,0.0,0.0,0.0,0.0,0.0,0.0,0.0,0.0,0.0,0.0,0.0,0.0,0.0,-2.0102,-2.0571,-2.0766,-2.0927,0.0,-1.9614,-1.8326,-1.9115,-1.8496,0.0,0.0,0.0,0.0,0.0,0.0,0.0,-1.8774,-1.9416,-1.983,-1.983,-1.9919,-1.9919,-1.9744,-1.978,-1.9606,-1.9115,-1.8535,-1.7982,-1.7436,-1.6307,0.0,0.0,0.0,0.0,0.0,0.0,0.0,0.0,0.0,0.0,0.0,0.0,0.0,0.0,0.0,0.0,0.0,0.0,0.0,0.0,0.0,0.0,0.0,0.0,0.0,0.0,0.0,0.0,0.0,-1.88,-2.0018,-2.0679,-2.0815,-2.0607,0.0,0.0,0.0,0.0,0.0,0.0,0.0,0.0,0.0,-2.5284,-2.5291,-2.5697,-2.656,-2.7153,-2.7228,-2.6817,-2.7386,-2.7506,-2.728,-2.728,-2.728,-2.728,-2.7171,-2.6502,-2.5422,-2.4532,-2.3449,-2.2227,0.0,0.0,0.0,0.0,-2.0631,-2.0507,-2.0266,-2.0279,0.0,-1.922,0.0,0.0,0.0,0.0,0.0,0.0,0.0,0.0,0.0,0.0,-2.0029,-2.0207,-2.027,-2.0459,-2.0966,-2.0038,-1.9345,0.0,-1.9699,-1.8921,-1.7937,0.0,0.0,0.0,0.0,0.0,-1.8103,-1.868,-1.9068,-1.9068,-1.9109,-1.9109,-1.9035,-1.8978,-1.8865,-1.8655,-1.8309,-1.8021,-1.7835,-1.6913,-1.6265,0.0,0.0,0.0,0.0,0.0,0.0,0.0,0.0,0.0,0.0,0.0,0.0,0.0,0.0,0.0,0.0,0.0,0.0,0.0,0.0,0.0,0.0,0.0,0.0,0.0,0.0,0.0,0.0,-2.0002,-2.0835,-2.0952,-2.1572,-2.1571,0.0,0.0,0.0,0.0,0.0,0.0,-2.3815,-2.4086,-2.4885,-2.6415,-2.6241,-2.6465,-2.7239,-2.7215,-2.7146,-2.699,-2.699,-2.699,-2.699,-2.699,-2.699,-2.699,-2.6956,-2.6667,-2.6197,-2.5498,-2.4351,-2.2965,-2.2618,-2.1993,-2.1328,-2.1603,-2.147,-2.1213,-2.1523,-2.1648,-2.1458,-2.0292,0.0,-1.9459,-1.8202,0.0,0.0,0.0,0.0,-1.9074,-1.9775,-1.9952,-1.9926,-1.9837,-1.9798,-1.9901,-2.0308,-2.0207,-2.0205,0.0,-2.0547,-1.9717,-1.8312,0.0,0.0,0.0,0.0,-1.746,-1.7632,-1.8089,-1.8403,-1.8403,-1.8403,-1.8403,-1.8403,-1.8324,-1.8193,-1.8088,-1.8001,-1.7901,-1.7801,-1.7307,-1.6971,-1.6823,0.0,0.0,0.0,0.0,0.0,0.0,0.0,0.0,0.0,0.0,0.0,0.0,0.0,0.0,0.0,0.0,0.0,0.0,0.0,0.0,0.0,0.0,0.0,0.0,0.0,0.0,0.0,0.0,0.0,-2.1705,-2.3165,0.0,0.0,0.0,0.0,-2.262,-2.3147,-2.3752,-2.4315,-2.491,-2.5505,-2.6122,-2.666,-2.6947,-2.7007,-2.6998,-2.7024,-2.699,-2.699,-2.699,-2.699,-2.699,-2.699,-2.699,-2.6794,-2.6701,-2.6587,-2.5691,-2.489,-2.42,-2.3119,-2.2642,-2.2524,-2.1914,-2.168,-2.1665,-2.1564,-2.1521,-2.1584,-2.1995,-2.1782,-2.1282,-2.0666,-2.0101,0.0,0.0,-1.9749,-1.9761,-1.9786,-1.9798,-1.9811,-1.9798,-1.9798,-1.9798,-1.9824,-1.9914,-2.0321,0.0,-2.0735,-1.9756,-1.8981,0.0,-1.7767,-1.7133,-1.7092,-1.7358,-1.7981,-1.8098,-1.8125,-1.8125,-1.8125,-1.8125,-1.8125,-1.8125,-1.7941,-1.7557,-1.7537,-1.7352,-1.6981,-1.6934,-1.6643,-1.6076,-1.5447,0.0,0.0,0.0,0.0,0.0,0.0,0.0,0.0,0.0,0.0,0.0,0.0,0.0,0.0,0.0,0.0,0.0,0.0,0.0,0.0,0.0,0.0,0.0,0.0,0.0,0.0,0.0,0.0,-2.2865,-2.4022,0.0,-2.3096,-2.3611,-2.403,-2.4164,-2.4608,-2.5165,-2.5821,-2.6082,-2.6506,-2.7169,-2.7421,-2.7467,-2.7401,-2.7401,-2.7141,-2.6671,-2.6671,-2.6671,-2.6671,-2.6671,-2.6671,-2.6671,-2.6589,-2.6555,-2.6526,-2.579,-2.5158,-2.457,-2.3831,-2.3313,-2.293,-2.2699,-2.2606,-2.2594,-2.2548,-2.2518,-2.2435,-2.1866,-2.1287,-2.0738,-2.0134,-1.9578,-1.932,-2.0052,-1.977,-1.9434,-2.0201,-2.0075,-1.9798,-1.9798,-1.9798,-1.9798,-1.9798,-1.9837,-1.9978,-2.0371,-2.0266,-1.9753,-1.8526,-1.8368,-1.8016,-1.6889,-1.6864,-1.7053,-1.7291,-1.7318,-1.7318,-1.7318,-1.7318,-1.7318,-1.7318,-1.7248,-1.7144,-1.6989,-1.6905,-1.6786,-1.665,-1.665,-1.654,-1.633,-1.5795,-1.498,0.0,0.0,0.0,0.0,0.0,0.0,0.0,0.0,0.0,0.0,0.0,0.0,0.0,0.0,0.0,0.0,0.0,0.0,0.0,0.0,0.0,0.0,0.0,0.0,0.0,0.0,-2.3201,-2.3664,-2.476,-2.5127,-2.4093,-2.4336,-2.473,-2.5058,-2.5339,-2.5806,-2.6469,-2.6751,-2.7224,-2.7875,-2.7888,-2.7865,-2.7761,-2.7607,-2.7246,-2.6763,-2.6587,-2.6499,-2.6499,-2.6499,-2.6499,-2.6499,-2.6499,-2.6499,-2.6461,-2.6084,-2.554,-2.4891,-2.4249,-2.3766,-2.3341,-2.2916,-2.275,-2.272,-2.2506,-2.2414,-2.2292,-2.1492,-2.0936,-2.0515,-2.0083,-1.946,-1.9044,-1.983,-1.9309,-1.8706,-1.9461,-1.9509,-1.9345,-1.9345,-1.9514,-1.9656,-1.9656,-1.9708,-1.9734,-1.9734,-1.9914,-1.9685,-1.8526,-1.8571,-1.8367,-1.7247,-1.7217,-1.7266,-1.7088,-1.7062,-1.6986,-1.6795,-1.6769,-1.6769,-1.6769,-1.6684,-1.662,-1.662,-1.6556,-1.65,-1.65,-1.6333,-1.6333,-1.65,-1.5913,-1.5142,-1.4161,0.0,0.0,0.0,0.0,0.0,0.0,0.0,0.0,0.0,0.0,0.0,0.0,0.0,0.0,0.0,0.0,0.0,0.0,0.0,0.0,0.0,0.0,0.0,-2.0796,-2.3142,-2.4516,-2.4035,-2.5419,-2.6017,-2.4898,-2.5078,-2.53,-2.5348,-2.536,-2.5588,-2.613,-2.6865,-2.7521,-2.8073,-2.8061,-2.8049,-2.8049,-2.7523,-2.7235,-2.7197,-2.6706,-2.6443,-2.6418,-2.6418,-2.6418,-2.6418,-2.6418,-2.6418,-2.6418,-2.6405,-2.5909,-2.5144,-2.4348,-2.4017,-2.3835,-2.2535,-2.207,-2.1947,-2.1313,-2.1092,-2.1092,-2.106,-2.091,-2.076,-2.0728,-1.9947,-1.9082,-1.9082,-1.8366,-1.7605,-1.7605,-1.8015,-1.8471,-1.8471,-1.8922,-1.9342,-1.9342,-1.9434,-1.9526,-1.9526,-1.9656,-1.9584,-1.9096,-1.9008,-1.882,-1.8292,-1.8204,0.0,-1.7498,-1.7423,-1.7187,-1.6588,-1.6525,-1.6513,-1.65,-1.65,-1.65,-1.65,-1.65,-1.65,-1.6525,-1.6011,-1.5965,-1.6473,-1.5758,-1.5028,-1.4318,0.0,0.0,0.0,0.0,0.0,0.0,0.0,0.0,0.0,0.0,0.0,0.0,0.0,0.0,0.0,0.0,0.0,0.0,0.0,0.0,0.0,0.0,-2.0633,-2.1542,-2.2297,-2.3049,-2.3758,-2.4402,-2.4778,-2.4801,-2.4877,-2.5351,-2.632,-2.6393,-2.6724,-2.7494,-2.714,-2.7186,-2.7721,-2.7121,-2.6772,-2.6772,-2.6632,-2.6224,-2.5483,-2.5342,-2.5108,-2.4731,-2.4624,-2.4552,-2.4541,-2.4397,-2.4325,-2.429,-2.3896,-2.3618,-2.3468,-2.416,-2.4101,-2.3478,-2.2193,-2.1416,-2.1005,-2.0782,-2.073,-2.0666,-2.0182,-1.9977,-1.9814,-1.9299,-1.8786,-1.836,-1.836,-1.7991,-1.7605,-1.7605,-1.7715,-1.7852,-1.7852,-1.7961,-1.8108,-1.8108,-1.8124,-1.8151,-1.8151,-1.8178,-1.8363,-1.8908,-1.9008,-1.882,-1.8292,-1.8204,0.0,-1.8003,-1.7978,-1.7765,-1.72,-1.7149,-1.6951,-1.6473,-1.6436,-1.6392,-1.6297,-1.6275,-1.646,-1.6843,-1.6291,-1.6056,-1.6141,-1.5559,-1.5164,0.0,0.0,0.0,0.0,0.0,0.0,0.0,0.0,0.0,0.0,0.0,0.0,0.0,0.0,0.0,0.0,0.0,0.0,0.0,0.0,0.0,0.0,-1.9384,-2.0741,-2.1292,-2.2103,-2.2896,-2.3602,-2.3963,-2.4249,-2.4506,-2.439,-2.4614,-2.5397,-2.5458,-2.5831,-2.6668,-2.6564,-2.6722,-2.7238,-2.6783,-2.6462,-2.6381,-2.6126,-2.5729,-2.514,-2.4898,-2.4574,-2.4135,-2.4025,-2.3864,0.0,-2.3562,-2.3514,-2.3492,-2.3176,-2.2981,0.0,0.0,0.0,0.0,0.0,-2.0333,-1.9726,-1.9726,-1.9726,-1.9661,-1.9287,-1.911,-1.8988,-1.8539,-1.8145,-1.779,-1.7564,-1.724,-1.6942,-1.674,-1.6884,-1.7052,-1.7052,-1.7246,-1.744,-1.744,-1.7468,-1.7534,-1.7534,-1.755,0.0,-1.832,-1.8428,-1.832,-1.8009,-1.7948,-1.7965,-1.7983,-1.7983,-1.7873,-1.7591,-1.7376,-1.708,-1.6678,-1.6455,0.0,0.0,0.0,-1.619,-1.6232,-1.6373,0.0,0.0,0.0,0.0,0.0,0.0,0.0,0.0,-1.547,-1.5933,0.0,0.0,0.0,0.0,0.0,0.0,0.0,0.0,0.0,0.0,0.0,0.0,0.0,0.0,0.0,0.0,-1.9756,-2.0215,-2.0693,-2.2244,-2.3301,-2.3283,-2.3714,-2.4034,-2.4089,-2.3752,-2.3629,-2.3752,-2.3763,-2.4134,-2.4949,0.0,0.0,0.0,0.0,-2.64,-2.6193,-2.5658,-2.5374,-2.5319,-2.4849,-2.4387,-2.4012,-2.3919,-2.3692,-2.3272,-2.3217,-2.3184,-2.3184,-2.3184,-2.3073,-2.2837,-2.2189,-2.1562,-2.093,-1.9952,-1.9129,-1.8448,-1.8448,0.0,0.0,-1.8448,-1.8371,-1.8269,-1.8269,-1.7849,-1.7305,-1.6882,-1.6484,-1.6065,-1.5596,-1.5876,-1.6259,-1.6208,-1.6613,-1.7006,-1.7006,-1.7101,-1.7157,-1.7157,-1.7285,-1.7357,-1.7357,-1.7495,-1.7605,-1.7605,-1.7605,-1.7612,-1.7682,-1.7676,-1.7706,-1.7703,0.0,0.0,-1.6854,-1.6417,-1.5948,-1.5439,-1.5881,-1.5847,-1.5252,-1.6251,-1.6243,-1.4989,-1.5886,-1.6292,-1.6095,-1.6562,-1.6775,-1.6777,-1.6543,-1.6944,0.0,0.0,0.0,0.0,0.0,0.0,0.0,0.0,0.0,0.0,0.0,0.0,0.0,0.0,0.0,-1.9629,-2.042,-2.1093,-2.1572,-2.1978,-2.212,-2.1906,-2.242,-2.2961,-2.3382,-2.3329,-2.3721,-2.4713,-2.4818,-2.5194,-2.6121,-2.5583,-2.5324,-2.542,-2.4734,-2.438,-2.4337,-2.4202,-2.3976,-2.3669,0.0,0.0,-2.2807,-2.2279,-2.1986,-2.1845,-2.1354,-2.1155,-2.1155,-2.1155,-2.1126,-2.1181,-2.1889,-2.1255,-1.9947,-1.976,-1.9002,-1.811,-1.811,-1.811,-1.811,-1.811,-1.8076,-1.8076,-1.8076,-1.7748,0.0,-1.7285,-1.6943,-1.6504,-1.6085,-1.6058,-1.6049,-1.5663,-1.5661,-1.5748,-1.5748,-1.5777,-1.5777,-1.5777,-1.5806,-1.5825,-1.5825,-1.68,-1.7605,-1.7605,-1.7605,-1.7599,-1.7619,-1.7623,-1.7469,-1.705,-1.6914,-1.6621,-1.6087,-1.5939,-1.5784,-1.5562,-1.6049,-1.6077,-1.5466,-1.6069,-1.607,-1.5338,-1.5881,-1.6127,-1.6095,-1.6897,-1.7256,-1.7246,-1.685,-1.6965,0.0,0.0,0.0,0.0,0.0,0.0,0.0,0.0,0.0,0.0,0.0,-1.7083,-1.8091,0.0,-1.9592,-2.0723,-2.1269,-2.1641,-2.1855,-2.207,-2.2083,-2.1734,-2.2172,-2.2569,-2.2829,-2.3047,-2.3418,-2.4029,-2.4092,-2.4349,-2.4946,-2.4573,-2.4317,-2.4317,-2.3874,-2.358,-2.345,-2.345,-2.3341,-2.3133,-2.3133,-2.2896,-2.247,-2.2129,-2.1881,-2.1655,-2.1134,-2.0898,-2.0879,-2.0693,-2.0605,-2.0653,-2.1178,-2.0753,-1.9751,-1.9309,-1.8775,-1.8256,-1.8086,-1.8008,-1.8008,-1.8008,-1.8008,-1.8008,-1.8008,-1.7861,-1.7656,-1.7474,-1.7227,-1.6953,-1.6514,-1.6396,-1.6289,-1.584,-1.5732,-1.5684,-1.5459,-1.541,-1.541,-1.541,-1.541,-1.541,-1.541,-1.6026,-1.6489,-1.6489,-1.6489,-1.6602,-1.6912,-1.694,-1.6954,-1.6999,-1.6757,-1.6462,-1.6127,-1.5639,-1.5425,-1.5542,-1.5855,-1.5869,-1.5465,-1.5989,-1.6026,-1.541,-1.6064,-1.6396,-1.6396,-1.7275,-1.7695,-1.7686,-1.7471,-1.749,0.0,0.0,0.0,0.0,0.0,0.0,0.0,0.0,-1.6498,-1.6999,-1.7478,-1.8286,-1.9701,-2.0079,-2.0576,-2.1807,-2.2012,-2.2031,-2.2119,-2.2422,-2.248,-2.206,-2.2373,-2.2637,-2.2637,-2.2896,-2.3091,-2.3091,-2.3091,-2.3188,-2.3406,-2.3416,-2.3416,-2.3416,-2.3416,-2.3319,-2.3091,-2.3091,-2.3091,-2.3091,-2.3091,-2.2916,-2.2627,-2.2549,-2.2324,-2.1982,-2.1455,-2.119,-2.1161,-2.0752,-2.0605,-2.0605,-2.0605,-2.0352,-1.9941,-1.9134,-1.8802,-1.8666,-1.8247,-1.8135,-1.8081,-1.8037,-1.8008,-1.8008,-1.8008,-1.8008,-1.7939,-1.7598,-1.75,-1.7402,-1.6941,-1.6824,-1.6748,-1.633,-1.6222,-1.6105,-1.5635,-1.5537,-1.5537,-1.5537,-1.5469,-1.5439,-1.5527,-1.5469,-1.541,-1.541,-1.541,-1.5575,-1.6054,-1.614,-1.6301,-1.681,-1.6469,-1.6228,-1.6228,-1.5459,-1.5148,-1.5467,-1.558,-1.5576,-1.54,-1.5864,-1.5892,-1.541,-1.6161,-1.6609,-1.6634,-1.7444,-1.7862,-1.7906,-1.7906,-1.794,-1.4799,-1.4516,-1.445,-1.5248,-1.519,-1.5425,0.0,0.0,-1.7505,-1.8311,-1.8952,-1.9561,-2.012,-2.0702,-2.1346,-2.2295,-2.2441,-2.2578,-2.2906,-2.2994,-2.2867,-2.249,-2.2769,-2.3023,-2.3023,-2.3062,-2.3091,-2.3091,-2.3091,-2.3091,-2.3144,-2.3144,-2.3144,-2.3144,-2.3144,-2.3135,-2.3091,-2.3091,-2.3091,-2.3091,-2.3091,-2.3071,-2.3013,-2.2643,-2.249,-2.2402,-2.1541,-2.119,-2.1161,-2.0752,-2.0605,-2.0605,-2.0605,-2.0576,-2.0478,-1.9951,-1.9531,-1.915,-1.8676,-1.8529,-1.8471,-1.8135,-1.8008,-1.8008,-1.8008,-1.8008,-1.7998,-1.7959,-1.7939,-1.7842,-1.7422,-1.7314,-1.7197,-1.6726,-1.6629,-1.6502,-1.6114,-1.6016,-1.6016,-1.6016,-1.5684,-1.5537,-1.5948,-1.5664,-1.541,-1.541,-1.541,-1.541,-1.5497,-1.5497,-1.5526,-1.5575,-1.5535,-1.5505,-1.5505,-1.5408,-1.537,-1.5419,-1.5419,-1.5419,-1.541,-1.5468,-1.5468,-1.541,-1.5919,-1.6266,-1.6424,-1.696,-1.7326,-1.7573,-1.7573,-1.771,-1.4978,-1.5196,0.0,0.0,-1.6542,-1.6997,-1.7868,-1.8277,-1.8608,-1.8967,-1.944,-2.0002,-2.0709,-2.1017,-2.1534,0.0,-2.2534,-2.2592,-2.3028,-2.28,-2.2543,-2.2496,-2.2666,-2.273,-2.273,-2.2955,-2.3091,-2.3091,-2.3091,-2.3091,-2.3091,-2.3091,-2.3091,-2.3091,-2.3091,-2.3091,-2.3091,-2.3091,-2.3091,-2.3091,-2.3091,-2.3091,-2.3091,-2.2916,-2.2701,-2.249,-2.2087,-2.1607,-2.1001,-2.0857,-2.0555,-2.0177,-2.0177,-2.0177,-2.0158,-1.9964,-1.9805,-1.9553,-1.9025,-1.8689,-1.8456,-1.8238,-1.8031,-1.7862,-1.7974,-1.794,-1.7828,-1.7828,-1.7759,-1.7662,-1.749,-1.7451,-1.7346,-1.6881,-1.6775,-1.6661,-1.6239,-1.6174,-1.6174,-1.6174,-1.5999,-1.5932,-1.6114,-1.5999,-1.5875,-1.5875,-1.5593,-1.541,-1.541,-1.541,-1.541,-1.541,-1.541,-1.541,-1.541,-1.5332,-1.5284,-1.5284,-1.5196,-1.5167,-1.5167,-1.5167,-1.5282,-1.5522,-1.5934,-1.6294,-1.6636,-1.7097,-1.7392,-1.7505,-1.7505,-1.7573,-1.5069,0.0,0.0,-1.6702,-1.7467,-1.814,-1.8162,-1.8789,-1.9304,-1.9304,-1.9587,-2.004,-2.0806,-2.1012,-2.137,-2.2356,-2.2358,-2.2397,-2.2862,-2.2438,-2.2087,-2.2132,-2.2229,-2.2248,-2.2165,-2.2736,-2.3091,-2.3091,-2.3091,-2.3091,-2.3091,-2.3091,-2.3091,-2.3091,-2.3091,-2.3091,-2.3091,-2.3091,-2.3091,-2.3091,-2.3091,-2.3057,-2.3013,-2.2916,-2.2761,-2.2461,-2.2355,-2.1855,-2.1144,-2.1039,-2.0612,-2.0072,-2.0072,-2.0006,-1.9904,-1.9899,-1.9898,-1.9802,-1.9285,-1.8875,-1.8588,-1.834,-1.8043,-1.7835,-1.7842,-1.7759,-1.7647,-1.7647,-1.7564,-1.7505,-1.7505,-1.7505,-1.7394,-1.7082,-1.6973,-1.6869,-1.6453,-1.6368,-1.6368,-1.6368,-1.6273,-1.6236,-1.6349,-1.6273,-1.6198,-1.6198,-1.5854,-1.5584,-1.5458,-1.5342,-1.5303,-1.5303,-1.5303,-1.5303,-1.5303,-1.5205,-1.5156,-1.5156,-1.5059,-1.5057,-1.5161,-1.5171,-1.534,-1.5756,-1.605,-1.6377,-1.6736,-1.7071,-1.7245,-1.7323,-1.7323,-1.7323,0.0,0.0,-1.6395,-1.6789,-1.7504,-1.8201,-1.8586,-1.899,-1.9283,-1.9283,-1.946,-1.9776,-2.0245,-2.0473,-2.0869,-2.1712,-2.1802,-2.1944,-2.2385,-2.2091,-2.1674,-2.129,-2.157,-2.1665,0.0,-2.238,-2.3091,-2.3091,-2.3091,-2.3091,-2.3091,-2.3091,-2.3091,-2.3091,-2.3091,-2.3091,-2.3091,-2.3091,-2.3091,-2.3091,-2.3091,-2.3013,-2.2803,-2.253,-2.2432,-2.2394,-2.2006,-2.1816,-2.176,-2.1362,-2.0945,-2.0597,-2.0597,-2.0301,-1.9902,-1.9893,-1.9883,-1.9827,-1.942,-1.9269,-1.9127,-1.8341,-1.8102,-1.8026,-1.7628,-1.7505,-1.7505,-1.7505,-1.7505,-1.7505,-1.7505,-1.7505,-1.7505,-1.7486,-1.7486,-1.7372,-1.6878,-1.6793,-1.6793,-1.6793,-1.6472,-1.6321,-1.6718,-1.6462,-1.6198,-1.6198,-1.6179,-1.604,-1.5645,-1.5246,-1.5,-1.5,-1.5,-1.5,-1.5,-1.5,-1.5009,-1.5009,-1.5,-1.518,-1.5579,-1.5598,-1.5766,-1.6169,-1.6188,-1.629,-1.6518,-1.6527,-1.6674,-1.6908,-1.6908,-1.6908,0.0,0.0,-1.6936,-1.7871,-1.8311,-1.8614,-1.9017,-1.9201,-1.9228,-1.8962,-1.8955,-1.904,-1.9217,-1.9497,-2.0062,-2.1058,-2.1295,-2.1559,-2.2296,-2.1907,-2.1555,-2.1584,-2.1698,0.0,0.0,0.0,0.0,-2.2662,-2.2662,-2.2662,-2.2662,-2.2662,-2.2662,-2.2662,-2.2662,-2.2662,-2.2662,-2.2662,-2.2662,-2.2662,-2.2662,-2.2618,-2.253,-2.2441,-2.2397,-2.2388,-2.2255,-2.1985,-2.1592,-2.1451,-2.0908,-2.0138,-2.0138,-1.9879,-1.9499,-1.9499,-1.9499,-1.9481,-1.9517,-1.9322,-1.9051,-1.8779,-1.833,-1.7879,-1.7915,-1.7609,-1.7314,-1.7314,-1.721,-1.7116,-1.7116,-1.7116,-1.7116,-1.7116,-1.7116,-1.7044,-1.6905,-1.6878,-1.6878,-1.6878,-1.6767,-1.672,-1.685,-1.6757,-1.6674,-1.6674,-1.6384,-1.6141,-1.6031,-1.5643,-1.5408,-1.5408,-1.5161,-1.5,-1.5,-1.4872,-1.4813,-1.4813,-1.4956,-1.5139,-1.5247,-1.5538,-1.5849,-1.6276,-1.6285,-1.6437,-1.6766,-1.6766,-1.6805,-1.6908,-1.6908,-1.6908,-1.6202,-1.6817,-1.7376,-1.8449,-1.8815,-1.899,-1.9246,-1.9191,-1.8981,-1.8586,-1.8385,-1.8275,-1.8275,-1.8485,-1.9056,-2.0342,-2.0605,-2.1019,-2.2029,-2.1646,-2.1343,-2.1515,-2.1558,-2.1558,0.0,0.0,0.0,-2.2397,-2.2397,-2.2397,-2.2397,-2.2397,-2.2397,-2.2397,-2.2397,-2.2397,-2.2397,-2.2397,-2.2397,-2.2397,-2.2309,-2.2309,-2.2309,-2.2176,-2.2132,-2.2132,-2.2132,-2.1938,-2.1556,-2.1556,-2.1072,-2.0296,-2.0159,-1.9847,-1.9503,-1.9356,-1.9301,-1.9301,-1.9429,-1.9332,-1.9082,-1.8923,-1.8526,-1.8137,-1.8097,-1.7716,-1.7311,-1.7311,-1.7114,-1.6908,-1.6908,-1.6908,-1.6908,-1.6908,-1.6908,-1.6908,-1.6908,-1.6908,-1.6908,-1.6908,-1.6908,-1.6908,-1.6908,-1.6908,-1.6908,-1.6908,-1.6637,-1.6389,-1.6239,-1.5879,-1.5648,-1.5648,-1.5383,-1.5254,-1.5254,-1.5123,-1.5062,-1.5062,-1.5219,-1.5377,-1.5533,-1.578,-1.6111,-1.6523,-1.6523,-1.6652,-1.6908,-1.6908,-1.6908,-1.6908,-1.6908,-1.6908,-1.6615,-1.7238,-1.7752,-1.854,-1.9026,-1.9292,-1.9274,-1.8962,-1.8568,-1.8146,-1.7734,-1.7422,0.0,0.0,-1.8018,-1.9564,-1.9875,-2.0332,-2.1522,-2.1392,-2.1135,0.0,0.0,0.0,0.0,0.0,0.0,-2.2353,0.0,-2.2353,-2.2353,-2.2353,-2.2353,-2.2353,-2.2353,-2.2353,-2.2353,-2.2353,-2.2353,-2.2353,-2.2185,-2.2097,-2.2052,-2.183,-2.1696,-2.1696,-2.1696,-2.1696,-2.1696,-2.1696,-2.1449,-2.1071,-2.0695,-2.0268,-1.9866,-1.9494,-1.9329,-1.9329,-1.9311,-1.9301,-1.9237,-1.8861,-1.8733,-1.8641,-1.8228,-1.7862,-1.7523,-1.7523,-1.7238,-1.6936,-1.6936,-1.6927,-1.6908,-1.6908,-1.6908,-1.6908,-1.6908,-1.6908,-1.6908,-1.6908,-1.6908,-1.6908,-1.6908,-1.6908,-1.6908,-1.6908,-1.6908,-1.6771,-1.6361,-1.5982,-1.5716,-1.5716,-1.5698,-1.5689,-1.5689,-1.5689,-1.5689,-1.5689,-1.5707,-1.59,-1.627,-1.6306,-1.6523,-1.6899,-1.6908,-1.6908,-1.6908,-1.6908,-1.6908,-1.6908,-1.6908,-1.6908,-1.7101,-1.7862,-1.8522,-1.9026,-1.9228,-1.9228,-1.8935,-1.8559,-1.8036,-1.7358,-1.6899,-1.6523,-1.6211,0.0,0.0,-1.8852,-1.9778,0.0,-2.1568,-2.1595,0.0,0.0,0.0,-2.1531,-2.1531,-2.1632,0.0,0.0,-2.1865,-2.1865,-2.1865,-2.1865,-2.1865,-2.1865,-2.1865,-2.1865,-2.1865,-2.1865,-2.1865,-2.1865,-2.183,-2.1785,-2.1785,-2.1731,-2.1696,-2.1696,-2.1696,-2.1696,-2.1696,-2.1696,-2.1449,-2.1099,-2.0998,-2.0714,-2.0278,-1.9916,-1.9769,-1.9683,-1.9412,-1.9301,-1.9283,-1.9182,-1.8953,-1.8687,-1.8595,-1.8284,-1.7963,-1.7963,-1.7669,-1.7348,-1.7348,-1.7128,-1.6908,-1.6908,-1.6908,-1.6908,-1.6908,-1.6908,-1.6908,-1.6908,-1.6908,-1.6908,-1.6908,-1.6908,-1.6908,-1.6908,-1.6908,-1.6872,-1.6771,-1.6404,-1.6156,-1.6156,-1.5881,-1.5689,-1.5689,-1.5689,-1.5689,-1.5689,-1.5982,-1.6178,-1.6312,-1.6606,-1.6807,-1.6908,-1.6908,-1.6908,-1.6908,-1.6908,-1.6908,-1.6908,-1.6908,-1.6908,-1.7652,-1.8093,-1.8333,-1.9082,-1.9173,-1.8857,-1.8141,-1.7537,-1.683,-1.573,-1.5409,0.0,-1.5037,0.0,0.0,0.0,0.0,0.0,-2.1302,-2.1577,-2.1696,0.0,-2.1696,0.0,-2.1696,-2.1696,-2.1696,0.0,-2.1696,-2.1696,-2.1696,-2.1696,-2.1696,-2.1696,-2.1696,-2.1696,-2.1696,-2.1696,-2.1696,-2.1696,-2.1696,-2.1696,-2.1696,-2.1696,-2.1696,-2.1696,0.0,-2.1696,-2.1696,-2.1696,-2.1549,-2.1365,-2.1181,-2.097,-2.0723,-2.0287,-2.0149,-2.0127,-1.9683,-1.9577,-1.9549,-1.9356,-1.9155,-1.8971,-1.8971,-1.8696,-1.8347,-1.8347,-1.8082,-1.777,-1.777,-1.7468,-1.7165,-1.7165,-1.7037,-1.6908,-1.6908,-1.6908,-1.6908,-1.6908,-1.6908,-1.6908,-1.6908,-1.6908,-1.6908,-1.6908,-1.6908,-1.6908,-1.6908,-1.6716,-1.6578,-1.6578,-1.6367,-1.6221,-1.6221,-1.6221,-1.6221,-1.6221,-1.6441,-1.6578,-1.6578,-1.6789,-1.6908,-1.6908,-1.6908,-1.6908,-1.6908,-1.6908,-1.6908,-1.6908,-1.7082,-1.7165,-1.8024,-1.7921,-1.7564,-1.8687,-1.8725,-1.8281,-1.7212,-1.6361,-1.542,-1.404,0.0,-1.3919,-1.4013,-1.5145,-1.6471,-1.7687,0.0,-1.9947,-2.088,-2.1272,-2.1553,-2.1696,-2.1696,-2.1696,-2.1696,-2.1696,-2.1696,-2.1696,-2.1696,-2.1696,-2.1696,-2.1696,-2.1696,-2.1696,-2.1696,-2.1696,-2.1696,-2.1696,-2.1696,-2.1696,-2.1696,-2.1696,-2.1696,-2.1696,-2.1696,-2.1696,-2.1696,0.0,-2.1696,-2.1696,-2.1696,-2.1659,-2.1337,-2.119,-2.1145,-2.0741,-2.0594,-2.0539,-2.0104,-1.993,-1.982,-1.9439,-1.9301,-1.9301,-1.9301,-1.9063,-1.8788,-1.8788,-1.8504,-1.8164,-1.8164,-1.7889,-1.7542,-1.7433,-1.7241,-1.6994,-1.6774,-1.6704,-1.6686,-1.6667,-1.6658,-1.664,-1.6551,-1.6542,-1.6542,-1.6508,-1.6508,-1.6508,-1.6508,-1.6726,-1.6908,-1.6908,-1.6908,-1.6908,-1.6908,-1.6908,-1.6908,-1.6908,-1.6908,-1.6908,-1.6908,-1.6908,-1.6908,-1.6908,-1.6908,-1.6908,-1.6908,-1.6928,-1.6947,-1.6965,-1.7323,-1.7505,-1.739,-1.7227,-1.6863,-1.709,-1.7405,-1.7385,-1.653,-1.5866,0.0,0.0,0.0,-1.2938,-1.3505,-1.4357,0.0,-1.6682,0.0,0.0,0.0,0.0,-2.0808,0.0,0.0,0.0,0.0,0.0,0.0,0.0,0.0,-2.1696,-2.1696,-2.1696,-2.1696,-2.1696,-2.1696,-2.1696,-2.1696,-2.1696,-2.1696,-2.1696,-2.1696,-2.1696,-2.1696,-2.1696,-2.1696,-2.1696,-2.1696,0.0,-2.1696,-2.1696,-2.1696,-2.1687,-2.1614,-2.1586,-2.1531,-2.1154,-2.1007,-2.0943,-2.0558,-2.0159,-1.982,-1.9439,-1.9301,-1.9301,-1.9301,-1.9256,-1.9201,-1.9201,-1.8916,-1.8614,-1.8614,-1.8311,-1.7824,-1.7107,-1.7436,-1.7493,-1.6033,-1.5732,-1.5681,-1.5471,-1.5414,-1.5272,-1.4828,-1.4736,-1.47,-1.4514,-1.4514,-1.4514,-1.4514,-1.5921,-1.6908,-1.6908,-1.6908,-1.6908,-1.6908,-1.6908,-1.6908,-1.6908,-1.6908,-1.6908,-1.6908,-1.6908,-1.6908,-1.6908,-1.6908,-1.6908,-1.6908,-1.7061,-1.7153,-1.7162,-1.7376,-1.7489,-1.654,-1.6271,-1.5827,-1.6535,-1.6493,-1.6067,-1.5059,0.0,0.0,0.0,0.0,-1.2089,-1.2405,0.0,0.0,0.0,0.0,0.0,0.0,0.0,0.0,0.0,0.0,0.0,0.0,0.0,0.0,0.0,0.0,-2.0628,-2.1642,-2.1696,-2.1696,-2.1696,-2.1696,-2.1696,-2.1696,-2.1696,-2.1696,-2.1696,-2.1696,-2.1454,-2.0988,-2.0988,-2.0988,-2.0988,-2.0988,0.0,-2.1696,-2.1696,-2.132,-2.0772,-2.0772,-2.0348,-1.977,-1.9541,-1.9474,-1.9415,-1.904,-1.8754,-1.8511,-1.8145,-1.8223,-1.8399,-1.7948,-1.7698,-1.7568,-1.7568,-1.7443,-1.7309,-1.7309,-1.7002,-1.658,-1.6154,-1.6248,-1.6147,-1.5335,-1.5142,-1.5096,-1.4972,-1.4942,-1.485,-1.4606,-1.4538,-1.4538,-1.4426,-1.4426,-1.4426,-1.4426,-1.5216,-1.5702,-1.5426,-1.5376,-1.5376,-1.5376,-1.5376,-1.5376,-1.5376,-1.5524,-1.5588,-1.5588,-1.5743,-1.5814,-1.5814,-1.5814,-1.5814,-1.5814,-1.5885,-1.5968,-1.5976,-1.6261,-1.6425,-1.5516,-1.5189,-1.4664,-1.5745,-1.545,-1.4706,-1.3645,-1.293,0.0,0.0,-1.1021,-1.1303,-1.1483,0.0,0.0,0.0,0.0,0.0,0.0,0.0,0.0,0.0,0.0,0.0,0.0,0.0,0.0,0.0,0.0,0.0,-2.0997,-2.1096,-2.1096,-2.1096,-2.1096,-2.1096,-2.1096,-2.1096,-2.1042,-2.0988,-2.0988,-2.0574,-1.9786,-1.9786,-1.9786,-1.9786,-1.9786,0.0,0.0,-2.0898,-2.0348,-1.9476,-1.9476,-1.8872,-1.7987,-1.7987,-1.7987,-1.7949,-1.7629,-1.7485,-1.7334,-1.6818,-1.7017,-1.7286,-1.6629,-1.6196,-1.6003,-1.6003,-1.6003,-1.6003,-1.6003,-1.5772,-1.5541,-1.5541,-1.4986,-1.4539,-1.4729,-1.4618,-1.4478,-1.4413,-1.4398,-1.4377,-1.4265,-1.4258,-1.4219,-1.4173,-1.418,-1.418,-1.418,-1.418,-1.4017,-1.3586,-1.3932,-1.4152,-1.4152,-1.4152,-1.4152,-1.4152,-1.4358,-1.4501,-1.4501,-1.469,-1.4794,-1.4794,-1.4794,-1.4794,-1.4794,-1.4831,-1.4868,-1.4875,-1.5238,-1.5388,-1.4323,-1.4014,-1.3561,-1.3682,-1.3777,-1.3673,-1.2938,0.0,0.0,-1.1337,-1.0807,-1.0611,-1.1365,-1.1628,0.0,0.0,0.0,-1.4523,0.0,0.0,0.0,0.0,0.0,0.0,0.0,0.0,0.0,0.0,0.0,0.0,-1.9018,-1.9063,-1.9063,-1.9063,-1.9063,-1.9063,-1.9063,-1.9063,-1.8918,-1.8718,-1.8718,-1.8534,-1.8218,-1.8218,-1.8218,-1.8218,-1.8218,0.0,0.0,-1.8357,-1.8265,-1.8172,-1.8172,-1.8079,-1.7987,-1.7987,-1.7987,-1.7979,-1.7956,-1.7736,-1.7281,-1.6407,-1.633,-1.6484,-1.6399,-1.6213,-1.6003,-1.6003,-1.6003,-1.6003,-1.6003,-1.598,-1.5957,-1.5957,-1.4726,-1.3772,-1.4539,-1.4094,-1.3448,-1.319,-1.3186,-1.302,-1.2517,-1.2433,-1.2393,-1.2194,-1.2154,-1.2154,-1.2154,-1.2154,-1.2135,-1.2086,-1.3666,-1.4743,-1.4743,-1.4743,-1.4743,-1.4743,-1.4734,-1.4749,-1.4749,-1.4779,-1.4794,-1.4794,-1.4794,-1.4794,-1.4794,-1.4984,-1.5053,-1.506,-1.5319,-1.5384,-1.3129,-1.3175,-1.3052,-1.3307,-1.3095,-1.2674,-1.2208,0.0,-1.1182,-1.0636,-1.0301,-1.0257,-1.0743,-1.0841,-1.1142,0.0,0.0,0.0,0.0,0.0,0.0,0.0,0.0,0.0,0.0,0.0,0.0,0.0,0.0,0.0,-1.6567,-1.7677,-1.8319,-1.8319,-1.8319,-1.8319,-1.8319,-1.8319,-1.8265,-1.8172,-1.8172,-1.7801,-1.7102,-1.7102,-1.7102,-1.7102,-1.7102,0.0,0.0,-1.7987,-1.7569,-1.6908,-1.6908,-1.6445,-1.5792,-1.5792,-1.5792,-1.5792,-1.5792,-1.5664,-1.5477,-1.5108,-1.4982,-1.4894,-1.4898,-1.4713,-1.4442,-1.4312,-1.4266,-1.4219,-1.4075,-1.4028,-1.4028,-1.4028,-1.3499,-1.3088,-1.3415,-1.3209,-1.2936,-1.2825,-1.2806,-1.2769,-1.254,-1.2516,-1.2474,-1.2391,-1.2391,-1.2391,-1.2391,-1.2391,-1.2391,-1.2391,-1.2783,-1.3048,-1.3048,-1.3048,-1.3048,-1.3048,-1.3213,-1.3306,-1.3306,-1.3431,-1.353,-1.353,-1.353,-1.353,-1.353,-1.3607,-1.366,-1.3666,-1.3743,-1.3753,-1.2145,-1.2461,-1.2675,-1.2976,-1.2587,-1.2,0.0,0.0,-1.061,-1.0139,-1.0077,-1.0159,-1.0463,-1.0514,-1.074,-1.1394,0.0,-1.2002,0.0,0.0,0.0,0.0,0.0,0.0,0.0,0.0,0.0,0.0,0.0,0.0,0.0,-1.6177,-1.6969,-1.7163,-1.7156,-1.7156,-1.7156,-1.7156,-1.7109,-1.7016,-1.7016,-1.6586,-1.5839,-1.5839,-1.5839,-1.5839,-1.5839,0.0,0.0,-1.6915,-1.6398,-1.565,-1.565,-1.5092,-1.4298,-1.4298,-1.4298,-1.4298,-1.4298,-1.4298,-1.4298,-1.4298,-1.4171,-1.4037,-1.4041,-1.3777,-1.3477,-1.329,-1.3137,-1.3061,-1.2777,-1.2705,-1.2705,-1.2705,-1.2705,-1.2705,-1.2705,-1.2705,-1.2705,-1.2705,-1.2705,-1.2705,-1.2705,-1.2705,-1.2705,-1.2705,-1.2705,-1.2705,-1.2705,-1.2705,-1.2705,-1.2705,-1.2373,-1.2155,-1.2155,-1.2155,-1.2155,-1.2155,-1.2324,-1.2427,-1.2427,-1.2608,-1.2705,-1.2705,-1.2705,-1.2705,-1.2705,-1.2705,-1.2705,-1.2705,-1.2705,-1.2705,-1.1357,-1.192,-1.2318,-1.2318,-1.2119,-1.167,0.0,-1.0485,-1.0289,-1.0223,-1.0201,-1.0315,-1.0713,-1.0798,-1.0928,-1.1249,-1.1733,0.0,0.0,0.0,0.0,0.0,0.0,0.0,0.0,0.0,0.0,0.0,0.0,0.0,0.0,-1.4346,-1.4586,-1.5131,-1.5131,-1.5131,-1.5131,-1.5131,-1.4981,-1.4736,-1.4736,-1.4592,-1.4346,-1.4346,-1.4346,0.0,0.0,0.0,0.0,-1.434,-1.4346,-1.4346,-1.4346,-1.4298,-1.4298,-1.4298,-1.4298,-1.4298,-1.4298,-1.4298,-1.4298,-1.4298,-1.4292,-1.4292,-1.4292,-1.3924,-1.3513,-1.3513,-1.3276,-1.3061,-1.2777,-1.2705,-1.2705,-1.2705,-1.2705,-1.2705,-1.2705,-1.2705,-1.2705,-1.2705,-1.2705,-1.2705,-1.2705,-1.2705,-1.2705,-1.2705,-1.2705,-1.2705,-1.2705,-1.2705,-1.2705,-1.2705,-1.2699,-1.2699,-1.2699,-1.2699,-1.2699,-1.2699,-1.2699,-1.2699,-1.2699,-1.2705,-1.2705,-1.2705,-1.2705,-1.2705,-1.2705,-1.2705,-1.2705,-1.2705,-1.2705,-1.2705,-1.0845,-1.1226,-1.1492,-1.1492,-1.1431,-1.1256,-1.0816,-1.0617,-1.0526,-1.0295,-1.0274,-1.0353,-1.0685,-1.0734,-1.0985,-1.1782,-1.2076,0.0,0.0,0.0,0.0,0.0,0.0,0.0,0.0,0.0,0.0,0.0,0.0,0.0,0.0,-1.4298,-1.4394,-1.4544,-1.4544,-1.4544,-1.4544,-1.4544,-1.4496,-1.4442,-1.4442,-1.4394,-1.4298,-1.4298,0.0,0.0,0.0,0.0,0.0,-1.4298,-1.4298,-1.4298,-1.4298,-1.4298,-1.4298,-1.4298,-1.4298,-1.4298,-1.4298,-1.4298,-1.4298,-1.4298,-1.4298,-1.4298,-1.4298,-1.4177,-1.4014,-1.3833,-1.3592,-1.3369,-1.3284,-1.3127,-1.2988,-1.2988,-1.2843,-1.2705,-1.2705,-1.2705,-1.2705,-1.2705,-1.2705,-1.2705,-1.2705,-1.2705,-1.2705,-1.2705,-1.2705,-1.2705,-1.2705,-1.2705,-1.2705,-1.2705,-1.2705,-1.2705,-1.2705,-1.2705,-1.2705,-1.2705,-1.2705,-1.2705,-1.2705,-1.2705,-1.2705,-1.2705,-1.2705,-1.2705,-1.2705,-1.2898,-1.3085,-1.3254,-1.3073,-1.3085,-1.0442,-1.0725,-1.0966,-1.0966,-1.1039,-1.1015,-1.0617,-1.0611,-1.0641,-1.0478,-1.0442,-1.0521,-1.0816,-1.0864,-1.11,-1.1835,-1.2019,0.0,0.0,0.0,0.0,0.0,0.0,0.0,0.0,0.0,0.0,0.0,0.0,0.0,0.0,-1.4298,-1.4298,-1.4298,-1.4298,-1.4298,-1.4298,-1.4298,-1.4298,-1.4298,-1.4298,-1.4298,-1.4298,-1.4298,0.0,0.0,0.0,0.0,0.0,-1.4298,-1.4298,-1.4298,-1.4298,-1.4298,-1.4298,-1.4298,-1.4298,-1.4298,-1.4298,-1.4298,-1.4298,-1.4298,-1.4298,-1.4298,-1.4298,-1.4298,-1.4244,-1.3978,-1.3791,-1.364,-1.3544,-1.3393,-1.3272,-1.3272,-1.3139,-1.3006,-1.3006,-1.2928,-1.2862,-1.2862,-1.2777,-1.2735,-1.2843,-1.2862,-1.2898,-1.2994,-1.3006,-1.3006,-1.3006,-1.3006,-1.3006,-1.3006,-1.3006,-1.3006,-1.3006,-1.2819,-1.2705,-1.2705,-1.2705,-1.2753,-1.2862,-1.2862,-1.291,-1.3006,-1.3006,-1.3006,-1.3006,-1.3188,-1.3357,-1.3513,-1.335,-1.3357,0.0,-1.0412,-1.0605,-1.0623,-1.0821,-1.093,-1.043,-1.0527,0.0,-1.0713,-1.0713,-1.0828,-1.1093,-1.1141,-1.1244,-1.1525,-1.1796,0.0,0.0,0.0,0.0,0.0,0.0,0.0,0.0,0.0,0.0,0.0,0.0,0.0,0.0,-1.4298,-1.4298,-1.4298,-1.4298,-1.4298,-1.4298,-1.4298,-1.4298,-1.4298,-1.4298,-1.4298,-1.4298,-1.4298,-1.4298,0.0,0.0,0.0,0.0,-1.4298,-1.4298,-1.4298,-1.4298,-1.4298,-1.4298,-1.4298,-1.4298,-1.4298,-1.4298,-1.4298,-1.4298,-1.4298,-1.4298,-1.4298,-1.4298,-1.4298,-1.4244,-1.4002,-1.3936,-1.3876,-1.3634,-1.3556,-1.3544,-1.3544,-1.3525,-1.3513,-1.3513,-1.3276,-1.3107,-1.3107,-1.294,-1.2843,-1.3109,-1.3107,-1.3191,-1.3477,-1.3513,-1.3513,-1.3513,-1.3513,-1.3513,-1.3513,-1.3513,-1.3513,-1.3513,-1.3049,-1.2765,-1.2765,-1.2765,-1.288,-1.3139,-1.3107,-1.3266,-1.3513,-1.3513,-1.3525,-1.3544,-1.3525,-1.3538,-1.3568,-1.355,-1.3556,-0.9666,0.0,-0.9835,-1.0039,-1.0286,-1.0497,0.0,-1.0791,-1.1021,-1.1021,0.0,-1.1105,-1.1345,-1.1393,-1.1615,-1.2318,-1.2662,0.0,0.0,0.0,0.0,0.0,0.0,0.0,0.0,0.0,0.0,0.0,0.0,0.0,0.0,-1.4298,-1.4298,-1.4298,-1.4298,-1.4298,-1.4298,-1.4298,-1.4298,-1.4298,-1.4298,-1.4298,-1.4298,-1.4298,-1.4298,0.0,0.0,0.0,-1.4298,-1.4298,-1.4298,-1.4298,-1.4298,-1.4298,-1.4298,-1.4298,-1.4298,-1.4298,-1.4298,-1.4298,-1.4298,-1.4298,-1.4298,-1.4298,-1.4298,-1.4298,-1.4286,-1.422,-1.4208,-1.4189,-1.4129,-1.3966,-1.3815,-1.3815,-1.3664,-1.3513,-1.3513,-1.3465,-1.3423,-1.3423,-1.3369,-1.3344,-1.3411,-1.3423,-1.3441,-1.3507,-1.3513,-1.3513,-1.3513,-1.3513,-1.3513,-1.3513,-1.3513,-1.3513,-1.3513,-1.3399,-1.3326,-1.3326,-1.3326,-1.335,-1.3423,-1.3423,-1.3453,-1.3513,-1.3513,-1.361,-1.3815,-1.361,-1.3719,-1.4111,-1.3906,-1.3924,-0.9516,-0.969,-0.9907,-1.0045,-1.037,-1.0725,-1.0864,-1.1009,0.0,0.0,0.0,-1.1196,-1.1441,-1.1495,0.0,0.0,0.0,0.0,0.0,0.0,0.0,0.0,0.0,0.0,0.0,0.0,0.0,0.0,0.0,0.0,0.0,-1.4298,-1.4298,-1.4298,-1.4298,-1.4298,-1.4298,-1.4298,-1.4298,-1.4298,-1.4298,-1.4298,-1.4298,-1.4298,-1.4298,0.0,0.0,0.0,-1.4298,-1.4298,-1.4298,-1.4298,-1.4298,-1.4298,-1.4298,-1.4298,-1.4298,-1.4298,-1.4298,-1.4298,-1.4298,-1.4298,-1.4298,-1.4298,-1.4298,-1.4298,-1.4298,-1.4298,-1.4298,-1.4298,-1.4298,-1.4189,-1.4087,-1.4087,-1.3978,-1.3876,-1.3876,-1.3779,-1.3694,-1.3694,-1.3598,-1.3556,-1.3676,-1.3694,-1.3737,-1.3857,-1.3876,-1.3876,-1.3876,-1.3876,-1.3876,-1.3876,-1.3876,-1.3876,-1.3876,-1.3876,-1.3773,-1.3532,-1.3513,-1.3568,-1.3688,-1.3694,-1.3749,-1.387,-1.3876,-1.3948,-1.4087,-1.3942,-1.402,-1.4292,-1.4153,-1.4159,-0.9612,-0.9914,-1.0219,-1.0281,-1.0689,-1.1111,-1.1111,0.0,0.0,0.0,0.0,0.0,0.0,0.0,0.0,0.0,0.0,0.0,0.0,0.0,0.0,0.0,0.0,0.0,0.0,0.0,0.0,0.0,0.0,0.0,0.0,-1.4298,-1.4298,-1.4298,-1.4298,-1.4298,-1.4298,-1.4298,-1.4298,-1.4298,-1.4298,-1.4298,-1.4298,-1.4298,-1.4298,-1.4298,0.0,0.0,-1.4298,-1.4298,-1.4298,-1.4298,-1.4298,-1.4298,-1.4298,-1.4298,-1.4298,-1.4298,-1.4298,-1.4298,-1.4298,-1.4298,-1.4298,-1.4298,-1.4298,-1.4298,-1.4298,-1.4298,-1.4298,-1.4298,-1.4298,-1.4298,-1.4298,-1.4298,-1.4298,-1.4298,-1.4298,-1.4123,-1.3966,-1.3966,-1.3785,-1.3707,-1.393,-1.3966,-1.4039,-1.4262,-1.4298,-1.4298,-1.4298,-1.4298,-1.4298,-1.4298,-1.4298,-1.4298,-1.4298,-1.4298,-1.4111,-1.3664,-1.3634,-1.3731,-1.3954,-1.3966,-1.4069,-1.4292,-1.4298,-1.4298,-1.4298,-1.4298,-1.4298,-1.4298,-1.4298,-1.4298,-1.0051,-0.998,-0.9885,-1.0196,-1.0689,-1.1111,-1.1111,0.0,0.0,0.0,0.0,0.0,0.0,0.0,0.0,0.0,0.0,0.0,0.0,0.0,0.0,0.0,0.0,0.0,0.0,0.0,0.0,0.0,0.0,0.0,0.0,-1.4298,-1.4298,-1.4298,-1.4298,-1.4298,-1.4298,-1.4298,-1.4298,-1.4298,-1.4298,-1.4298,-1.4298,-1.4298,-1.4298,-1.4298,0.0,-1.4298,-1.4298,-1.4298,-1.4298,-1.4298,-1.4298,-1.4298,-1.4298,-1.4298,-1.4298,-1.4298,-1.4298,-1.4298,-1.4298,-1.4298,-1.4298,-1.4298,-1.4298,-1.4298,-1.4298,-1.4298,-1.4298,-1.4298,-1.4298,-1.4298,-1.4298,-1.4298,-1.4298,-1.4298,-1.4298,-1.4262,-1.4238,-1.4238,-1.4208,-1.4189,-1.4226,-1.4238,-1.425,-1.4292,-1.4298,-1.4298,-1.4298,-1.4298,-1.4298,-1.4298,-1.4298,-1.4298,-1.4298,-1.4298,-1.4262,-1.4183,-1.4177,-1.4195,-1.4238,-1.4238,-1.4256,-1.4298,-1.4298,-1.4298,-1.4298,-1.4298,-1.4298,-1.4298,-1.4298,-1.4298,-0.8659,-0.9224,-0.9627,-0.9294,-0.9744,-1.0232,-1.0232,-1.0132,0.0,0.0,0.0,0.0,0.0,0.0,0.0,0.0,0.0,0.0,0.0,0.0,0.0,0.0,0.0,0.0,0.0,0.0,0.0,0.0,0.0,0.0,0.0,0.0,-1.4298,-1.4298,-1.4298,-1.4298,-1.4298,-1.4298,-1.4298,-1.4298,-1.4298,-1.4298,-1.4298,-1.4298,-1.4298,-1.4298,0.0,-1.4298,-1.4298,-1.4298,-1.4298,-1.4298,-1.4298,-1.4298,-1.4298,-1.4298,-1.4298,-1.4298,-1.4298,-1.4298,-1.4298,-1.4298,-1.4298,-1.4298,-1.4298,-1.4298,-1.4298,-1.4298,-1.4298,-1.4298,-1.4298,-1.4298,-1.4298,-1.4298,-1.4298,-1.4298,-1.4298,-1.4298,-1.4298,-1.4298,-1.4298,-1.4298,-1.4298,-1.4298,-1.4298,-1.4298,-1.4298,-1.4298,-1.4298,-1.4298,-1.4298,-1.4298,-1.4298,-1.4298,-1.4298,-1.4298,-1.4298,-1.4298,-1.4298,-1.4298,-1.4298,-1.4298,-1.4298,-1.4298,-1.4298,-1.4298,-1.4298,-1.4298,-1.4298,-1.4298,-1.4298,-1.4298,-0.7569,-0.8329,-0.8956,-0.8351,-0.8962,-0.9663,-0.9513,-0.9294,0.0,0.0,0.0,0.0,0.0,0.0,0.0,0.0,0.0,0.0,0.0,0.0,0.0,0.0,0.0,0.0,0.0,0.0,0.0,0.0,0.0,0.0,0.0,0.0,-1.4298,-1.4298,-1.4298,-1.4298,-1.4298,-1.4298,-1.4298,-1.4298,-1.4298,-1.4298,-1.4298,-1.4298,-1.4298,-1.4298,-1.4298,-1.4298,-1.4298,-1.4298,-1.4298,-1.4298,-1.4298,-1.4298,-1.4298,-1.4298,-1.4298,-1.4298,-1.4298,-1.4298,-1.4298,-1.4298,-1.4298,-1.4298,-1.4298,-1.4298,-1.4298,-1.4298,-1.4298,-1.4298,-1.4298,-1.4298,-1.4298,-1.4298,-1.4298,-1.4298,-1.4298,-1.4298,-1.4298,-1.4298,-1.4298,-1.4298,-1.4298,-1.4298,-1.4298,-1.4298,-1.4298,-1.4298,-1.4298,-1.4298,-1.4298,-1.4298,-1.4298,-1.4298,-1.4298,-1.4298,-1.4298,-1.4298,-1.4298,-1.4298,-1.4298,-1.4298,-1.4298,-1.4298,-1.4298,-1.425,-1.4208,-1.4208,-1.4154,-1.4106,-1.4106,-1.4106,-0.8018,-0.7726,-0.7393,-0.7818,-0.9085,-1.0115,-0.9545,-0.9257,0.0,-0.959,0.0,0.0,0.0,0.0,0.0,0.0,0.0,0.0,0.0,0.0,0.0,0.0,0.0,0.0,0.0,0.0,0.0,0.0,0.0,0.0,0.0,0.0,0.0,-1.4298,-1.4298,-1.4298,-1.4298,-1.4298,-1.4298,-1.4298,-1.4298,-1.4298,-1.4298,-1.4298,-1.4298,-1.4298,-1.4298,-1.4298,-1.4298,-1.4298,-1.4298,-1.4298,-1.4298,-1.4298,-1.4298,-1.4298,-1.4298,-1.4298,-1.4298,-1.4298,-1.4298,-1.4298,-1.4298,-1.4298,-1.4298,-1.4298,-1.4298,-1.4298,-1.4298,-1.4298,-1.4298,-1.4298,-1.4298,-1.4298,-1.4298,-1.4298,-1.4298,-1.4298,-1.4298,-1.4298,-1.4298,-1.4298,-1.4298,-1.4298,-1.4298,-1.4298,-1.4298,-1.4298,-1.4298,-1.4298,-1.4298,-1.4298,-1.4298,-1.4298,-1.4298,-1.4298,-1.4298,-1.4298,-1.4298,-1.4298,-1.4298,-1.4298,-1.4298,-1.4298,-1.4298,-1.416,-1.3931,-1.3931,-1.3786,-1.3539,-1.3539,-1.3539,-0.6402,-0.6877,-0.7297,-0.6971,-0.7909,0.0,0.0,-0.8,-0.8268,-0.9042,-0.9287,0.0,0.0,0.0,0.0,0.0,0.0,0.0,0.0,0.0,0.0,0.0,0.0,0.0,0.0,0.0,0.0,0.0,0.0,0.0,0.0,-1.4298,-1.4298,-1.4298,-1.4298,-1.4298,-1.4298,-1.4298,-1.4298,-1.4298,-1.4298,-1.4298,-1.4298,-1.4298,-1.4298,-1.4298,-1.4298,-1.4298,-1.4298,-1.4298,-1.4298,-1.4298,-1.4298,-1.4298,-1.4298,-1.4298,-1.4298,-1.4298,-1.4298,-1.4298,-1.4298,-1.4298,-1.4298,-1.4298,-1.4298,-1.4298,-1.4298,-1.4298,-1.4298,-1.4298,-1.4298,-1.4298,-1.4298,-1.4298,-1.4298,-1.4298,-1.4298,-1.4298,-1.4298,-1.4298,-1.4298,-1.4298,-1.4298,-1.4298,-1.4298,-1.4298,-1.4298,-1.4298,-1.4298,-1.4298,-1.4298,-1.4298,-1.4298,-1.4298,-1.4298,-1.4298,-1.4256,-1.407,-1.4208,-1.4298,-1.4298,-1.416,-1.407,-1.407,-1.3877,-1.3732,-1.3636,-1.3636,-1.3593,-1.3491,-1.3491,-1.3491,-0.5535,-0.6302,-0.701,-0.653,0.0,0.0,-0.7317,-0.7329,-0.7622,-0.8524,-0.8587,0.0,0.0,0.0,0.0,0.0,0.0,0.0,0.0,0.0,0.0,0.0,0.0,0.0,0.0,0.0,0.0,0.0,0.0,0.0,0.0,-1.425,-1.4298,-1.4298,-1.4298,-1.4298,-1.4298,-1.4202,-1.416,-1.416,-1.4106,-1.4106,-1.416,-1.416,-1.4112,-1.4058,-1.4058,-1.4058,-1.4058,-1.4058,-1.4058,-1.4058,-1.4058,-1.4058,-1.4058,-1.4058,-1.4058,-1.4058,-1.416,-1.4112,-1.4058,-1.416,-1.4112,-1.4058,-1.4058,-1.4112,-1.416,-1.416,-1.425,-1.4298,-1.4298,-1.4298,-1.4298,-1.4298,-1.4298,-1.4298,-1.4298,-1.4298,-1.4298,-1.4298,-1.4298,-1.4298,-1.4298,-1.4298,-1.4298,-1.4298,-1.4298,-1.4298,-1.4298,-1.4298,-1.4298,-1.4298,-1.4298,-1.425,-1.416,-1.416,-1.4064,-1.3786,-1.3973,-1.4058,-1.4058,-1.3877,-1.3786,-1.3786,-1.3593,-1.3443,-1.3394,-1.3394,-1.3147,-1.2748,-1.2748,-1.2603,-0.58,-0.6064,-0.6371,0.0,0.0,0.0,-0.7502,-0.7485,-0.7502,-0.7897,0.0,0.0,0.0,0.0,0.0,0.0,0.0,0.0,0.0,0.0,0.0,0.0,0.0,0.0,0.0,0.0,0.0,0.0,0.0,0.0,0.0,-1.416,-1.4298,-1.4298,-1.4298,-1.4298,-1.4298,-1.4022,-1.3883,-1.3883,-1.3642,-1.3642,-1.3883,-1.3883,-1.3738,-1.3491,-1.3491,-1.3491,-1.3491,-1.3491,-1.3491,-1.3491,-1.3491,-1.3491,-1.3491,-1.3491,-1.3491,-1.3539,-1.3786,-1.3738,-1.3539,-1.3786,-1.3738,-1.3491,-1.3491,-1.369,-1.3883,-1.3883,-1.407,-1.4298,-1.4298,-1.4298,-1.4298,-1.4298,-1.4298,-1.4298,-1.4298,-1.4298,-1.4298,-1.4298,-1.4298,-1.4298,-1.4298,-1.4298,-1.4298,-1.4298,-1.4298,-1.4298,-1.4298,-1.4298,-1.4298,-1.4292,-1.4292,-1.416,-1.3883,-1.3883,-1.3738,-1.3491,-1.3491,-1.3491,-1.3491,-1.3491,-1.3491,-1.3491,-1.3491,-1.3346,-1.3098,-1.3098,-1.2408,-1.117,-1.117,-1.0636,-0.5681,-0.6061,0.0,0.0,0.0,0.0,0.0,-0.7289,0.0,0.0,0.0,0.0,0.0,0.0,0.0,0.0,0.0,0.0,0.0,0.0,0.0,0.0,0.0,0.0,0.0,0.0,0.0,0.0,0.0,0.0,0.0,-1.3684,-1.3727,-1.3727,-1.3727,-1.3727,-1.3727,-1.3636,-1.3636,-1.3636,-1.3539,-1.3539,-1.3636,-1.3636,-1.3588,-1.3491,-1.3491,-1.3491,-1.3491,-1.3491,-1.3491,-1.3491,-1.3491,-1.3491,-1.3491,-1.3491,-1.3491,-1.3491,-1.3593,-1.3588,-1.3491,-1.3593,-1.3539,-1.3491,-1.3491,-1.3545,-1.3636,-1.3636,-1.3684,-1.3727,-1.3727,-1.3727,-1.3823,-1.4202,-1.4298,-1.4298,-1.4298,-1.4298,-1.4298,-1.4298,-1.4298,-1.4298,-1.4298,-1.4298,-1.4298,-1.4298,-1.4298,-1.4298,-1.4298,-1.4298,-1.3956,-1.2974,-1.2877,-1.2484,-1.1502,-1.1453,-1.1312,-1.1082,-1.1028,-1.1765,-1.3443,-1.3298,-1.3195,-1.3195,-1.3104,-1.2608,-1.1765,-1.1765,-1.1175,-1.0047,-1.0047,-0.9899,-0.5912,-0.6218,0.0,0.0,0.0,0.0,0.0,0.0,0.0,0.0,0.0,0.0,0.0,0.0,0.0,0.0,0.0,0.0,0.0,0.0,0.0,0.0,0.0,0.0,0.0,0.0,0.0,0.0,0.0,0.0,0.0,-1.3443,-1.3491,-1.3491,-1.3491,-1.3491,-1.3491,-1.3394,-1.3346,-1.3346,-1.3249,-1.3201,-1.3201,-1.3298,-1.3298,-1.3201,-1.3201,-1.3201,-1.3201,-1.3201,-1.3201,-1.3201,-1.3201,-1.3201,-1.3201,-1.3201,-1.3201,-1.3249,-1.3298,-1.3298,-1.3249,-1.3298,-1.3298,-1.3201,-1.3201,-1.3298,-1.3346,-1.3346,-1.3443,-1.3491,-1.3491,-1.3491,-1.3588,-1.4016,-1.416,-1.416,-1.4298,-1.4298,-1.4298,-1.4298,-1.4298,-1.4298,-1.4298,-1.4298,-1.4298,-1.4298,-1.3956,-1.3516,-1.3125,-1.2974,-1.2587,-1.1804,-1.1604,-1.1209,-1.0329,-1.023,-1.0137,-0.985,-0.985,-1.0489,-1.1868,-1.1819,-1.1722,-1.1722,-1.1575,-1.1228,-1.0538,-1.0538,-0.9993,-0.8962,-0.8962,-0.8715,-0.6247,0.0,0.0,0.0,0.0,0.0,0.0,0.0,0.0,0.0,0.0,0.0,0.0,0.0,0.0,0.0,0.0,0.0,0.0,0.0,0.0,0.0,0.0,0.0,0.0,0.0,0.0,0.0,0.0,0.0,0.0,-1.3298,-1.3443,-1.3443,-1.3443,-1.3443,-1.3443,-1.3195,-1.305,-1.305,-1.291,-1.2813,-1.2813,-1.3007,-1.2953,-1.2813,-1.2813,-1.2813,-1.2813,-1.2813,-1.2813,-1.2813,-1.2813,-1.2813,-1.2813,-1.2813,-1.2813,-1.2813,-1.3001,-1.2953,-1.2813,-1.3001,-1.2953,-1.2813,-1.2813,-1.291,-1.305,-1.305,-1.3249,-1.3443,-1.3443,-1.3443,-1.3491,-1.3738,-1.3835,-1.3931,-1.4154,-1.425,-1.425,-1.425,-1.4154,-1.4154,-1.4154,-1.4052,-1.4004,-1.4004,-1.3173,-1.2193,-1.1268,-1.0925,-1.073,-1.0583,-1.0378,-1.0079,-0.9698,-0.9653,-0.9554,-0.9308,-0.9308,-0.9308,-0.9308,-0.9509,-0.9608,-0.9608,-0.9608,-0.9558,-0.946,-0.946,-0.8913,-0.7875,-0.7875,-0.7329,-0.5851,-0.6059,0.0,0.0,0.0,0.0,0.0,0.0,0.0,0.0,0.0,0.0,0.0,0.0,0.0,0.0,0.0,0.0,0.0,0.0,0.0,0.0,0.0,0.0,0.0,0.0,0.0,0.0,0.0,0.0,-1.2861,-1.291,-1.2958,-1.2958,-1.2958,-1.2958,-1.2958,-1.291,-1.2861,0.0,-1.2813,-1.2813,-1.2813,-1.2861,-1.2861,-1.2813,-1.2813,-1.2813,-1.2813,-1.2813,-1.2813,-1.2813,-1.2813,-1.2813,-1.2813,-1.2813,-1.2813,-1.2813,-1.2861,-1.2861,-1.2813,-1.2861,-1.2861,-1.2813,-1.2813,-1.2813,-1.2861,-1.2861,-1.291,-1.2958,-1.2958,-1.2958,-1.3007,-1.3195,-1.3443,-1.3588,-1.3684,-1.3684,-1.3684,-1.3684,-1.3184,-1.2834,-1.2834,-1.2296,-1.1853,-1.1853,-1.1512,-1.1121,-1.0925,-1.0672,-1.0079,-0.9053,-0.8856,-0.8361,-0.7279,-0.7179,-0.7129,-0.708,-0.708,-0.708,-0.708,-0.8715,-0.9608,-0.9608,-0.9608,-0.9164,-0.8319,-0.8319,-0.7776,-0.6734,-0.6734,-0.6634,-0.5731,0.0,0.0,0.0,0.0,0.0,0.0,0.0,0.0,0.0,0.0,0.0,0.0,0.0,0.0,0.0,0.0,0.0,0.0,0.0,0.0,0.0,0.0,0.0,0.0,0.0,0.0,0.0,0.0,-1.2262,-1.2764,-1.2813,-1.2813,-1.2813,-1.2813,-1.2813,-1.2813,-1.2813,-1.2813,-1.2813,-1.2813,-1.2813,-1.2813,-1.2813,-1.2813,-1.2813,-1.2813,-1.2813,-1.2813,-1.2813,-1.2813,-1.2813,-1.2813,-1.2813,-1.2813,-1.2813,-1.2813,-1.2813,-1.2813,-1.2813,-1.2813,-1.2813,-1.2813,-1.2813,-1.2813,-1.2813,-1.2813,-1.2813,-1.2813,-1.2813,-1.2813,-1.2813,-1.271,-1.2311,-1.2754,-1.3346,-1.3491,-1.3141,-1.2797,-1.2797,-1.2052,-1.1502,-1.1609,-1.1365,-1.0974,-1.0342,-1.0096,-0.9801,-0.916,-0.8859,-0.8414,-0.7726,-0.7528,-0.7179,-0.6437,-0.6387,-0.6387,-0.6387,-0.6387,-0.6387,-0.6387,-0.7478,-0.8071,-0.8071,-0.8071,-0.7776,-0.7229,-0.7229,-0.6933,-0.6387,-0.6387,-0.6387,-0.5571,0.0,-0.59,0.0,0.0,0.0,0.0,0.0,0.0,0.0,0.0,0.0,0.0,0.0,0.0,0.0,0.0,0.0,0.0,0.0,0.0,0.0,0.0,0.0,0.0,0.0,0.0,0.0,0.0,-1.1668,-1.2759,-1.2813,-1.2813,-1.2813,-1.2813,-1.2813,-1.2813,-1.2813,-1.2813,-1.2813,-1.2813,-1.2813,-1.2813,-1.2813,-1.2813,-1.2813,-1.2813,-1.2813,-1.2813,-1.2813,-1.2813,-1.2813,-1.2813,-1.2813,-1.2813,-1.2813,-1.2813,-1.2813,-1.2813,-1.2813,-1.2813,-1.2813,-1.2813,-1.2813,-1.2813,-1.2813,-1.2813,-1.2813,-1.2662,-1.2511,-1.2511,-1.237,-1.2019,-1.1126,-1.1717,-1.2554,-1.2802,-1.2306,-1.1809,-1.1609,-1.0769,-1.0083,-1.0137,-1.0337,-1.0141,-0.9015,-0.8847,-0.8407,-0.7291,-0.6912,-0.6768,-0.6745,-0.6539,-0.6387,-0.6387,-0.6387,-0.6387,-0.6387,-0.6387,-0.6387,-0.6387,-0.6406,-0.6416,-0.6416,-0.6398,-0.6387,-0.6387,-0.6387,-0.6387,-0.6387,-0.6387,-0.6387,0.0,0.0,0.0,0.0,0.0,0.0,0.0,0.0,0.0,0.0,0.0,0.0,0.0,0.0,0.0,0.0,0.0,0.0,0.0,0.0,0.0,0.0,0.0,0.0,0.0,0.0,0.0,0.0,-1.0681,-1.1668,-1.2759,-1.2813,-1.2813,-1.2813,-1.2813,-1.2813,-1.2813,-1.2813,-1.2813,-1.2813,-1.2813,-1.2813,-1.2813,-1.2813,-1.2813,-1.2813,-1.2813,-1.2813,-1.2813,-1.2813,-1.2813,-1.2813,-1.2813,-1.2813,-1.2813,-1.2813,-1.2813,-1.2813,-1.2813,-1.2813,-1.2813,-1.2813,-1.2813,-1.2813,-1.2813,-1.2813,-1.2813,-1.2813,-1.2116,-1.1419,-1.1419,-1.0734,-1.0002,-0.9854,-0.9953,-1.01,-1.0096,-1.0734,-1.1023,-1.0096,-0.9262,-0.8474,-0.7779,-0.773,-0.7683,-0.7484,-0.7389,-0.7172,-0.6906,-0.6735,-0.6607,-0.6448,-0.6437,-0.6387,-0.6387,-0.6387,-0.6387,-0.6387,-0.6387,-0.6387,-0.6387,-0.6489,-0.6594,-0.6594,-0.6438,-0.6387,-0.6387,-0.6387,-0.6387,-0.6387,-0.6387,-0.6387,-0.5033,-0.5287,0.0,0.0,0.0,0.0,0.0,0.0,0.0,0.0,0.0,0.0,0.0,0.0,0.0,0.0,0.0,0.0,0.0,0.0,0.0,0.0,0.0,0.0,0.0,0.0,0.0,0.0,-0.9698,-1.0783,-1.1868,-1.1917,-1.1917,-1.1917,-1.1326,-1.0984,-1.0984,-1.0984,-1.1331,-1.1917,-1.2511,-1.2813,-1.2813,-1.2813,-1.2813,-1.2813,-1.2813,-1.2813,-1.2813,-1.2813,-1.2813,-1.2813,-1.2813,-1.2813,-1.2813,-1.2813,-1.2813,-1.2813,-1.2813,-1.2813,-1.271,-1.2116,-1.2311,-1.2565,-1.138,-1.1429,-1.177,-1.1184,-1.069,-1.0293,-1.0293,-0.9948,-0.946,-0.8863,-0.916,-0.9258,-0.8071,-0.8662,-0.9106,-0.8021,-0.7633,-0.7391,-0.7042,-0.7151,-0.7253,-0.7101,-0.711,-0.7015,-0.6806,-0.6741,-0.67,-0.6646,-0.6641,-0.6641,-0.6641,-0.6641,-0.6641,-0.6641,-0.6641,-0.6641,-0.6641,-0.6692,-0.6722,-0.6722,-0.6668,-0.6641,-0.6641,-0.6641,-0.6641,-0.6641,-0.6641,-0.6641,0.0,0.0,0.0,0.0,0.0,0.0,0.0,0.0,0.0,0.0,0.0,0.0,0.0,0.0,0.0,0.0,0.0,0.0,0.0,0.0,0.0,0.0,0.0,0.0,0.0,0.0,0.0,0.0,-0.8764,-0.9653,-1.0734,-1.0779,-1.0779,-1.0779,-0.9998,-0.9608,-0.9608,-0.9608,-0.9998,-1.0832,-1.1868,-1.2268,-1.2024,-1.2268,-1.2214,-1.2019,-1.2565,-1.2813,-1.2813,-1.2813,-1.2813,-1.2813,-1.2813,-1.2813,-1.2813,-1.2813,-1.2813,-1.2764,-1.2511,-1.2414,-1.2214,-1.1126,-1.1326,-1.1678,-1.01,-1.0145,-1.0632,-0.9801,-0.941,-0.9213,-0.9213,-0.9011,-0.8566,-0.7773,-0.8219,-0.8418,-0.708,-0.7229,-0.7378,-0.6534,-0.6564,-0.674,-0.674,-0.7049,-0.7185,-0.6981,-0.7086,-0.7046,-0.6806,-0.6828,-0.6836,-0.6804,-0.6801,-0.6801,-0.6801,-0.6801,-0.6801,-0.6801,-0.6801,-0.6801,-0.6801,-0.6831,-0.685,-0.685,-0.6877,-0.6864,-0.6801,-0.6801,-0.6801,-0.6801,-0.6801,-0.6801,0.0,0.0,0.0,0.0,0.0,0.0,0.0,0.0,0.0,0.0,0.0,0.0,0.0,0.0,0.0,0.0,0.0,0.0,0.0,0.0,0.0,0.0,0.0,0.0,0.0,0.0,0.0,0.0,-0.8071,-0.8566,-0.9608,-0.9706,-0.9706,-0.9706,-0.9608,-0.9608,-0.9608,-0.9608,-0.9608,-0.9706,-1.0783,-1.0734,-0.9805,-1.0832,-1.0734,-0.9903,-1.1922,-1.2813,-1.2813,-1.2813,-1.2813,-1.2813,-1.2813,-1.2813,-1.2813,-1.2813,-1.2813,-1.2662,-1.1619,-1.1268,-1.1126,-1.0047,-0.9706,-0.9756,-0.9657,-0.9657,-0.9657,-0.9608,-0.8863,-0.8071,-0.8071,-0.7329,-0.6534,-0.6484,-0.6537,-0.6833,-0.7723,-0.7179,-0.6487,-0.6387,-0.6532,-0.6611,-0.6611,-0.6711,-0.6846,-0.6793,-0.695,-0.6934,-0.6817,-0.6904,-0.6931,-0.6815,-0.6801,-0.6801,-0.6801,-0.6801,-0.6801,-0.6801,-0.6801,-0.6801,-0.6801,-0.6912,-0.6975,-0.6975,-0.7136,-0.7081,-0.6801,-0.6801,-0.6801,-0.6801,-0.6801,-0.6801,0.0,0.0,0.0,0.0,0.0,0.0,0.0,0.0,0.0,0.0,0.0,0.0,0.0,0.0,0.0,0.0,0.0,0.0,0.0,0.0,0.0,0.0,0.0,0.0,0.0,0.0,0.0,0.0,0.0,-0.817,-0.8566,-0.8566,-0.8566,-0.8566,-0.7925,-0.7528,-0.7528,-0.8219,-0.8566,-0.8566,-0.9649,-0.9948,-0.9608,-0.9998,-0.9948,-0.9657,-1.0395,-1.0739,-1.0739,-1.0739,-1.0739,-1.0739,-1.0739,-1.0739,-1.0739,-1.0739,-1.0739,-1.069,-1.0293,-1.0145,-0.9998,-0.8913,-0.9065,-0.9361,-0.7975,-0.8021,-0.8439,-0.7841,-0.7411,-0.713,-0.7216,-0.6926,-0.6671,-0.6671,-0.6671,-0.6774,-0.7133,-0.6799,-0.6387,-0.6387,-0.6484,-0.6619,-0.6619,-0.6787,-0.6918,-0.6918,-0.7018,-0.7133,-0.7087,-0.7122,-0.713,-0.7087,-0.7081,-0.7081,-0.7081,-0.7081,-0.7081,-0.7081,-0.7081,-0.7081,-0.7081,-0.7125,-0.715,-0.715,-0.7188,-0.7166,-0.7081,-0.7081,-0.7081,-0.7081,-0.7081,-0.7081,-0.4482,0.0,0.0,0.0,0.0,0.0,0.0,0.0,0.0,0.0,0.0,0.0,0.0,0.0,0.0,0.0,0.0,0.0,0.0,0.0,0.0,0.0,0.0,0.0,0.0,0.0,0.0,0.0,0.0,0.0,-0.7478,-0.7478,-0.7478,-0.7478,-0.6783,-0.6387,-0.6387,-0.7129,-0.7478,-0.7478,-0.8566,-0.8863,-0.8517,-0.8913,-0.8863,-0.8517,-0.8517,-0.8913,-0.9608,-0.9608,-0.9608,-0.9608,-0.9608,-0.9608,-0.9608,-0.9608,-0.9608,-0.9558,-0.9213,-0.9061,-0.8863,-0.7826,-0.7922,-0.8269,-0.6833,-0.6912,-0.7418,-0.6799,-0.6649,-0.67,-0.6782,-0.6801,-0.6801,-0.6801,-0.6801,-0.6801,-0.6801,-0.6673,-0.6559,-0.6559,-0.666,-0.6741,-0.6741,-0.691,-0.7043,-0.7043,-0.7161,-0.721,-0.721,-0.721,-0.721,-0.721,-0.721,-0.721,-0.721,-0.721,-0.721,-0.721,-0.721,-0.721,-0.721,-0.721,-0.721,-0.721,-0.721,-0.721,-0.721,-0.721,-0.721,-0.721,-0.721,-0.721,0.0,0.0,0.0,0.0,0.0,0.0,0.0,0.0,0.0,0.0,0.0,0.0,0.0,0.0,0.0,0.0,0.0,0.0,0.0,0.0,0.0,0.0,0.0,0.0,0.0,0.0,0.0,0.0,-0.6387,-0.6387,-0.6387,-0.6387,-0.6387,-0.6387,-0.6387,-0.6387,-0.6387,-0.6387,-0.6387,-0.6437,-0.7478,-0.7428,-0.6434,-0.7478,-0.7378,-0.6387,-0.6387,-0.7577,-0.9509,-0.9509,-0.9509,-0.9509,-0.9509,-0.9509,-0.9509,-0.9509,-0.9509,-0.9361,-0.8319,-0.7971,-0.7773,-0.6734,-0.6387,-0.6387,-0.6387,-0.647,-0.6622,-0.6624,-0.6714,-0.6806,-0.6812,-0.6812,-0.6812,-0.6812,-0.6812,-0.6812,-0.6812,-0.6812,-0.6812,-0.6804,-0.6902,-0.6986,-0.6986,-0.7136,-0.721,-0.721,-0.721,-0.721,-0.721,-0.721,-0.721,-0.721,-0.721,-0.721,-0.721,-0.721,-0.721,-0.721,-0.721,-0.721,-0.721,-0.721,-0.721,-0.721,-0.721,-0.721,-0.721,-0.721,-0.721,-0.721,-0.721,-0.721,-0.4485,0.0,0.0,0.0,0.0,0.0,0.0,0.0,0.0,0.0,0.0,0.0,0.0,0.0,0.0,0.0,0.0,0.0,0.0,0.0,0.0,0.0,0.0,0.0,0.0,0.0,0.0,0.0,-0.6387,-0.6387,-0.6387,-0.6387,-0.6387,-0.6387,-0.6387,-0.6387,-0.6387,-0.6387,-0.6387,-0.6387,-0.6684,-0.6684,-0.6387,-0.6684,-0.6684,-0.6387,-0.6387,-0.6734,-0.7279,-0.7279,-0.7279,-0.7279,-0.7279,-0.7279,-0.7279,-0.7279,-0.7279,-0.7229,-0.6933,-0.6833,-0.6783,-0.6484,-0.6387,-0.6387,-0.6387,-0.647,-0.6638,-0.6725,-0.6839,-0.6953,-0.7089,-0.7111,-0.7111,-0.7111,-0.7111,-0.7111,-0.7111,-0.7111,-0.7008,-0.6836,-0.6902,-0.6986,-0.6986,-0.7136,-0.721,-0.721,-0.721,-0.721,-0.721,-0.721,-0.721,-0.721,-0.721,-0.721,-0.721,-0.721,-0.721,-0.721,-0.721,-0.721,-0.721,-0.721,-0.721,-0.721,-0.721,-0.721,-0.721,-0.721,-0.721,-0.721,-0.721,-0.721,-0.4641,0.0,0.0,0.0,0.0,0.0,0.0,-0.5154,0.0,0.0,0.0,0.0,0.0,0.0,0.0,0.0,0.0,0.0,0.0,0.0,0.0,0.0,0.0,0.0,0.0,-0.6387,-0.6387,-0.6387,-0.6387,-0.6387,-0.6387,-0.6387,-0.6387,-0.6387,-0.6387,-0.6387,-0.6387,-0.6387,-0.6387,-0.6387,-0.6387,-0.6387,-0.6387,-0.6387,-0.6387,-0.6387,-0.6387,-0.6387,-0.6387,-0.6387,-0.6387,-0.6387,-0.6387,-0.6387,-0.6387,-0.6387,-0.6387,-0.6387,-0.6387,-0.6387,-0.6387,-0.6387,-0.6387,-0.6395,-0.6446,-0.6597,-0.6719,-0.6844,-0.6964,-0.7125,-0.7193,-0.721,-0.721,-0.721,-0.721,-0.721,-0.721,-0.721,-0.7169,-0.6975,-0.7008,-0.7056,-0.7056,-0.7166,-0.721,-0.721,-0.721,-0.721,-0.721,-0.721,-0.721,-0.721,-0.721,-0.721,-0.721,-0.721,-0.721,-0.721,-0.721,-0.721,-0.721,-0.721,-0.721,-0.721,-0.721,-0.721,-0.721,-0.721,-0.721,-0.721,-0.721,-0.721,0.0,0.0,0.0,0.0,0.0,0.0,-0.5196,-0.5045,0.0,0.0,0.0,0.0,0.0,0.0,0.0,0.0,0.0,0.0,0.0,0.0,0.0,0.0,0.0,0.0,-0.6387,-0.6387,-0.6387,-0.6387,-0.6387,-0.6387,-0.6387,-0.6387,-0.6387,-0.6387,-0.6387,-0.6387,-0.6387,-0.6387,-0.6387,-0.6387,-0.6387,-0.6387,-0.6387,-0.6387,-0.6387,-0.6387,-0.6387,-0.6387,-0.6387,-0.6387,-0.6387,-0.6387,-0.6387,-0.6387,-0.6387,-0.6387,-0.6387,-0.6387,-0.6387,-0.6387,-0.6387,-0.6387,-0.6387,-0.6408,-0.6584,-0.6706,-0.6831,-0.6967,-0.713,-0.721,-0.721,-0.721,-0.721,-0.721,-0.721,-0.721,-0.721,-0.721,-0.721,-0.721,-0.721,-0.721,-0.721,-0.721,-0.721,-0.721,-0.721,-0.721,-0.721,-0.721,-0.721,-0.721,-0.721,-0.721,-0.721,-0.721,-0.721,-0.721,-0.721,-0.721,-0.721,-0.721,-0.721,-0.721,-0.721,-0.721,-0.721,-0.721,-0.721,-0.721,-0.721,-0.721,0.0,0.0,0.0,0.0,0.0,0.0,0.0,-0.4743,-0.4822,0.0,0.0,0.0,0.0,0.0,0.0,0.0,0.0,0.0,0.0,0.0,0.0,0.0,0.0,0.0,-0.6387,-0.6387,-0.6387,-0.6387,-0.6387,-0.6387,-0.6387,-0.6387,-0.6387,-0.6387,-0.6387,-0.6387,-0.6387,-0.6387,-0.6387,-0.6387,-0.6387,-0.6387,-0.6387,-0.6387,-0.6387,-0.6387,-0.6387,-0.6387,-0.6387,-0.6387,-0.6387,-0.6387,-0.6387,-0.6387,-0.6387,-0.6387,-0.6387,-0.6387,-0.6387,-0.6387,-0.6387,-0.6387,-0.6387,-0.6408,-0.6584,-0.6706,-0.6847,-0.7117,-0.7193,-0.721,-0.721,-0.721,-0.721,-0.721,-0.721,-0.721,-0.721,-0.721,-0.721,-0.721,-0.721,-0.721,-0.721,-0.721,-0.721,-0.721,-0.721,-0.721,-0.721,-0.721,-0.721,-0.721,-0.721,-0.721,-0.721,-0.721,-0.721,-0.721,-0.721,-0.721,-0.721,-0.721,-0.721,-0.721,-0.721,-0.721,-0.721,-0.721,-0.721,-0.721,-0.721,-0.721,0.0,0.0,0.0,-0.5392,0.0,0.0,0.0,0.0,-0.4722,-0.4961,0.0,0.0,0.0,0.0,0.0,0.0,0.0,0.0,0.0,0.0,0.0,0.0,0.0,0.0,-0.626,-0.6317,-0.6377,-0.6381,-0.6387,-0.6387,-0.6387,-0.6387,-0.6387,-0.6387,-0.6387,-0.6387,-0.6387,-0.6387,-0.6387,-0.6387,-0.6387,-0.6387,-0.6387,-0.6387,-0.6387,-0.6387,-0.6387,-0.6387,-0.6387,-0.6387,-0.6387,-0.6387,-0.6387,-0.6387,-0.6387,-0.6387,-0.6387,-0.6387,-0.6387,-0.6387,-0.6395,-0.6457,-0.6476,-0.6562,-0.6747,-0.6883,-0.7002,-0.7177,-0.721,-0.721,-0.721,-0.721,-0.721,-0.721,-0.721,-0.721,-0.721,-0.721,-0.721,-0.721,-0.721,-0.721,-0.721,-0.721,-0.721,-0.721,-0.721,-0.721,-0.721,-0.721,-0.721,-0.721,-0.721,-0.721,-0.721,-0.721,-0.721,-0.721,-0.721,-0.721,-0.721,-0.721,-0.721,-0.721,-0.721,-0.721,-0.721,-0.721,-0.721,-0.721,-0.721,-0.721,0.0,0.0,0.0,0.0,0.0,-0.5321,0.0,0.0,0.0,-0.5057,0.0,0.0,0.0,0.0,0.0,0.0,0.0,0.0,0.0,0.0,0.0,0.0,0.0,0.0,0.0,-0.6121,-0.6233,-0.6391,-0.6311,-0.6314,-0.6381,-0.6387,-0.6387,-0.6387,-0.6387,-0.6387,-0.6387,-0.6387,-0.6387,-0.6387,-0.6387,-0.6387,-0.6387,-0.6387,-0.6387,-0.6387,-0.6387,-0.6387,-0.6387,-0.6387,-0.6387,-0.6387,-0.6387,-0.6387,-0.6387,-0.6387,-0.6387,-0.6387,-0.6387,-0.64,-0.6438,-0.6586,-0.6651,-0.6725,-0.6923,-0.7119,-0.721,-0.721,-0.721,-0.721,-0.721,-0.721,-0.721,-0.721,-0.721,-0.721,-0.721,-0.721,-0.721,-0.721,-0.721,-0.721,-0.721,-0.721,-0.721,-0.721,-0.721,-0.721,-0.721,-0.721,-0.721,-0.721,-0.721,-0.721,-0.721,-0.721,-0.721,-0.721,-0.721,-0.721,-0.721,-0.721,-0.721,-0.721,-0.721,-0.721,-0.721,-0.721,-0.721,-0.721,-0.721,-0.721,0.0,0.0,0.0,0.0,-0.6118,0.0,0.0,0.0,-0.4998,-0.4873,0.0,0.0,0.0,0.0,0.0,0.0,0.0,0.0,0.0,0.0,0.0,0.0,0.0,0.0,0.0,-0.5844,-0.5931,-0.6263,-0.6086,-0.6102,-0.6371,-0.6387,-0.6387,-0.6387,-0.6387,-0.6387,-0.6387,-0.6387,-0.6387,-0.6387,-0.6387,-0.6387,-0.6387,-0.6387,-0.6387,-0.6387,-0.6387,-0.6387,-0.6387,-0.6387,-0.6387,-0.6387,-0.6387,-0.6387,-0.6387,-0.6387,-0.6387,-0.6387,-0.6387,-0.6457,-0.66,-0.6616,-0.6766,-0.6948,-0.6978,-0.7119,-0.721,-0.721,-0.721,-0.721,-0.721,-0.721,-0.721,-0.721,-0.721,-0.721,-0.721,-0.721,-0.721,-0.721,-0.721,-0.721,-0.721,-0.721,-0.721,-0.721,-0.721,-0.721,-0.721,-0.721,-0.721,-0.721,-0.721,-0.721,-0.721,-0.721,-0.721,-0.721,-0.721,-0.721,-0.721,-0.721,-0.721,-0.721,-0.721,-0.721,-0.721,-0.721,-0.721,-0.721,-0.721,-0.721,0.0,0.0,0.0,0.0,0.0,0.0,0.0,0.0,-0.4974,0.0,0.0,0.0,0.0,0.0,0.0,0.0,0.0,0.0,0.0,0.0,0.0,0.0,0.0,0.0,0.0,0.0,0.0,0.0,-0.5961,-0.6032,-0.6323,-0.6401,-0.6387,-0.6387,-0.6387,-0.6387,-0.6387,-0.6387,-0.6387,-0.6387,-0.6387,-0.6387,-0.6387,-0.6387,-0.6387,-0.6387,-0.6387,-0.6387,-0.6387,-0.6387,-0.6387,-0.6387,-0.6387,-0.6387,-0.6387,-0.6387,-0.6387,-0.6395,-0.6468,-0.6575,-0.6643,-0.6785,-0.6945,-0.7139,-0.7139,-0.7172,-0.721,-0.721,-0.721,-0.721,-0.721,-0.721,-0.721,-0.721,-0.721,-0.721,-0.721,-0.721,-0.721,-0.721,-0.721,-0.721,-0.721,-0.721,-0.721,-0.721,-0.721,-0.721,-0.721,-0.721,-0.721,-0.721,-0.721,-0.721,-0.721,-0.721,-0.721,-0.721,-0.721,-0.721,-0.721,-0.721,-0.721,-0.721,-0.721,-0.721,-0.721,-0.721,-0.721,-0.721,-0.721,-0.721,-0.7241,0.0,0.0,0.0,0.0,0.0,0.0,0.0,0.0,0.0,0.0,0.0,0.0,0.0,0.0,0.0,0.0,0.0,0.0,0.0,0.0,0.0,0.0,0.0,0.0,0.0,0.0,0.0,0.0,-0.5871,-0.6298,-0.6344,-0.6404,-0.6384,-0.6387,-0.6387,-0.6387,-0.6387,-0.6387,-0.6387,-0.6387,-0.6387,-0.6387,-0.6387,-0.6387,-0.6387,-0.6387,-0.6387,-0.6387,-0.6387,-0.6387,-0.6387,-0.6387,-0.6387,-0.6387,-0.6387,-0.6387,-0.6403,-0.6578,-0.6662,-0.6755,-0.6964,-0.7141,-0.721,-0.721,-0.721,-0.721,-0.721,-0.721,-0.721,-0.721,-0.721,-0.721,-0.721,-0.721,-0.721,-0.721,-0.721,-0.721,-0.721,-0.721,-0.721,-0.721,-0.721,-0.721,-0.721,-0.721,-0.721,-0.721,-0.721,-0.721,-0.721,-0.721,-0.721,-0.721,-0.721,-0.721,-0.721,-0.721,-0.721,-0.721,-0.721,-0.721,-0.721,-0.721,-0.721,-0.721,-0.721,-0.721,-0.721,-0.721,-0.721,0.0,0.0,0.0,-0.7493,0.0,0.0,0.0,0.0,-0.58,0.0,0.0,0.0,0.0,0.0,0.0,-0.472,0.0,0.0,0.0,0.0,0.0,0.0,0.0,0.0,0.0,0.0,0.0,0.0,0.0,0.0,-0.6279,-0.632,-0.6325,-0.6384,-0.6387,-0.6387,-0.6387,-0.6387,-0.6387,-0.6387,-0.6387,-0.6387,-0.6387,-0.6387,-0.6387,-0.6387,-0.6387,-0.6387,-0.6387,-0.6387,-0.6387,-0.6387,-0.6387,-0.6387,-0.6387,-0.6387,-0.6387,-0.6403,-0.6578,-0.6774,-0.6991,-0.7166,-0.7207,-0.721,-0.721,-0.721,-0.721,-0.721,-0.721,-0.721,-0.721,-0.721,-0.721,-0.721,-0.721,-0.721,-0.721,-0.721,-0.721,-0.721,-0.721,-0.721,-0.721,-0.721,-0.721,-0.721,-0.721,-0.721,-0.721,-0.721,-0.721,-0.721,-0.721,-0.721,-0.721,-0.721,-0.721,-0.721,-0.721,-0.721,-0.721,-0.721,-0.721,-0.721,-0.721,-0.721,-0.721,-0.721,-0.721,-0.721,-0.721,-0.721,0.0,0.0,-0.8376,-0.8986,0.0,0.0,0.0,0.0,0.0,0.0,0.0,0.0,0.0,0.0,-0.5096,-0.4797,-0.4783,0.0,0.0,0.0,0.0,0.0,0.0,0.0,0.0,0.0,0.0,0.0,-0.533,0.0,0.0,-0.6181,-0.6333,-0.6325,-0.6396,-0.6387,-0.6387,-0.6387,-0.6387,-0.6387,-0.6387,-0.6387,-0.6387,-0.6387,-0.6387,-0.6387,-0.6387,-0.6387,-0.6387,-0.6387,-0.6387,-0.6387,-0.6387,-0.6387,-0.6387,-0.6387,-0.6438,-0.6586,-0.679,-0.6967,-0.7158,-0.7196,-0.721,-0.721,-0.721,-0.721,-0.721,-0.721,-0.721,-0.721,-0.721,-0.721,-0.721,-0.721,-0.721,-0.721,-0.721,-0.721,-0.721,-0.721,-0.721,-0.721,-0.721,-0.721,-0.721,-0.721,-0.721,-0.721,-0.721,-0.721,-0.721,-0.721,-0.721,-0.721,-0.721,-0.721,-0.721,-0.721,-0.721,-0.721,-0.721,-0.721,-0.721,-0.721,-0.721,-0.721,-0.721,-0.721,-0.721,-0.721,-0.721,-0.721,-1.0429,-0.9736,0.0,-0.9298,-0.8114,0.0,-0.7222,0.0,0.0,0.0,0.0,0.0,0.0,0.0,0.0,-0.5081,-0.4883,0.0,0.0,0.0,0.0,0.0,0.0,0.0,0.0,0.0,-0.4942,-0.523,0.0,0.0,0.0,0.0,-0.6273,-0.6317,-0.6377,-0.6387,-0.6387,-0.6387,-0.6387,-0.6387,-0.6387,-0.6387,-0.6387,-0.6387,-0.6387,-0.6387,-0.6387,-0.6387,-0.6387,-0.6387,-0.6387,-0.6387,-0.6387,-0.6414,-0.6452,-0.6452,-0.6605,-0.6774,-0.6931,-0.7114,-0.721,-0.721,-0.721,-0.721,-0.721,-0.721,-0.721,-0.721,-0.721,-0.721,-0.721,-0.721,-0.721,-0.721,-0.721,-0.721,-0.721,-0.721,-0.721,-0.721,-0.721,-0.721,-0.721,-0.721,-0.721,-0.721,-0.721,-0.721,-0.721,-0.721,-0.721,-0.721,-0.721,-0.721,-0.721,-0.721,-0.721,-0.721,-0.721,-0.7229,-0.7217,-0.722,-0.722,-0.722,-0.722,-0.7198,-0.721,-0.7198,-0.722,-0.722,-0.7263,-0.7282]},{"header":{"parameterUnit":"m.s-1","parameterCategory":1,"la1":30.6,"la2":29.2853,"lo1":-89.7004,"lo2":-87.6739,"dy":0.0162,"dx":0.0183,"nx":112,"ny":82,"refTime":"2024-09-19T18:00:00:Z","depth":0,"parameterNumber":3,"parameterNumberName":"V-component_of_WINDS"},"data":[0.0,0.0,0.0,0.0,0.0,0.0,0.0,0.0,0.0,0.0,0.0,0.0,0.0,0.0,0.0,0.0,0.0,0.0,0.0,0.0,0.0,0.0,0.0,0.0,0.0,0.0,0.0,0.0,0.0,0.0,0.0,0.0,0.0,0.0,0.0,0.0,0.0,0.0,0.0,0.0,0.0,0.0,0.0,0.0,0.0,0.0,0.0,0.0,0.0,0.0,0.0,0.0,0.0,0.0,0.0,0.0,0.0,0.0,0.0,0.0,0.0,0.0,0.0,0.0,0.0,0.0,0.0,0.0,0.0,0.0,0.0,0.0,0.0,0.0,0.0,0.0,0.0,0.0,0.0,0.0,0.0,0.0,0.0,0.0,0.0,0.0,0.0,0.0,0.0,0.0,0.0,1.0364,1.0698,1.0881,1.0801,1.0931,1.0509,0.9357,0.0,0.0,0.0,0.0,0.0,0.0,0.0,0.0,0.0,0.0,0.0,0.0,0.0,0.0,0.0,0.0,0.0,0.0,0.0,0.0,0.0,0.0,0.0,0.0,0.0,0.0,0.0,0.0,0.0,0.0,0.0,0.0,0.0,0.0,0.0,0.0,0.0,0.0,0.0,0.0,0.0,0.0,0.0,0.0,0.0,0.0,0.0,0.0,0.0,0.0,0.0,0.0,0.0,0.0,0.0,0.0,0.0,0.0,0.0,0.0,0.0,0.0,0.0,0.0,0.0,0.0,0.0,0.0,0.0,0.0,0.0,0.0,0.0,0.0,0.0,0.0,0.0,0.0,0.0,0.0,0.0,0.0,0.0,0.0,0.0,0.0,0.0,0.0,0.0,0.0,0.0,0.0,0.0,0.0,0.0,0.0,0.0,0.0,0.0,0.0,0.0,0.0,0.0,0.0,0.9999,1.1623,1.2031,1.2058,1.172,1.1534,1.0919,0.978,0.0,0.0,0.0,0.0,0.0,0.0,0.0,0.0,0.0,0.0,0.0,0.0,0.0,0.0,0.0,0.0,0.0,0.0,0.0,0.0,0.0,0.0,0.0,0.0,0.0,0.0,0.0,0.0,0.0,0.0,0.0,0.0,0.0,0.0,0.0,0.0,0.0,0.0,0.0,0.0,0.0,0.0,0.0,0.0,0.0,0.0,0.0,0.0,0.0,0.0,0.0,0.0,0.0,0.0,0.0,0.0,0.0,0.0,0.0,0.0,0.0,0.0,0.0,0.0,0.0,0.0,0.0,0.0,0.0,0.0,0.0,0.0,0.0,0.0,0.0,0.0,0.0,0.0,0.0,0.0,0.0,0.0,0.0,0.0,0.0,0.0,0.0,0.0,0.0,0.0,0.0,0.0,0.0,0.0,0.0,0.0,0.0,0.0,0.0,0.0,0.0,0.0,0.0,1.0229,1.0625,1.1586,1.1781,1.1776,1.1597,1.1603,1.1182,1.0199,0.9684,0.0,0.0,0.0,0.0,0.0,0.0,0.0,0.0,0.0,0.0,0.0,0.0,0.0,0.0,0.0,0.0,0.0,0.0,0.0,0.0,0.0,0.0,0.0,0.0,0.0,0.0,0.0,0.0,0.0,0.0,0.0,0.0,0.0,0.0,0.0,0.0,0.0,0.0,0.0,0.0,0.0,0.0,0.0,0.0,0.0,0.0,0.0,0.0,0.0,0.0,0.0,0.0,0.0,0.0,0.0,0.0,0.0,0.0,0.0,0.0,0.0,0.0,0.0,0.0,0.0,0.0,0.0,0.0,0.0,0.0,0.0,0.0,0.0,0.0,0.0,0.0,0.0,0.0,0.0,0.0,0.0,0.0,0.0,0.0,0.0,0.0,0.0,0.0,0.0,0.0,0.0,0.0,0.0,0.0,0.0,0.0,0.0,0.0,0.0,0.0,0.0,0.0,1.141,1.1584,1.1758,1.1776,1.1735,1.1646,1.1714,1.143,1.0574,0.9964,0.0,0.0,0.0,0.0,0.0,0.0,0.0,0.0,0.0,0.0,0.0,0.0,0.0,0.0,0.0,0.0,0.0,0.0,0.0,0.0,0.0,0.0,0.0,0.0,0.0,0.0,0.0,0.0,0.0,0.0,0.0,0.0,0.0,0.0,0.0,0.0,0.0,0.0,0.0,0.0,0.0,0.0,0.0,0.0,0.0,0.0,0.0,0.0,0.0,0.0,0.0,0.0,0.0,0.0,0.0,0.0,0.0,0.0,0.0,0.0,0.0,0.0,0.0,0.0,0.0,0.0,0.0,0.0,0.0,0.0,0.0,0.0,0.0,0.0,0.0,0.0,0.0,0.0,0.0,0.0,0.0,0.0,0.0,0.0,0.0,0.0,0.0,0.0,0.0,0.0,0.0,0.0,0.0,0.0,0.0,0.0,0.0,0.0,0.0,0.0,0.0,0.0,1.2059,1.287,1.3132,1.315,1.3023,1.2632,1.2266,1.1734,1.0917,1.0136,0.0,0.0,0.0,0.0,0.0,0.0,0.0,0.0,0.0,0.0,0.0,0.0,0.0,0.0,0.0,0.0,0.0,0.0,0.0,0.0,0.0,0.0,0.0,0.0,0.0,0.0,0.0,0.0,0.0,0.0,0.0,0.0,0.0,0.0,0.0,0.0,0.0,0.0,0.0,0.0,0.0,0.0,0.0,0.0,0.0,0.0,0.0,0.0,0.0,0.0,0.0,0.0,0.0,0.0,0.0,0.0,0.0,0.0,0.0,0.0,0.0,0.0,0.0,0.0,0.0,0.0,0.0,0.0,0.0,0.0,0.0,0.0,0.0,0.0,0.0,0.0,0.0,0.0,0.0,0.0,0.0,0.0,0.0,0.0,0.0,0.0,0.0,0.0,0.0,0.0,0.0,0.0,0.0,0.0,0.0,0.0,0.0,0.0,0.0,0.0,0.0,0.0,1.1794,1.2416,0.0,1.2714,1.2649,1.2566,1.2367,1.2007,1.1486,0.0,0.0,0.0,0.0,0.0,0.0,0.0,0.0,0.0,0.0,0.0,0.0,0.0,0.0,0.0,0.0,0.0,0.0,0.0,0.0,0.0,0.0,0.0,0.0,0.0,0.0,0.0,0.0,0.0,0.0,0.0,0.0,0.0,0.0,0.0,0.0,0.0,0.0,0.0,0.0,0.0,0.0,0.0,0.0,0.0,0.0,0.0,0.0,0.0,0.0,0.0,0.0,0.0,0.0,0.0,0.0,0.0,0.0,0.0,0.0,0.0,0.0,0.0,0.0,0.0,0.0,0.0,0.0,0.0,0.0,0.0,0.0,0.0,0.0,0.0,0.0,0.0,0.0,0.0,0.0,0.0,0.0,0.0,0.0,0.0,0.0,0.0,0.0,0.0,0.0,0.0,0.0,0.0,0.0,0.0,0.0,0.0,0.0,0.0,0.0,0.0,0.0,1.147,1.2152,1.2647,0.0,1.2632,1.2559,1.2495,1.2152,1.1799,1.1431,0.0,0.0,0.0,0.0,0.0,0.0,0.0,0.0,0.0,0.0,0.0,0.0,0.0,0.0,0.0,0.0,0.0,0.0,0.0,0.0,0.0,0.0,0.0,0.0,0.0,0.0,0.0,0.0,0.0,0.0,0.0,0.0,0.0,0.0,0.0,0.0,0.0,0.0,0.0,0.0,0.0,0.0,0.0,0.0,0.0,0.0,0.0,0.0,0.0,0.0,0.0,0.0,0.0,0.0,0.0,0.0,0.0,0.0,0.0,0.0,0.0,0.0,0.0,0.0,0.0,0.0,0.0,0.0,0.0,0.0,0.0,0.0,0.0,0.0,0.0,0.0,0.0,0.0,0.0,0.0,0.0,0.0,0.0,0.0,0.0,0.0,0.0,0.0,0.0,0.0,0.0,0.0,0.0,0.0,0.0,0.0,0.0,0.0,0.0,0.0,0.0,0.0,1.2126,1.3336,1.3954,1.329,1.3208,1.3035,1.2554,1.1717,1.1053,0.0,0.0,0.0,0.0,0.0,0.0,0.0,0.0,0.0,0.0,0.0,0.0,0.0,0.0,0.0,0.0,0.0,0.0,0.0,0.0,0.0,0.0,0.0,0.0,0.0,0.0,0.0,0.0,0.0,0.0,0.0,0.0,0.0,0.0,0.0,0.0,0.0,0.0,0.0,0.0,0.0,0.0,0.0,0.0,0.0,0.0,0.0,0.0,0.0,0.0,0.0,0.0,0.0,0.0,0.0,0.0,0.0,0.0,0.0,0.0,0.0,0.0,0.0,0.0,0.0,0.0,0.0,0.0,0.0,0.0,0.0,0.0,0.0,0.0,0.0,0.0,0.0,0.0,0.0,0.0,0.0,0.0,0.0,0.0,0.0,0.0,0.0,0.0,0.0,0.0,0.0,0.0,0.0,0.0,0.0,0.0,0.0,0.0,0.0,0.0,0.0,0.0,0.0,1.2625,1.3594,1.4177,1.399,1.3931,1.386,1.3789,1.3153,1.2611,1.2236,0.0,0.0,0.0,0.0,0.0,0.0,0.0,0.0,0.0,0.0,0.0,0.0,0.0,0.0,0.0,0.0,0.0,0.0,0.0,0.0,0.0,0.0,0.0,0.0,0.0,0.0,0.0,0.0,0.0,0.0,0.0,0.0,0.0,0.0,0.0,0.0,0.0,0.0,0.0,0.0,0.0,0.0,0.0,0.0,0.0,0.0,0.0,0.0,0.0,0.0,0.0,0.0,0.0,0.0,0.0,0.0,0.0,0.0,0.0,0.0,0.0,0.0,0.0,0.0,0.0,0.0,0.0,0.0,0.0,0.0,0.0,0.0,0.0,0.0,0.0,0.0,0.0,0.0,0.0,0.0,0.0,0.0,0.0,0.0,0.0,0.0,0.0,0.0,0.0,0.0,0.0,0.0,0.0,0.0,0.0,0.0,0.0,0.0,0.0,0.0,0.0,0.0,1.3176,1.4192,1.4835,1.4628,1.457,1.4501,1.4317,1.3824,1.3282,1.2729,0.0,0.0,0.0,0.0,0.0,0.0,0.0,0.0,0.0,0.0,0.0,0.0,0.0,0.0,0.0,0.0,0.0,0.0,0.0,0.0,0.0,0.0,0.0,0.0,0.0,0.0,0.0,0.0,0.0,0.0,0.0,0.0,0.0,0.0,0.0,0.0,0.0,0.0,0.0,0.0,0.0,0.0,0.0,0.0,0.0,0.0,0.0,0.0,0.0,0.0,0.0,0.0,0.0,0.0,0.0,0.0,0.0,0.0,0.0,0.0,0.0,0.0,0.0,0.0,0.0,0.0,0.0,0.0,0.0,0.0,0.0,0.0,0.0,0.0,0.0,0.0,0.0,0.0,0.0,0.0,0.0,0.0,0.0,0.0,0.0,0.0,0.0,0.0,0.0,0.0,0.0,0.0,0.0,0.0,0.0,0.0,0.0,0.0,0.0,0.0,0.0,0.0,1.3752,1.495,1.5659,1.5221,1.5176,1.4983,1.4513,1.4094,1.3505,1.2732,0.0,0.0,0.0,0.0,0.0,0.0,0.0,0.0,0.0,0.0,0.0,0.0,0.0,0.0,0.0,0.0,0.0,0.0,0.0,0.0,0.0,0.0,0.0,0.0,0.0,0.0,0.0,0.0,0.0,0.0,0.0,0.0,0.0,0.0,0.0,0.0,0.0,0.0,0.0,0.0,0.0,0.0,0.0,0.0,0.0,0.0,0.0,0.0,0.0,0.0,0.0,0.0,0.0,0.0,0.0,0.0,0.0,0.0,0.0,0.0,1.6732,0.0,0.0,0.0,0.0,0.0,0.0,0.0,0.0,0.0,0.0,0.0,0.0,0.0,0.0,0.0,0.0,0.0,0.0,0.0,0.0,0.0,0.0,0.0,0.0,0.0,0.0,0.0,0.0,0.0,0.0,0.0,0.0,0.0,0.0,0.0,0.0,0.0,0.0,0.0,0.0,0.0,1.413,1.5226,1.5935,1.5812,1.5714,1.5691,1.578,1.5224,1.4851,1.478,0.0,0.0,0.0,0.0,0.0,0.0,0.0,0.0,0.0,0.0,0.0,0.0,0.0,0.0,0.0,0.0,0.0,0.0,0.0,0.0,0.0,0.0,0.0,0.0,0.0,0.0,0.0,0.0,0.0,0.0,0.0,0.0,0.0,0.0,0.0,0.0,0.0,0.0,0.0,0.0,0.0,0.0,0.0,0.0,0.0,0.0,0.0,0.0,0.0,0.0,0.0,0.0,0.0,0.0,0.0,0.0,0.0,0.0,0.0,0.0,0.0,1.8004,0.0,0.0,0.0,0.0,0.0,0.0,0.0,0.0,0.0,0.0,0.0,0.0,0.0,0.0,0.0,0.0,0.0,0.0,0.0,0.0,0.0,0.0,0.0,0.0,0.0,0.0,0.0,0.0,0.0,0.0,0.0,0.0,0.0,0.0,0.0,0.0,0.0,0.0,0.0,0.0,1.4423,1.5407,1.61,1.61,1.6035,1.6035,1.62,1.5887,1.5617,1.5463,1.4641,0.0,0.0,0.0,0.0,0.0,0.0,0.0,0.0,0.0,0.0,0.0,0.0,0.0,0.0,0.0,0.0,0.0,0.0,0.0,0.0,0.0,0.0,0.0,0.0,0.0,0.0,0.0,0.0,0.0,0.0,0.0,0.0,0.0,0.0,0.0,0.0,0.0,0.0,0.0,0.0,0.0,0.0,0.0,0.0,0.0,0.0,0.0,0.0,0.0,0.0,0.0,0.0,0.0,2.4888,2.5162,2.5504,2.5504,2.5504,2.531,2.1891,2.0732,2.1154,0.0,0.0,0.0,0.0,0.0,0.0,0.0,0.0,0.0,0.0,0.0,0.0,0.0,0.0,0.0,0.0,0.0,0.0,0.0,0.0,0.0,0.0,0.0,0.0,0.0,2.0524,1.9824,0.0,0.0,0.0,0.0,0.0,0.0,0.0,0.0,0.0,0.0,0.0,0.0,1.4733,1.5606,1.6244,1.6244,1.6222,1.6222,1.6253,1.6231,1.6111,1.5819,1.5666,1.5232,0.0,0.0,0.0,0.0,0.0,0.0,0.0,0.0,0.0,0.0,0.0,0.0,0.0,0.0,0.0,0.0,0.0,0.0,0.0,0.0,0.0,0.0,0.0,0.0,0.0,0.0,0.0,0.0,0.0,0.0,0.0,0.0,2.0316,2.0604,0.0,0.0,0.0,0.0,0.0,0.0,0.0,0.0,0.0,0.0,0.0,0.0,0.0,2.4285,2.4723,2.5883,2.621,2.5789,2.6797,2.7053,2.6688,2.6688,2.6688,2.666,2.6237,0.0,2.3715,2.2522,0.0,0.0,0.0,0.0,0.0,0.0,0.0,0.0,0.0,0.0,0.0,0.0,0.0,0.0,0.0,0.0,0.0,0.0,0.0,0.0,0.0,0.0,2.2922,2.2449,2.2269,2.1956,0.0,1.9359,1.7658,1.6653,1.6292,0.0,0.0,0.0,0.0,0.0,0.0,0.0,1.5237,1.5934,1.6383,1.6383,1.6275,1.6275,1.6457,1.6414,1.6561,1.6949,1.6543,1.6369,1.6583,1.5644,0.0,0.0,0.0,0.0,0.0,0.0,0.0,0.0,0.0,0.0,0.0,0.0,0.0,0.0,0.0,0.0,0.0,0.0,0.0,0.0,0.0,0.0,0.0,0.0,0.0,0.0,0.0,0.0,0.0,2.0971,2.2135,2.203,2.2517,2.239,0.0,0.0,0.0,0.0,0.0,0.0,0.0,0.0,0.0,2.4847,2.6133,2.6961,2.7324,2.8488,2.9008,2.8884,2.9368,2.9497,2.9254,2.9254,2.9254,2.9254,2.9329,2.867,2.7381,2.5128,2.381,2.3118,0.0,0.0,0.0,0.0,2.2368,2.2429,2.2856,2.2871,0.0,2.1486,0.0,0.0,0.0,0.0,0.0,0.0,0.0,0.0,0.0,0.0,2.3451,2.3246,2.3165,2.2972,2.2483,2.1772,2.079,0.0,1.8653,1.7799,1.6186,0.0,0.0,0.0,0.0,0.0,1.6264,1.682,1.7206,1.7206,1.7131,1.7131,1.7214,1.7276,1.74,1.7625,1.745,1.744,1.7603,1.684,1.6301,0.0,0.0,0.0,0.0,0.0,0.0,0.0,0.0,0.0,0.0,0.0,0.0,0.0,0.0,0.0,0.0,0.0,0.0,0.0,0.0,0.0,0.0,0.0,0.0,0.0,0.0,0.0,0.0,2.301,2.3968,2.3579,2.4491,2.4543,0.0,0.0,0.0,0.0,0.0,0.0,2.6047,2.6986,2.7397,2.7056,2.8512,2.9392,2.9532,3.0425,3.0955,3.1117,3.1117,3.1117,3.1117,3.1117,3.1117,3.1117,3.1146,3.088,3.0202,2.7524,2.6056,2.5394,2.4201,2.3688,2.3635,2.3992,2.4321,2.4674,2.5256,2.5458,2.5235,2.397,0.0,2.2986,2.1312,0.0,0.0,0.0,0.0,2.2185,2.3256,2.3516,2.3538,2.3588,2.3595,2.3508,2.3157,2.3297,2.304,0.0,2.0637,1.9588,1.7645,0.0,0.0,0.0,0.0,1.712,1.7252,1.7622,1.7888,1.7888,1.7888,1.7888,1.7888,1.7968,1.8074,1.8206,1.8238,1.8336,1.8433,1.804,1.7767,1.7612,0.0,0.0,0.0,0.0,0.0,0.0,0.0,0.0,0.0,0.0,0.0,0.0,0.0,0.0,0.0,0.0,0.0,0.0,0.0,0.0,0.0,0.0,0.0,0.0,0.0,0.0,0.0,0.0,0.0,2.5358,2.6885,0.0,0.0,0.0,0.0,2.6194,2.6745,2.7384,2.8033,2.8655,2.9276,2.9852,3.0601,3.0999,3.0999,3.1058,3.1087,3.1117,3.1117,3.1117,3.1117,3.1117,3.1117,3.1117,3.1234,3.1263,3.1129,2.9554,2.8569,2.79,2.6537,2.6046,2.5968,2.5488,2.5328,2.5367,2.5529,2.5591,2.5666,2.6213,2.5959,2.5307,2.4575,2.3902,0.0,0.0,2.3483,2.3498,2.358,2.3595,2.361,2.3595,2.3595,2.3595,2.3573,2.3523,2.3172,0.0,2.1708,2.1048,1.9273,0.0,1.8001,1.7283,1.7241,1.7472,1.7981,1.8058,1.8086,1.8086,1.8086,1.8086,1.8086,1.8086,1.8297,1.8745,1.8765,1.8936,1.9321,1.931,1.902,1.8452,1.7731,0.0,0.0,0.0,0.0,0.0,0.0,0.0,0.0,0.0,0.0,0.0,0.0,0.0,0.0,0.0,0.0,0.0,0.0,0.0,0.0,0.0,0.0,0.0,0.0,0.0,0.0,0.0,0.0,2.6653,2.8002,0.0,2.6686,2.7402,2.8073,2.8292,2.894,2.9595,3.0165,3.0404,3.0761,3.1324,3.1544,3.1737,3.1871,3.1871,3.1708,3.1366,3.1366,3.1366,3.1366,3.1366,3.1366,3.1366,3.1409,3.1438,3.1334,3.0397,2.9652,2.9024,2.8088,2.7478,2.7086,2.6872,2.6822,2.6807,2.6871,2.6896,2.6915,2.7003,2.6642,2.613,2.618,2.5228,2.4288,2.5153,2.4252,2.3212,2.4022,2.3924,2.3595,2.3595,2.3595,2.3595,2.3595,2.3588,2.3443,2.3076,2.2856,2.2083,2.0085,2.0045,1.9704,1.7953,1.8243,1.8733,1.8912,1.894,1.894,1.894,1.894,1.894,1.894,1.903,1.9124,1.9288,1.9362,1.9439,1.9581,1.9581,1.9495,1.9289,1.8616,1.7617,0.0,0.0,0.0,0.0,0.0,0.0,0.0,0.0,0.0,0.0,0.0,0.0,0.0,0.0,0.0,0.0,0.0,0.0,0.0,0.0,0.0,0.0,0.0,0.0,0.0,0.0,2.846,2.7769,2.9119,2.955,2.8147,2.9067,2.9934,3.0398,3.0875,3.1375,3.1968,3.1809,3.1946,3.2494,3.2509,3.2554,3.272,3.2467,3.2184,3.1824,3.1615,3.1511,3.1511,3.1511,3.1511,3.1511,3.1511,3.1511,3.1466,3.1017,3.0505,2.9928,2.8963,2.8323,2.794,2.7861,2.7845,2.787,2.8042,2.8116,2.8088,2.7945,2.7657,2.7411,2.7705,2.6661,2.5561,2.6436,2.5164,2.3728,2.4575,2.4362,2.3943,2.3943,2.3831,2.3739,2.3739,2.3696,2.3674,2.3674,2.3523,2.2896,2.1265,2.1458,2.1222,1.9451,1.9763,2.0082,1.9875,1.9845,1.9757,1.9534,1.9505,1.9505,1.9505,1.9578,1.9632,1.9632,1.9687,1.9708,1.9708,1.9465,1.9465,1.9708,1.9433,1.8951,1.8207,0.0,0.0,0.0,0.0,0.0,0.0,0.0,0.0,0.0,0.0,0.0,0.0,0.0,0.0,0.0,0.0,0.0,0.0,0.0,0.0,0.0,0.0,0.0,2.7786,2.8834,2.9477,2.8835,3.0428,3.1074,2.9871,3.1387,3.2456,3.2444,3.2459,3.2752,3.337,3.2881,3.2871,3.353,3.3591,3.3576,3.3576,3.2946,3.2601,3.2556,3.1898,3.1583,3.1553,3.1553,3.1553,3.1553,3.1553,3.1553,3.1553,3.1538,3.1291,3.0706,2.921,2.8622,2.8595,2.8394,2.8312,2.8408,2.8935,2.9097,2.9097,2.912,2.918,2.9239,2.9262,2.8355,2.7315,2.7315,2.629,2.5202,2.5202,2.491,2.4623,2.4623,2.4328,2.4046,2.4046,2.3946,2.3846,2.3846,2.3739,2.3443,2.2808,2.2703,2.2478,2.1799,2.1695,0.0,2.0808,2.0718,2.0483,1.9813,1.9738,1.9723,1.9708,1.9708,1.9708,1.9708,1.9708,1.9708,1.9738,1.9124,1.9111,1.9807,2.0306,2.078,2.1228,0.0,0.0,0.0,0.0,0.0,0.0,0.0,0.0,0.0,0.0,0.0,0.0,0.0,0.0,0.0,0.0,0.0,0.0,0.0,0.0,0.0,0.0,3.1173,3.0552,3.1477,3.2165,3.2107,3.2456,3.2807,3.2986,3.3466,3.3795,3.384,3.3858,3.3747,3.3502,3.374,3.4178,3.485,3.5344,3.5609,3.5609,3.5422,3.48,3.3817,3.363,3.3244,3.2745,3.2826,3.2879,3.2864,3.2971,3.3024,3.2977,3.2515,3.221,3.1933,3.0171,2.9237,2.8864,2.8662,2.881,2.9111,2.9271,2.9332,2.9377,2.9711,2.9827,2.9935,3.0293,2.9206,2.7805,2.7805,2.6548,2.5202,2.5202,2.5125,2.5028,2.5028,2.495,2.4867,2.4867,2.4831,2.4812,2.4812,2.4792,2.4313,2.2938,2.2703,2.2478,2.1799,2.1695,0.0,2.1455,2.1425,2.1171,2.0498,2.0438,2.0247,1.9807,1.9762,1.9797,1.9902,1.9919,2.0146,2.0615,2.0757,2.1259,2.2216,2.1913,2.1808,0.0,0.0,0.0,0.0,0.0,0.0,0.0,0.0,0.0,0.0,0.0,0.0,0.0,0.0,0.0,0.0,0.0,0.0,0.0,0.0,0.0,0.0,3.2101,3.3193,3.3261,3.3315,3.3392,3.3473,3.3672,3.3996,3.4436,3.4995,3.5316,3.536,3.5364,3.531,3.515,3.5252,3.5623,3.631,3.6695,3.6927,3.6985,3.6711,3.6154,3.5327,3.5068,3.4531,3.3837,3.3915,3.3766,0.0,3.3572,3.3582,3.355,3.3175,3.3049,0.0,0.0,0.0,0.0,0.0,2.9585,3.0016,3.0016,3.0016,3.0059,3.0347,3.0435,3.0535,3.0855,2.9975,2.8818,2.8522,2.7389,2.6213,2.5901,2.5691,2.558,2.558,2.5449,2.5316,2.5316,2.5297,2.5275,2.5275,2.524,0.0,2.3929,2.3747,2.3608,2.3207,2.318,2.2994,2.2557,2.2507,2.2169,2.134,2.0986,2.0674,2.0322,2.005,0.0,0.0,0.0,2.091,2.1492,2.1827,0.0,0.0,0.0,0.0,0.0,0.0,0.0,0.0,2.3652,2.379,0.0,0.0,0.0,0.0,0.0,0.0,0.0,0.0,0.0,0.0,0.0,0.0,0.0,0.0,0.0,0.0,3.4218,3.5013,3.5752,3.4831,3.4062,3.3956,3.4584,3.5052,3.5132,3.6228,3.6913,3.6927,3.6943,3.7075,3.7427,0.0,0.0,0.0,0.0,3.7879,3.8023,3.7419,3.7093,3.7012,3.6411,3.5733,3.5019,3.4965,3.4552,3.394,3.386,3.3811,3.3811,3.3811,3.3887,3.3858,3.2361,3.13,3.0596,3.0359,3.0539,3.0932,3.0932,0.0,0.0,3.0932,3.0955,3.1015,3.1015,3.0605,2.9973,2.9314,2.8552,2.7756,2.7012,2.6553,2.6274,2.6191,2.589,2.5633,2.5633,2.5594,2.5556,2.5556,2.5446,2.5373,2.5373,2.5278,2.5202,2.5202,2.5202,2.4863,2.3896,2.3779,2.339,2.2355,0.0,0.0,2.1283,2.0732,2.0505,2.0817,2.1511,2.2115,2.2506,2.2835,2.3414,2.4281,2.5609,2.6782,2.7807,2.8687,2.9128,2.9059,2.6282,2.5721,0.0,0.0,0.0,0.0,0.0,0.0,0.0,0.0,0.0,0.0,0.0,0.0,0.0,0.0,0.0,3.3998,3.5458,3.6626,3.7364,3.7218,3.6815,3.61,3.6587,3.7195,3.7784,3.8069,3.824,3.8329,3.8308,3.8155,3.7741,3.8107,3.835,3.8497,3.9011,3.9302,3.9329,3.9206,3.884,3.8249,0.0,0.0,3.6945,3.6445,3.6143,3.6,3.5452,3.5207,3.5207,3.5207,3.5247,3.5078,3.3386,3.219,3.1385,3.1318,3.1237,3.1131,3.1131,3.1131,3.1131,3.1131,3.1151,3.1151,3.1151,3.0664,0.0,2.9939,2.9347,2.8586,2.779,2.7535,2.7314,2.6724,2.6522,2.647,2.647,2.6453,2.6453,2.6453,2.6436,2.6402,2.6402,2.5746,2.5202,2.5202,2.5202,2.5134,2.493,2.4879,2.4605,2.3848,2.3658,2.341,2.2975,2.2816,2.2805,2.291,2.3571,2.4117,2.4513,2.5102,2.5656,2.6168,2.7027,2.7585,2.7807,2.9193,2.9888,2.9871,2.8678,2.8587,0.0,0.0,0.0,0.0,0.0,0.0,0.0,0.0,0.0,0.0,0.0,2.9514,3.1413,0.0,3.402,3.5893,3.684,3.7483,3.7855,3.8227,3.8152,3.7361,3.7829,3.8411,3.8756,3.9127,3.9361,3.9404,3.9411,3.9252,3.8876,3.9135,3.9295,3.9295,3.9635,3.9833,3.991,3.991,3.9724,3.9371,3.9371,3.8967,3.8242,3.7945,3.7614,3.7226,3.6512,3.6197,3.6163,3.5752,3.56,3.5504,3.4645,3.3783,3.2952,3.2215,3.1873,3.1701,3.1326,3.119,3.119,3.119,3.119,3.119,3.119,3.0937,3.0581,3.019,2.9837,2.9364,2.8602,2.8399,2.8213,2.7435,2.7249,2.7165,2.6776,2.6691,2.6691,2.6691,2.6691,2.6691,2.6691,2.628,2.5946,2.5946,2.5946,2.5873,2.5672,2.5654,2.5433,2.4908,2.4553,2.4234,2.3966,2.3797,2.3867,2.4279,2.459,2.509,2.5866,2.6028,2.628,2.6691,2.7824,2.8399,2.8399,2.9922,3.0649,3.0632,3.026,3.0294,0.0,0.0,0.0,0.0,0.0,0.0,0.0,0.0,2.8792,2.9743,3.0503,3.1752,3.4295,3.4866,3.5639,3.777,3.8125,3.8159,3.8311,3.8836,3.8937,3.821,3.8751,3.9208,3.9208,3.9757,4.0096,4.0096,4.0096,4.0062,3.9935,3.9952,3.9952,3.9952,3.9952,3.9986,4.0096,4.0096,4.0096,4.0096,4.0096,3.9791,3.9191,3.9056,3.8667,3.8075,3.7161,3.6795,3.6745,3.5943,3.56,3.56,3.56,3.525,3.4539,3.3224,3.2649,3.2412,3.1684,3.141,3.1396,3.1241,3.119,3.119,3.119,3.119,3.1072,3.048,3.0311,3.0142,2.9416,2.9213,2.9008,2.8213,2.8027,2.7824,2.708,2.6911,2.6911,2.6911,2.6793,2.6742,2.6894,2.6793,2.6691,2.6691,2.6691,2.6573,2.6263,2.621,2.6087,2.5762,2.5239,2.4929,2.4929,2.4679,2.478,2.5363,2.5362,2.5731,2.6674,2.6401,2.6384,2.6691,2.8062,2.884,2.9029,3.0366,3.1094,3.1249,3.1249,3.123,2.6767,2.6254,2.6068,2.7367,2.7332,2.7827,0.0,0.0,3.1498,3.2949,3.3754,3.4487,3.5472,3.613,3.7066,3.8616,3.887,3.9106,3.9774,3.9926,3.9706,3.8954,3.9537,3.9977,3.9977,4.0045,4.0096,4.0096,4.0096,4.0096,4.0087,4.0087,4.0087,4.0087,4.0087,4.007,4.0096,4.0096,4.0096,4.0096,4.0096,4.0062,3.996,3.9317,3.8954,3.8802,3.7405,3.6795,3.6745,3.5943,3.56,3.56,3.56,3.5549,3.538,3.4556,3.3829,3.3169,3.2429,3.2175,3.2073,3.141,3.119,3.119,3.119,3.119,3.1173,3.1106,3.1072,3.0903,3.0176,2.9989,2.9786,2.9044,2.8874,2.8654,2.7841,2.7672,2.7672,2.7672,2.7165,2.6911,2.7553,2.7131,2.6691,2.6691,2.6691,2.6691,2.6641,2.6641,2.6624,2.6573,2.6505,2.6455,2.6455,2.6421,2.6421,2.6505,2.6505,2.6573,2.6691,2.6657,2.6657,2.6691,2.7503,2.8317,2.9103,2.99,3.0702,3.146,3.146,3.1383,2.7515,2.7842,0.0,0.0,2.9843,3.0663,3.2234,3.3057,3.3656,3.4305,3.4981,3.5808,3.6979,3.7433,3.8061,0.0,3.9829,3.9931,4.0087,3.979,3.9442,3.9063,3.9259,3.9469,3.9469,3.9859,4.0096,4.0096,4.0096,4.0096,4.0096,4.0096,4.0096,4.0096,4.0096,4.0096,4.0096,4.0096,4.0096,4.0096,4.0096,4.0096,4.0096,3.9791,3.9419,3.8954,3.8352,3.7614,3.6837,3.6491,3.6146,3.5844,3.5844,3.5844,3.572,3.4842,3.4303,3.3952,3.3287,3.2781,3.2374,3.2072,3.1627,3.1252,3.121,3.123,3.1271,3.1271,3.131,3.1298,3.0991,3.0923,3.0736,2.9989,2.9802,2.9598,2.8849,2.8661,2.8661,2.8661,2.8423,2.8304,2.8628,2.8423,2.8202,2.8202,2.7352,2.6691,2.6691,2.6691,2.6691,2.6691,2.6691,2.6691,2.6691,2.6758,2.6809,2.6809,2.6859,2.6875,2.6875,2.6875,2.7079,2.7504,2.8236,2.902,2.9858,3.0607,3.1136,3.1498,3.1498,3.146,2.8044,0.0,0.0,3.0602,3.192,3.3066,3.3276,3.4336,3.5278,3.5278,3.5703,3.6434,3.7729,3.7906,3.8355,3.9817,4.0129,4.0197,4.0204,3.9659,3.9139,3.8822,3.8991,3.9025,3.8781,3.9579,4.0096,4.0096,4.0096,4.0096,4.0096,4.0096,4.0096,4.0096,4.0096,4.0096,4.0096,4.0096,4.0096,4.0096,4.0096,4.0138,4.0163,4.0196,3.9925,3.9399,3.9212,3.853,3.7563,3.7376,3.6899,3.6305,3.6305,3.6185,3.5907,3.5171,3.4902,3.4822,3.4172,3.3618,3.3107,3.2664,3.2137,3.1604,3.1375,3.131,3.1351,3.1351,3.1443,3.1498,3.1498,3.1498,3.138,3.0817,3.0698,3.051,2.9758,2.9605,2.9605,2.9605,2.9434,2.9365,2.957,2.9434,2.9297,2.9297,2.8237,2.7335,2.7114,2.6911,2.6775,2.6775,2.6775,2.6775,2.6775,2.6876,2.6926,2.6926,2.6958,2.7093,2.7281,2.7298,2.7673,2.8425,2.8955,2.9622,3.0427,3.0956,3.1352,3.1576,3.1576,3.1576,0.0,0.0,3.0834,3.1576,3.2921,3.4231,3.4956,3.5714,3.6266,3.6266,3.6216,3.6423,3.719,3.7221,3.765,3.917,3.9433,3.9689,4.0383,3.9853,3.9102,3.831,3.8914,3.9084,0.0,3.9355,4.0096,4.0096,4.0096,4.0096,4.0096,4.0096,4.0096,4.0096,4.0096,4.0096,4.0096,4.0096,4.0096,4.0096,4.0096,4.0163,4.0305,4.0436,4.0468,4.04,3.9699,3.9358,3.9255,3.8538,3.7786,3.7063,3.7063,3.6625,3.5997,3.598,3.5963,3.586,3.5125,3.4852,3.4596,3.3089,3.2573,3.2437,3.172,3.1498,3.1498,3.1498,3.1498,3.1498,3.1498,3.1498,3.1498,3.1464,3.1464,3.1259,3.0528,3.0374,3.0374,3.0374,2.9793,2.9519,3.0237,2.9775,2.9297,2.9297,2.9263,2.8938,2.8152,2.7435,2.6991,2.6991,2.6991,2.6991,2.6991,2.6991,2.7008,2.7008,2.6991,2.7315,2.8032,2.8066,2.8442,2.9246,2.928,2.9692,3.0502,3.0519,3.0951,3.18,3.18,3.18,0.0,0.0,3.1852,3.3611,3.4438,3.5007,3.5766,3.6111,3.6163,3.5663,3.5556,3.5621,3.5859,3.6285,3.7045,3.8482,3.9221,3.9811,4.0431,3.9932,3.9391,3.904,3.9245,0.0,0.0,0.0,0.0,4.0362,4.0362,4.0362,4.0362,4.0362,4.0362,4.0362,4.0362,4.0362,4.0362,4.0362,4.0362,4.0362,4.0362,4.0387,4.0436,4.0485,4.051,4.0493,4.0253,3.9867,3.9459,3.9202,3.8408,3.7381,3.7381,3.69,3.6195,3.6195,3.6195,3.6161,3.5852,3.5402,3.4905,3.4408,3.3585,3.2674,3.232,3.1931,3.1559,3.1559,3.1615,3.1688,3.1688,3.1688,3.1688,3.1688,3.1688,3.1638,3.138,3.1329,3.1329,3.1329,3.1123,3.1037,3.1277,3.1105,3.0951,3.0951,3.0019,2.9194,2.892,2.822,2.7725,2.7725,2.7281,2.6991,2.6991,2.7039,2.7071,2.7071,2.7617,2.8028,2.8303,2.8767,2.942,3.0211,3.0228,3.059,3.1367,3.1367,3.1523,3.18,3.18,3.18,3.0472,3.1627,3.2679,3.4697,3.5387,3.5714,3.6197,3.6094,3.5697,3.4956,3.4576,3.4369,3.4369,3.4766,3.5745,3.776,3.855,3.9325,4.0467,4.0075,3.9617,3.9523,3.95,3.95,0.0,0.0,0.0,4.051,4.051,4.051,4.051,4.051,4.051,4.051,4.051,4.051,4.051,4.051,4.051,4.051,4.0558,4.0558,4.0558,4.0631,4.0655,4.0655,4.0655,4.0405,4.0012,4.0012,3.9319,3.8272,3.8013,3.7426,3.668,3.6404,3.6301,3.6301,3.6255,3.5885,3.5421,3.5218,3.4479,3.3579,3.3245,3.2629,3.2049,3.2049,3.1934,3.18,3.18,3.18,3.18,3.18,3.18,3.18,3.18,3.18,3.18,3.18,3.18,3.18,3.18,3.18,3.18,3.18,3.0882,3.0106,2.9831,2.9093,2.8596,2.8596,2.8185,2.7877,2.7877,2.7926,2.7959,2.7959,2.8473,2.892,2.9213,2.9679,3.03,3.1076,3.1076,3.1317,3.18,3.18,3.18,3.18,3.18,3.18,3.1248,3.2421,3.3386,3.4869,3.5783,3.6284,3.6249,3.5663,3.4921,3.4128,3.3352,3.2766,0.0,0.0,3.3886,3.6891,3.7478,3.8341,4.0584,4.0233,3.975,0.0,0.0,0.0,0.0,0.0,0.0,4.0534,0.0,4.0534,4.0534,4.0534,4.0534,4.0534,4.0534,4.0534,4.0534,4.0534,4.0534,4.0534,4.0648,4.0697,4.0721,4.084,4.0912,4.0912,4.0912,4.0912,4.0912,4.0912,4.0446,3.9629,3.8922,3.822,3.7461,3.6663,3.6353,3.6353,3.6318,3.6301,3.618,3.5473,3.5232,3.5059,3.4372,3.3593,3.2955,3.2955,3.2421,3.1852,3.1852,3.1834,3.18,3.18,3.18,3.18,3.18,3.18,3.18,3.18,3.18,3.18,3.18,3.18,3.18,3.18,3.18,3.1541,3.0852,3.0058,2.9558,2.9558,2.9523,2.9506,2.9506,2.9506,2.9506,2.9506,2.9541,2.9903,3.0679,3.0748,3.1076,3.1783,3.18,3.18,3.18,3.18,3.18,3.18,3.18,3.18,3.2162,3.3593,3.4835,3.5783,3.6163,3.6163,3.5611,3.4904,3.401,3.2645,3.1783,3.1076,3.0489,0.0,0.0,3.5456,3.7198,0.0,4.067,4.0722,0.0,0.0,0.0,4.0601,4.0601,4.0791,0.0,0.0,4.0799,4.0799,4.0799,4.0799,4.0799,4.0799,4.0799,4.0799,4.0799,4.0799,4.0799,4.0799,4.084,4.0864,4.0864,4.0871,4.0912,4.0912,4.0912,4.0912,4.0912,4.0912,4.0446,3.9681,3.9491,3.8957,3.8237,3.7456,3.718,3.7116,3.6508,3.6301,3.6266,3.6077,3.5645,3.5145,3.4973,3.4387,3.3783,3.3783,3.3231,3.2628,3.2628,3.2214,3.18,3.18,3.18,3.18,3.18,3.18,3.18,3.18,3.18,3.18,3.18,3.18,3.18,3.18,3.18,3.1731,3.1541,3.0851,3.0386,3.0386,2.9868,2.9506,2.9506,2.9506,2.9506,2.9506,3.0058,3.0507,3.0679,3.1231,3.161,3.18,3.18,3.18,3.18,3.18,3.18,3.18,3.18,3.18,3.3462,3.4664,3.5595,3.6174,3.6059,3.5652,3.5035,3.405,3.2854,3.1463,3.0487,0.0,2.9274,0.0,0.0,0.0,0.0,0.0,4.017,4.0687,4.0912,0.0,4.0912,0.0,4.0912,4.0912,4.0912,0.0,4.0912,4.0912,4.0912,4.0912,4.0912,4.0912,4.0912,4.0912,4.0912,4.0912,4.0912,4.0912,4.0912,4.0912,4.0912,4.0912,4.0912,4.0912,0.0,4.0912,4.0912,4.0912,4.0636,4.0181,3.9836,3.9439,3.8974,3.8254,3.7996,3.7853,3.7116,3.6818,3.6766,3.6404,3.6025,3.568,3.568,3.5163,3.4596,3.4596,3.4007,3.3421,3.3421,3.2852,3.2283,3.2283,3.2041,3.18,3.18,3.18,3.18,3.18,3.18,3.18,3.18,3.18,3.18,3.18,3.18,3.18,3.18,3.1438,3.1179,3.1179,3.0782,3.0506,3.0506,3.0506,3.0506,3.0506,3.092,3.1179,3.1179,3.1576,3.18,3.18,3.18,3.18,3.18,3.18,3.18,3.18,3.2127,3.2283,3.4809,3.5651,3.6111,3.638,3.5876,3.5117,3.4521,3.3177,3.1703,3.0455,0.0,2.8697,2.8651,2.9723,3.139,3.3796,0.0,3.8014,3.9686,4.0539,4.0965,4.0912,4.0912,4.0912,4.0912,4.0912,4.0912,4.0912,4.0912,4.0912,4.0912,4.0912,4.0912,4.0912,4.0912,4.0912,4.0912,4.0912,4.0912,4.0912,4.0912,4.0912,4.0912,4.0912,4.0912,4.0912,4.0912,0.0,4.0912,4.0912,4.0912,4.0843,4.0129,3.9853,3.9767,3.9008,3.8732,3.8629,3.7909,3.7581,3.7374,3.6559,3.6301,3.6301,3.6301,3.5852,3.5335,3.5335,3.48,3.4251,3.4251,3.3645,3.3078,3.3135,3.2596,3.213,3.2223,3.226,3.2225,3.2103,3.2086,3.2051,3.1965,3.1948,3.1948,3.1966,3.1966,3.1966,3.1966,3.1874,3.18,3.18,3.18,3.18,3.18,3.18,3.18,3.18,3.18,3.18,3.18,3.18,3.18,3.18,3.18,3.18,3.18,3.1922,3.1956,3.1991,3.2752,3.3097,3.5457,3.6424,3.7217,3.7285,3.6491,3.5351,3.3986,3.2441,0.0,0.0,0.0,2.8145,2.7921,2.9113,0.0,3.4108,0.0,0.0,0.0,0.0,4.1283,0.0,0.0,0.0,0.0,0.0,0.0,0.0,0.0,4.0912,4.0912,4.0912,4.0912,4.0912,4.0912,4.0912,4.0912,4.0912,4.0912,4.0912,4.0912,4.0912,4.0912,4.0912,4.0912,4.0912,4.0912,0.0,4.0912,4.0912,4.0912,4.0894,4.0756,4.0705,4.0601,3.9784,3.9508,3.9388,3.8663,3.8013,3.7374,3.6559,3.6301,3.6301,3.6301,3.6215,3.6111,3.6111,3.5576,3.5007,3.5007,3.4438,3.3967,3.4312,3.4036,3.3875,3.4482,3.4621,3.4408,3.3752,3.3628,3.3414,3.2821,3.2713,3.2729,3.2791,3.2791,3.2791,3.2791,3.2196,3.18,3.18,3.18,3.18,3.18,3.18,3.18,3.18,3.18,3.18,3.18,3.18,3.18,3.18,3.18,3.18,3.18,3.2514,3.2863,3.288,3.3737,3.414,3.6506,3.7309,3.786,3.7578,3.6506,3.5155,3.3724,0.0,0.0,0.0,0.0,2.8308,2.8192,0.0,0.0,0.0,0.0,0.0,0.0,0.0,0.0,0.0,0.0,0.0,0.0,0.0,0.0,0.0,0.0,4.1373,4.0918,4.0912,4.0912,4.0912,4.0912,4.0912,4.0912,4.0912,4.0912,4.0912,4.0912,4.0995,4.1192,4.1192,4.1192,4.1192,4.1192,0.0,4.0912,4.0912,4.1065,4.1323,4.1323,4.149,4.1682,4.1315,4.1174,4.105,4.0256,3.9764,3.936,3.8583,3.7571,3.6701,3.6902,3.7001,3.7041,3.7041,3.6776,3.6494,3.6494,3.5948,3.5455,3.5652,3.5244,3.4925,3.5267,3.535,3.5243,3.4849,3.4778,3.4668,3.4305,3.4249,3.4249,3.4297,3.4297,3.4297,3.4297,3.3975,3.3387,3.2523,3.2417,3.2417,3.2417,3.2417,3.2417,3.2417,3.2823,3.3051,3.3051,3.3475,3.3722,3.3722,3.3722,3.3722,3.3722,3.4163,3.434,3.4358,3.5173,3.5527,3.7228,3.7952,3.8326,3.7894,3.662,3.5069,3.3668,3.2103,0.0,0.0,2.8803,2.8694,2.8601,0.0,0.0,0.0,0.0,0.0,0.0,0.0,0.0,0.0,0.0,0.0,0.0,0.0,0.0,0.0,0.0,0.0,4.1209,4.118,4.118,4.118,4.118,4.118,4.118,4.118,4.1186,4.1192,4.1192,4.1378,4.1717,4.1717,4.1717,4.1717,4.1717,0.0,0.0,4.1237,4.149,4.1885,4.1885,4.2139,4.2503,4.2503,4.2503,4.2413,4.1785,4.1443,4.121,4.0727,3.9136,3.7496,3.7792,3.781,3.7701,3.7701,3.7701,3.7701,3.7701,3.7269,3.6836,3.6836,3.6517,3.6214,3.6116,3.6182,3.6175,3.6012,3.5976,3.5921,3.5755,3.5737,3.5753,3.575,3.5768,3.5768,3.5768,3.5768,3.5245,3.3945,3.3635,3.3543,3.3543,3.3543,3.3543,3.3543,3.4135,3.4477,3.4477,3.5139,3.5497,3.5497,3.5497,3.5497,3.5497,3.5694,3.5784,3.5802,3.6561,3.6922,3.695,3.7986,3.8833,3.877,3.7344,3.5505,3.3925,0.0,0.0,2.9058,2.8905,2.8957,2.8669,2.869,0.0,0.0,0.0,3.5946,0.0,0.0,0.0,0.0,0.0,0.0,0.0,0.0,0.0,0.0,0.0,0.0,4.2095,4.2074,4.2074,4.2074,4.2074,4.2074,4.2074,4.2074,4.2118,4.2165,4.2165,4.2246,4.2404,4.2404,4.2404,4.2404,4.2404,0.0,0.0,4.2344,4.2384,4.2424,4.2424,4.2464,4.2503,4.2503,4.2503,4.2485,4.2431,4.1909,4.1338,4.1651,4.0419,3.8834,3.887,3.8312,3.7701,3.7701,3.7701,3.7701,3.7701,3.7647,3.7593,3.7593,3.8113,3.8489,3.8123,3.8331,3.8376,3.7638,3.7495,3.7284,3.6611,3.6495,3.6509,3.6576,3.6589,3.6589,3.6589,3.6589,3.6533,3.6385,3.5717,3.5265,3.5265,3.5265,3.5265,3.5265,3.5353,3.5389,3.5389,3.5461,3.5497,3.5497,3.5497,3.5497,3.5497,3.6286,3.668,3.6698,3.7562,3.7958,3.7204,3.8264,3.9007,3.8921,3.763,3.5915,3.4236,0.0,3.0931,2.9322,2.9089,2.927,2.9616,2.9684,3.0406,0.0,0.0,0.0,0.0,0.0,0.0,0.0,0.0,0.0,0.0,0.0,0.0,0.0,0.0,0.0,4.316,4.2675,4.2382,4.2382,4.2382,4.2382,4.2382,4.2382,4.2384,4.2424,4.2424,4.2581,4.2867,4.2867,4.2867,4.2867,4.2867,0.0,0.0,4.2503,4.2678,4.2923,4.2923,4.3123,4.3387,4.3387,4.3387,4.3387,4.3387,4.3184,4.2961,4.3113,4.2308,4.1199,4.0657,4.0288,3.995,3.9457,3.9328,3.92,3.867,3.8542,3.8542,3.8542,3.8792,3.8974,3.8822,3.8913,3.8943,3.8609,3.8554,3.8442,3.8169,3.8094,3.8108,3.8135,3.8135,3.8135,3.8135,3.8135,3.8135,3.8135,3.6994,3.6217,3.6217,3.6217,3.6217,3.6217,3.6677,3.6934,3.6934,3.7408,3.7684,3.7684,3.7684,3.7684,3.7684,3.8029,3.8177,3.8195,3.8541,3.8703,3.6695,3.7927,3.872,3.8641,3.7618,3.6125,0.0,0.0,3.1256,2.9869,2.9581,2.9821,3.0604,3.0752,3.1191,3.2514,0.0,3.4247,0.0,0.0,0.0,0.0,0.0,0.0,0.0,0.0,0.0,0.0,0.0,0.0,0.0,4.3266,4.2941,4.2884,4.2866,4.2866,4.2866,4.2866,4.2885,4.2922,4.2922,4.3069,4.337,4.337,4.337,4.337,4.337,0.0,0.0,4.2941,4.3141,4.3439,4.3439,4.3677,4.4005,4.4005,4.4005,4.4005,4.4005,4.4005,4.4005,4.4005,4.3615,4.3042,4.2424,4.1935,4.1479,4.0903,4.0583,4.0197,3.9324,3.9101,3.9101,3.9101,3.9101,3.9101,3.9101,3.9101,3.9101,3.9101,3.9101,3.9101,3.9101,3.9101,3.9101,3.9101,3.9101,3.9101,3.9101,3.9101,3.9101,3.9101,3.8079,3.7411,3.7411,3.7411,3.7411,3.7411,3.7931,3.8247,3.8247,3.8804,3.9101,3.9101,3.9101,3.9101,3.9101,3.9101,3.9101,3.9101,3.9101,3.9101,3.5083,3.6686,3.7912,3.7912,3.7299,3.6049,0.0,3.2388,3.1548,3.0665,3.0487,3.0717,3.1448,3.1584,3.1849,3.2668,3.4195,0.0,0.0,0.0,0.0,0.0,0.0,0.0,0.0,0.0,0.0,0.0,0.0,0.0,0.0,4.3989,4.391,4.3788,4.3788,4.3788,4.3788,4.3788,4.3818,4.3881,4.3881,4.3929,4.3989,4.3989,4.3989,0.0,0.0,0.0,0.0,4.3971,4.3989,4.3989,4.3989,4.4005,4.4005,4.4005,4.4005,4.4005,4.4005,4.4005,4.4005,4.4005,4.3986,4.3986,4.3986,4.2853,4.159,4.159,4.101,4.0197,3.9324,3.9101,3.9101,3.9101,3.9101,3.9101,3.9101,3.9101,3.9101,3.9101,3.9101,3.9101,3.9101,3.9101,3.9101,3.9101,3.9101,3.9101,3.9101,3.9101,3.9101,3.9101,3.9082,3.9082,3.9082,3.9082,3.9082,3.9082,3.9082,3.9082,3.9082,3.9101,3.9101,3.9101,3.9101,3.9101,3.9101,3.9101,3.9101,3.9101,3.9101,3.9101,3.3503,3.455,3.5367,3.5367,3.5182,3.4643,3.3287,3.2797,3.2395,3.1567,3.1388,3.163,3.2405,3.2553,3.319,3.5086,3.5832,0.0,0.0,0.0,0.0,0.0,0.0,0.0,0.0,0.0,0.0,0.0,0.0,0.0,0.0,4.4005,4.3974,4.3945,4.3945,4.3945,4.3945,4.3945,4.3961,4.3958,4.3958,4.3974,4.4005,4.4005,0.0,0.0,0.0,0.0,0.0,4.4005,4.4005,4.4005,4.4005,4.4005,4.4005,4.4005,4.4005,4.4005,4.4005,4.4005,4.4005,4.4005,4.4005,4.4005,4.4005,4.3633,4.3132,4.2575,4.1832,4.1144,4.0884,4.0401,3.9974,3.9974,3.9528,3.9101,3.9101,3.9101,3.9101,3.9101,3.9101,3.9101,3.9101,3.9101,3.9101,3.9101,3.9101,3.9101,3.9101,3.9101,3.9101,3.9101,3.9101,3.9101,3.9101,3.9101,3.9101,3.9101,3.9101,3.9101,3.9101,3.9101,3.9101,3.9101,3.9101,3.9101,3.9101,3.9695,4.0271,4.0791,4.0234,4.0271,3.2258,3.3131,3.3751,3.3751,3.3974,3.39,3.2797,3.2778,3.2871,3.237,3.2258,3.25,3.3287,3.3436,3.4036,3.5892,3.6448,0.0,0.0,0.0,0.0,0.0,0.0,0.0,0.0,0.0,0.0,0.0,0.0,0.0,0.0,4.4005,4.4005,4.4005,4.4005,4.4005,4.4005,4.4005,4.4005,4.4005,4.4005,4.4005,4.4005,4.4005,0.0,0.0,0.0,0.0,0.0,4.4005,4.4005,4.4005,4.4005,4.4005,4.4005,4.4005,4.4005,4.4005,4.4005,4.4005,4.4005,4.4005,4.4005,4.4005,4.4005,4.4005,4.3838,4.302,4.2445,4.198,4.1683,4.1219,4.0847,4.0847,4.0438,4.003,4.003,3.9788,3.9584,3.9584,3.9324,3.9194,3.9528,3.9584,3.9695,3.9993,4.003,4.003,4.003,4.003,4.003,4.003,4.003,4.003,4.003,3.9454,3.9101,3.9101,3.9101,3.925,3.9584,3.9584,3.9733,4.003,4.003,4.003,4.003,4.0587,4.1107,4.159,4.1089,4.1107,0.0,3.2165,3.276,3.2816,3.3429,3.364,3.2221,3.2518,0.0,3.3094,3.3094,3.3324,3.4141,3.429,3.4606,3.5603,3.6439,0.0,0.0,0.0,0.0,0.0,0.0,0.0,0.0,0.0,0.0,0.0,0.0,0.0,0.0,4.4005,4.4005,4.4005,4.4005,4.4005,4.4005,4.4005,4.4005,4.4005,4.4005,4.4005,4.4005,4.4005,4.4005,0.0,0.0,0.0,0.0,4.4005,4.4005,4.4005,4.4005,4.4005,4.4005,4.4005,4.4005,4.4005,4.4005,4.4005,4.4005,4.4005,4.4005,4.4005,4.4005,4.4005,4.3838,4.3095,4.289,4.2705,4.1962,4.172,4.1683,4.1683,4.1627,4.159,4.159,4.101,4.049,4.049,3.9825,3.9528,4.0346,4.049,4.075,4.1479,4.159,4.159,4.159,4.159,4.159,4.159,4.159,4.159,4.159,4.016,3.9287,3.9287,3.9287,3.964,4.0438,4.049,4.0828,4.159,4.159,4.1627,4.1683,4.1627,4.1664,4.1757,4.1702,4.172,2.9861,0.0,3.0381,3.1013,3.1775,3.2425,0.0,3.3336,3.3918,3.3918,0.0,3.4179,3.5045,3.5194,3.5882,3.7912,3.8971,0.0,0.0,0.0,0.0,0.0,0.0,0.0,0.0,0.0,0.0,0.0,0.0,0.0,0.0,4.4005,4.4005,4.4005,4.4005,4.4005,4.4005,4.4005,4.4005,4.4005,4.4005,4.4005,4.4005,4.4005,4.4005,0.0,0.0,0.0,4.4005,4.4005,4.4005,4.4005,4.4005,4.4005,4.4005,4.4005,4.4005,4.4005,4.4005,4.4005,4.4005,4.4005,4.4005,4.4005,4.4005,4.4005,4.3968,4.3763,4.3726,4.367,4.3485,4.2983,4.2519,4.2519,4.2054,4.159,4.159,4.1441,4.1311,4.1311,4.1144,4.107,4.1274,4.1311,4.1367,4.1571,4.159,4.159,4.159,4.159,4.159,4.159,4.159,4.159,4.159,4.1237,4.1014,4.1014,4.1014,4.1089,4.1311,4.1311,4.1404,4.159,4.159,4.1887,4.2519,4.1887,4.2222,4.3429,4.2797,4.2853,2.9396,2.9935,3.0604,3.1032,3.2035,3.3008,3.3436,3.3881,0.0,0.0,0.0,3.4457,3.5343,3.551,0.0,0.0,0.0,0.0,0.0,0.0,0.0,0.0,0.0,0.0,0.0,0.0,0.0,0.0,0.0,0.0,0.0,4.4005,4.4005,4.4005,4.4005,4.4005,4.4005,4.4005,4.4005,4.4005,4.4005,4.4005,4.4005,4.4005,4.4005,0.0,0.0,0.0,4.4005,4.4005,4.4005,4.4005,4.4005,4.4005,4.4005,4.4005,4.4005,4.4005,4.4005,4.4005,4.4005,4.4005,4.4005,4.4005,4.4005,4.4005,4.4005,4.4005,4.4005,4.4005,4.4005,4.367,4.3355,4.3355,4.302,4.2705,4.2705,4.2407,4.2147,4.2147,4.185,4.172,4.2092,4.2147,4.2277,4.2649,4.2705,4.2705,4.2705,4.2705,4.2705,4.2705,4.2705,4.2705,4.2705,4.2705,4.2389,4.1646,4.159,4.1757,4.2129,4.2147,4.2314,4.2686,4.2705,4.2927,4.3355,4.2909,4.315,4.3986,4.3559,4.3578,2.9694,3.0971,3.2166,3.1879,3.302,3.4197,3.4197,0.0,0.0,0.0,0.0,0.0,0.0,0.0,0.0,0.0,0.0,0.0,0.0,0.0,0.0,0.0,0.0,0.0,0.0,0.0,0.0,0.0,0.0,0.0,0.0,4.4005,4.4005,4.4005,4.4005,4.4005,4.4005,4.4005,4.4005,4.4005,4.4005,4.4005,4.4005,4.4005,4.4005,4.4005,0.0,0.0,4.4005,4.4005,4.4005,4.4005,4.4005,4.4005,4.4005,4.4005,4.4005,4.4005,4.4005,4.4005,4.4005,4.4005,4.4005,4.4005,4.4005,4.4005,4.4005,4.4005,4.4005,4.4005,4.4005,4.4005,4.4005,4.4005,4.4005,4.4005,4.4005,4.3466,4.2983,4.2983,4.2426,4.2184,4.2872,4.2983,4.3206,4.3893,4.4005,4.4005,4.4005,4.4005,4.4005,4.4005,4.4005,4.4005,4.4005,4.4005,4.3429,4.2054,4.1962,4.2259,4.2946,4.2983,4.3299,4.3986,4.4005,4.4005,4.4005,4.4005,4.4005,4.4005,4.4005,4.4005,3.105,3.2772,3.3778,3.2214,3.302,3.4197,3.4197,0.0,0.0,0.0,0.0,0.0,0.0,0.0,0.0,0.0,0.0,0.0,0.0,0.0,0.0,0.0,0.0,0.0,0.0,0.0,0.0,0.0,0.0,0.0,0.0,4.4005,4.4005,4.4005,4.4005,4.4005,4.4005,4.4005,4.4005,4.4005,4.4005,4.4005,4.4005,4.4005,4.4005,4.4005,0.0,4.4005,4.4005,4.4005,4.4005,4.4005,4.4005,4.4005,4.4005,4.4005,4.4005,4.4005,4.4005,4.4005,4.4005,4.4005,4.4005,4.4005,4.4005,4.4005,4.4005,4.4005,4.4005,4.4005,4.4005,4.4005,4.4005,4.4005,4.4005,4.4005,4.4005,4.3893,4.3819,4.3819,4.3726,4.367,4.3782,4.3819,4.3856,4.3986,4.4005,4.4005,4.4005,4.4005,4.4005,4.4005,4.4005,4.4005,4.4005,4.4005,4.3893,4.3652,4.3633,4.3689,4.3819,4.3819,4.3875,4.4005,4.4005,4.4005,4.4005,4.4005,4.4005,4.4005,4.4005,4.4005,3.0575,3.2302,3.3711,3.2953,3.4693,3.6584,3.6584,3.6227,0.0,0.0,0.0,0.0,0.0,0.0,0.0,0.0,0.0,0.0,0.0,0.0,0.0,0.0,0.0,0.0,0.0,0.0,0.0,0.0,0.0,0.0,0.0,0.0,4.4005,4.4005,4.4005,4.4005,4.4005,4.4005,4.4005,4.4005,4.4005,4.4005,4.4005,4.4005,4.4005,4.4005,0.0,4.4005,4.4005,4.4005,4.4005,4.4005,4.4005,4.4005,4.4005,4.4005,4.4005,4.4005,4.4005,4.4005,4.4005,4.4005,4.4005,4.4005,4.4005,4.4005,4.4005,4.4005,4.4005,4.4005,4.4005,4.4005,4.4005,4.4005,4.4005,4.4005,4.4005,4.4005,4.4005,4.4005,4.4005,4.4005,4.4005,4.4005,4.4005,4.4005,4.4005,4.4005,4.4005,4.4005,4.4005,4.4005,4.4005,4.4005,4.4005,4.4005,4.4005,4.4005,4.4005,4.4005,4.4005,4.4005,4.4005,4.4005,4.4005,4.4005,4.4005,4.4005,4.4005,4.4005,4.4005,4.4005,3.036,3.1919,3.3572,3.413,3.6112,3.805,3.851,3.7981,0.0,0.0,0.0,0.0,0.0,0.0,0.0,0.0,0.0,0.0,0.0,0.0,0.0,0.0,0.0,0.0,0.0,0.0,0.0,0.0,0.0,0.0,0.0,0.0,4.4005,4.4005,4.4005,4.4005,4.4005,4.4005,4.4005,4.4005,4.4005,4.4005,4.4005,4.4005,4.4005,4.4005,4.4005,4.4005,4.4005,4.4005,4.4005,4.4005,4.4005,4.4005,4.4005,4.4005,4.4005,4.4005,4.4005,4.4005,4.4005,4.4005,4.4005,4.4005,4.4005,4.4005,4.4005,4.4005,4.4005,4.4005,4.4005,4.4005,4.4005,4.4005,4.4005,4.4005,4.4005,4.4005,4.4005,4.4005,4.4005,4.4005,4.4005,4.4005,4.4005,4.4005,4.4005,4.4005,4.4005,4.4005,4.4005,4.4005,4.4005,4.4005,4.4005,4.4005,4.4005,4.4005,4.4005,4.4005,4.4005,4.4005,4.4005,4.4005,4.4005,4.402,4.4055,4.4055,4.4051,4.4067,4.4067,4.4067,3.1717,3.2974,3.423,3.5817,3.6101,3.6475,3.8281,3.801,0.0,3.9376,0.0,0.0,0.0,0.0,0.0,0.0,0.0,0.0,0.0,0.0,0.0,0.0,0.0,0.0,0.0,0.0,0.0,0.0,0.0,0.0,0.0,0.0,0.0,4.4005,4.4005,4.4005,4.4005,4.4005,4.4005,4.4005,4.4005,4.4005,4.4005,4.4005,4.4005,4.4005,4.4005,4.4005,4.4005,4.4005,4.4005,4.4005,4.4005,4.4005,4.4005,4.4005,4.4005,4.4005,4.4005,4.4005,4.4005,4.4005,4.4005,4.4005,4.4005,4.4005,4.4005,4.4005,4.4005,4.4005,4.4005,4.4005,4.4005,4.4005,4.4005,4.4005,4.4005,4.4005,4.4005,4.4005,4.4005,4.4005,4.4005,4.4005,4.4005,4.4005,4.4005,4.4005,4.4005,4.4005,4.4005,4.4005,4.4005,4.4005,4.4005,4.4005,4.4005,4.4005,4.4005,4.4005,4.4005,4.4005,4.4005,4.4005,4.4005,4.407,4.4184,4.4184,4.4229,4.4285,4.4285,4.4285,3.0946,3.2882,3.489,3.5653,3.6816,0.0,0.0,3.9989,4.0413,4.1427,4.1893,0.0,0.0,0.0,0.0,0.0,0.0,0.0,0.0,0.0,0.0,0.0,0.0,0.0,0.0,0.0,0.0,0.0,0.0,0.0,0.0,4.4005,4.4005,4.4005,4.4005,4.4005,4.4005,4.4005,4.4005,4.4005,4.4005,4.4005,4.4005,4.4005,4.4005,4.4005,4.4005,4.4005,4.4005,4.4005,4.4005,4.4005,4.4005,4.4005,4.4005,4.4005,4.4005,4.4005,4.4005,4.4005,4.4005,4.4005,4.4005,4.4005,4.4005,4.4005,4.4005,4.4005,4.4005,4.4005,4.4005,4.4005,4.4005,4.4005,4.4005,4.4005,4.4005,4.4005,4.4005,4.4005,4.4005,4.4005,4.4005,4.4005,4.4005,4.4005,4.4005,4.4005,4.4005,4.4005,4.4005,4.4005,4.4005,4.4005,4.4005,4.4005,4.4039,4.4119,4.4055,4.4005,4.4005,4.407,4.4119,4.4119,4.418,4.4226,4.4255,4.4255,4.4289,4.43,4.43,4.43,3.1192,3.3196,3.5446,3.6113,0.0,0.0,4.0973,4.1566,4.2148,4.3349,4.3417,0.0,0.0,0.0,0.0,0.0,0.0,0.0,0.0,0.0,0.0,0.0,0.0,0.0,0.0,0.0,0.0,0.0,0.0,0.0,0.0,4.402,4.4005,4.4005,4.4005,4.4005,4.4005,4.4036,4.407,4.407,4.4067,4.4067,4.407,4.407,4.4085,4.4082,4.4082,4.4082,4.4082,4.4082,4.4082,4.4082,4.4082,4.4082,4.4082,4.4082,4.4082,4.4082,4.407,4.4085,4.4082,4.407,4.4085,4.4082,4.4082,4.4085,4.407,4.407,4.402,4.4005,4.4005,4.4005,4.4005,4.4005,4.4005,4.4005,4.4005,4.4005,4.4005,4.4005,4.4005,4.4005,4.4005,4.4005,4.4005,4.4005,4.4005,4.4005,4.4005,4.4005,4.4005,4.4005,4.4005,4.402,4.407,4.407,4.4101,4.4229,4.415,4.4082,4.4082,4.418,4.4229,4.4229,4.4289,4.4314,4.4329,4.4329,4.4383,4.4458,4.4458,4.45,3.2891,3.4173,3.5904,0.0,0.0,0.0,4.2547,4.245,4.2547,4.5075,0.0,0.0,0.0,0.0,0.0,0.0,0.0,0.0,0.0,0.0,0.0,0.0,0.0,0.0,0.0,0.0,0.0,0.0,0.0,0.0,0.0,4.407,4.4005,4.4005,4.4005,4.4005,4.4005,4.4135,4.4199,4.4199,4.4274,4.4274,4.4199,4.4199,4.4244,4.43,4.43,4.43,4.43,4.43,4.43,4.43,4.43,4.43,4.43,4.43,4.43,4.4285,4.4229,4.4244,4.4285,4.4229,4.4244,4.43,4.43,4.4259,4.4199,4.4199,4.4119,4.4005,4.4005,4.4005,4.4005,4.4005,4.4005,4.4005,4.4005,4.4005,4.4005,4.4005,4.4005,4.4005,4.4005,4.4005,4.4005,4.4005,4.4005,4.4005,4.4005,4.4005,4.4005,4.3986,4.3986,4.407,4.4199,4.4199,4.4244,4.43,4.43,4.43,4.43,4.43,4.43,4.43,4.43,4.4344,4.4397,4.4397,4.4554,4.48,4.48,4.495,3.2218,3.4154,0.0,0.0,0.0,0.0,0.0,4.3851,0.0,0.0,0.0,0.0,0.0,0.0,0.0,0.0,0.0,0.0,0.0,0.0,0.0,0.0,0.0,0.0,0.0,0.0,0.0,0.0,0.0,0.0,0.0,4.424,4.4207,4.4207,4.4207,4.4207,4.4207,4.4255,4.4255,4.4255,4.4285,4.4285,4.4255,4.4255,4.427,4.43,4.43,4.43,4.43,4.43,4.43,4.43,4.43,4.43,4.43,4.43,4.43,4.43,4.4289,4.427,4.43,4.4289,4.4285,4.43,4.43,4.4304,4.4255,4.4255,4.424,4.4207,4.4207,4.4207,4.4177,4.4036,4.4005,4.4005,4.4005,4.4005,4.4005,4.4005,4.4005,4.4005,4.4005,4.4005,4.4005,4.4005,4.4005,4.4005,4.4005,4.4005,4.4094,4.4332,4.436,4.4452,4.4676,4.4688,4.4745,4.4862,4.4856,4.4688,4.4314,4.4358,4.4368,4.4368,4.4416,4.4519,4.4688,4.4688,4.4819,4.5085,4.5085,4.5118,3.418,3.5951,0.0,0.0,0.0,0.0,0.0,0.0,0.0,0.0,0.0,0.0,0.0,0.0,0.0,0.0,0.0,0.0,0.0,0.0,0.0,0.0,0.0,0.0,0.0,0.0,0.0,0.0,0.0,0.0,0.0,4.4314,4.43,4.43,4.43,4.43,4.43,4.4329,4.4344,4.4344,4.4373,4.4387,4.4387,4.4358,4.4358,4.4387,4.4387,4.4387,4.4387,4.4387,4.4387,4.4387,4.4387,4.4387,4.4387,4.4387,4.4387,4.4373,4.4358,4.4358,4.4373,4.4358,4.4358,4.4387,4.4387,4.4358,4.4344,4.4344,4.4314,4.43,4.43,4.43,4.427,4.4116,4.407,4.407,4.4005,4.4005,4.4005,4.4005,4.4005,4.4005,4.4005,4.4005,4.4005,4.4005,4.4094,4.421,4.4308,4.4332,4.4443,4.4637,4.467,4.475,4.4962,4.4984,4.5025,4.5129,4.5129,4.4985,4.4681,4.4694,4.472,4.472,4.4758,4.4826,4.4973,4.4973,4.5077,4.5314,4.5314,4.5362,3.7332,0.0,0.0,0.0,0.0,0.0,0.0,0.0,0.0,0.0,0.0,0.0,0.0,0.0,0.0,0.0,0.0,0.0,0.0,0.0,0.0,0.0,0.0,0.0,0.0,0.0,0.0,0.0,0.0,0.0,0.0,4.4358,4.4314,4.4314,4.4314,4.4314,4.4314,4.4368,4.4411,4.4411,4.4473,4.4501,4.4501,4.4444,4.444,4.4501,4.4501,4.4501,4.4501,4.4501,4.4501,4.4501,4.4501,4.4501,4.4501,4.4501,4.4501,4.4501,4.4426,4.444,4.4501,4.4426,4.444,4.4501,4.4501,4.4473,4.4411,4.4411,4.4373,4.4314,4.4314,4.4314,4.43,4.4244,4.4214,4.4184,4.4051,4.402,4.402,4.402,4.4051,4.4051,4.4051,4.4064,4.4079,4.4079,4.4294,4.4533,4.4776,4.4861,4.4908,4.4943,4.495,4.4998,4.5142,4.5171,4.5192,4.5244,4.5244,4.5244,4.5244,4.5222,4.5201,4.5201,4.5201,4.5211,4.5232,4.5232,4.5323,4.5535,4.5535,4.5626,3.5201,3.7205,0.0,0.0,0.0,0.0,0.0,0.0,0.0,0.0,0.0,0.0,0.0,0.0,0.0,0.0,0.0,0.0,0.0,0.0,0.0,0.0,0.0,0.0,0.0,0.0,0.0,0.0,0.0,0.0,4.4487,4.4473,4.4458,4.4458,4.4458,4.4458,4.4458,4.4473,4.4487,0.0,4.4501,4.4501,4.4501,4.4487,4.4487,4.4501,4.4501,4.4501,4.4501,4.4501,4.4501,4.4501,4.4501,4.4501,4.4501,4.4501,4.4501,4.4501,4.4487,4.4487,4.4501,4.4487,4.4487,4.4501,4.4501,4.4501,4.4487,4.4487,4.4473,4.4458,4.4458,4.4458,4.4444,4.4368,4.4314,4.427,4.424,4.424,4.424,4.424,4.4331,4.4393,4.4393,4.4525,4.4624,4.4624,4.4714,4.4812,4.4861,4.4881,4.4998,4.5256,4.5295,4.5389,4.5634,4.565,4.5658,4.5665,4.5665,4.5665,4.5665,4.5362,4.5201,4.5201,4.5201,4.5293,4.5436,4.5436,4.5552,4.5737,4.5737,4.5752,3.5932,0.0,0.0,0.0,0.0,0.0,0.0,0.0,0.0,0.0,0.0,0.0,0.0,0.0,0.0,0.0,0.0,0.0,0.0,0.0,0.0,0.0,0.0,0.0,0.0,0.0,0.0,0.0,0.0,4.4595,4.4515,4.4501,4.4501,4.4501,4.4501,4.4501,4.4501,4.4501,4.4501,4.4501,4.4501,4.4501,4.4501,4.4501,4.4501,4.4501,4.4501,4.4501,4.4501,4.4501,4.4501,4.4501,4.4501,4.4501,4.4501,4.4501,4.4501,4.4501,4.4501,4.4501,4.4501,4.4501,4.4501,4.4501,4.4501,4.4501,4.4501,4.4501,4.4501,4.4501,4.4501,4.4501,4.451,4.4581,4.4477,4.4344,4.43,4.4364,4.4444,4.4444,4.4591,4.4676,4.4688,4.4751,4.4849,4.5019,4.5074,4.514,4.5274,4.5314,4.5399,4.556,4.5594,4.565,4.58,4.5807,4.5807,4.5807,4.5807,4.5807,4.5807,4.5602,4.5481,4.5481,4.5481,4.5552,4.5642,4.5642,4.5708,4.5807,4.5807,4.5807,3.6728,0.0,4.0076,0.0,0.0,0.0,0.0,0.0,0.0,0.0,0.0,0.0,0.0,0.0,0.0,0.0,0.0,0.0,0.0,0.0,0.0,0.0,0.0,0.0,0.0,0.0,0.0,0.0,0.0,4.4714,4.4496,4.4501,4.4501,4.4501,4.4501,4.4501,4.4501,4.4501,4.4501,4.4501,4.4501,4.4501,4.4501,4.4501,4.4501,4.4501,4.4501,4.4501,4.4501,4.4501,4.4501,4.4501,4.4501,4.4501,4.4501,4.4501,4.4501,4.4501,4.4501,4.4501,4.4501,4.4501,4.4501,4.4501,4.4501,4.4501,4.4501,4.4501,4.4524,4.4546,4.4546,4.4605,4.4661,4.4831,4.4701,4.4513,4.4463,4.4562,4.4656,4.4688,4.4858,4.5017,4.5025,4.5,4.5044,4.5323,4.5515,4.5638,4.5711,4.5908,4.5969,4.5815,4.5805,4.5807,4.5807,4.5807,4.5807,4.5807,4.5807,4.5807,4.5807,4.5942,4.602,4.602,4.5884,4.5807,4.5807,4.5807,4.5807,4.5807,4.5807,4.5807,0.0,0.0,0.0,0.0,0.0,0.0,0.0,0.0,0.0,0.0,0.0,0.0,0.0,0.0,0.0,0.0,0.0,0.0,0.0,0.0,0.0,0.0,0.0,0.0,0.0,0.0,0.0,0.0,4.4919,4.4714,4.4496,4.4501,4.4501,4.4501,4.4501,4.4501,4.4501,4.4501,4.4501,4.4501,4.4501,4.4501,4.4501,4.4501,4.4501,4.4501,4.4501,4.4501,4.4501,4.4501,4.4501,4.4501,4.4501,4.4501,4.4501,4.4501,4.4501,4.4501,4.4501,4.4501,4.4501,4.4501,4.4501,4.4501,4.4501,4.4501,4.4501,4.4501,4.4635,4.4758,4.4758,4.4927,4.5115,4.5148,4.5126,4.5094,4.5074,4.4927,4.4837,4.5074,4.5273,4.5447,4.5571,4.558,4.5607,4.564,4.6328,4.66,4.587,4.6448,4.6644,4.5877,4.58,4.5807,4.5807,4.5807,4.5807,4.5807,4.5807,4.5807,4.5807,4.6542,4.6922,4.6922,4.6174,4.5807,4.5807,4.5807,4.5807,4.5807,4.5807,4.5807,3.4715,3.7323,0.0,0.0,0.0,0.0,0.0,0.0,0.0,0.0,0.0,0.0,0.0,0.0,0.0,0.0,0.0,0.0,0.0,0.0,0.0,0.0,0.0,0.0,0.0,0.0,0.0,0.0,4.5142,4.4915,4.4681,4.4668,4.4668,4.4668,4.4801,4.4887,4.4887,4.4887,4.482,4.4668,4.4546,4.4501,4.4501,4.4501,4.4501,4.4501,4.4501,4.4501,4.4501,4.4501,4.4501,4.4501,4.4501,4.4501,4.4501,4.4501,4.4501,4.4501,4.4501,4.4501,4.451,4.4635,4.4581,4.4551,4.4808,4.4795,4.4707,4.4857,4.4957,4.503,4.503,4.5107,4.5232,4.5333,4.5274,4.5254,4.5481,4.5352,4.5265,4.549,4.5616,4.5695,4.575,4.6129,4.6449,4.6472,4.7222,4.765,4.7306,4.7591,4.7676,4.7289,4.725,4.725,4.725,4.725,4.725,4.725,4.725,4.725,4.725,4.7618,4.7831,4.7831,4.7444,4.725,4.725,4.725,4.725,4.725,4.725,4.725,0.0,0.0,0.0,0.0,0.0,0.0,0.0,0.0,0.0,0.0,0.0,0.0,0.0,0.0,0.0,0.0,0.0,0.0,0.0,0.0,0.0,0.0,0.0,0.0,0.0,0.0,0.0,0.0,4.5352,4.5171,4.4927,4.4896,4.4896,4.4896,4.5096,4.5201,4.5201,4.5201,4.5096,4.4903,4.4681,4.4613,4.468,4.4613,4.4608,4.4661,4.4551,4.4501,4.4501,4.4501,4.4501,4.4501,4.4501,4.4501,4.4501,4.4501,4.4501,4.4515,4.4546,4.4573,4.4608,4.4831,4.4801,4.4751,4.5094,4.5063,4.4931,4.514,4.5243,4.5283,4.5283,4.5304,4.539,4.5533,4.5454,4.5418,4.5665,4.5642,4.5618,4.5766,4.5979,4.6131,4.6131,4.6816,4.7368,4.7418,4.8133,4.8593,4.843,4.8585,4.8643,4.8411,4.8392,4.8392,4.8392,4.8392,4.8392,4.8392,4.8392,4.8392,4.8392,4.8604,4.874,4.874,4.8933,4.8836,4.8392,4.8392,4.8392,4.8392,4.8392,4.8392,0.0,0.0,0.0,0.0,0.0,0.0,0.0,0.0,0.0,0.0,0.0,0.0,0.0,0.0,0.0,0.0,0.0,0.0,0.0,0.0,0.0,0.0,0.0,0.0,0.0,0.0,0.0,0.0,4.5481,4.539,4.5201,4.518,4.518,4.518,4.5201,4.5201,4.5201,4.5201,4.5201,4.518,4.4915,4.4927,4.5159,4.4903,4.4927,4.5137,4.4687,4.4501,4.4501,4.4501,4.4501,4.4501,4.4501,4.4501,4.4501,4.4501,4.4501,4.4524,4.4726,4.4776,4.4831,4.5085,4.518,4.5169,4.5191,4.5191,4.5191,4.5201,4.5333,4.5481,4.5481,4.5626,4.5766,4.5773,4.5786,4.5723,4.5541,4.565,4.5793,4.5807,4.6477,4.7038,4.7038,4.7753,4.8326,4.8333,4.9061,4.9339,4.8508,4.9126,4.932,4.8488,4.8392,4.8392,4.8392,4.8392,4.8392,4.8392,4.8392,4.8392,4.8392,4.9184,4.9629,4.9629,5.0376,4.9989,4.8392,4.8392,4.8392,4.8392,4.8392,4.8392,0.0,0.0,0.0,0.0,0.0,0.0,0.0,0.0,0.0,0.0,0.0,0.0,0.0,0.0,0.0,0.0,0.0,0.0,0.0,0.0,0.0,0.0,0.0,0.0,0.0,0.0,0.0,0.0,0.0,4.5463,4.539,4.539,4.539,4.539,4.5526,4.5594,4.5594,4.5454,4.539,4.539,4.5152,4.5107,4.5201,4.5096,4.5107,4.5191,4.5026,4.4946,4.4946,4.4946,4.4946,4.4946,4.4946,4.4946,4.4946,4.4946,4.4946,4.4957,4.503,4.5063,4.5096,4.5323,4.5313,4.5253,4.5518,4.549,4.5533,4.6234,4.6463,4.6665,4.7225,4.7407,4.7463,4.7463,4.7463,4.7448,4.7376,4.6537,4.5807,4.5807,4.6503,4.7096,4.7096,4.8295,4.9223,4.9223,4.9939,5.0357,5.0028,5.0279,5.0337,5.0028,4.9989,4.9989,4.9989,4.9989,4.9989,4.9989,4.9989,4.9989,4.9989,5.0299,5.0473,5.0473,5.0743,5.0589,4.9989,4.9989,4.9989,4.9989,4.9989,4.9989,3.1637,0.0,0.0,0.0,0.0,0.0,0.0,0.0,0.0,0.0,0.0,0.0,0.0,0.0,0.0,0.0,0.0,0.0,0.0,0.0,0.0,0.0,0.0,0.0,0.0,0.0,0.0,0.0,0.0,0.0,4.5602,4.5602,4.5602,4.5602,4.573,4.5807,4.5807,4.5658,4.5602,4.5602,4.539,4.5333,4.5399,4.5323,4.5333,4.5399,4.5399,4.5323,4.5201,4.5201,4.5201,4.5201,4.5201,4.5201,4.5201,4.5201,4.5201,4.5211,4.5283,4.5294,4.5333,4.5543,4.5507,4.5445,4.5723,4.5908,4.6185,4.6892,4.7308,4.7676,4.8256,4.8392,4.8392,4.8392,4.8392,4.8392,4.8392,4.7482,4.667,4.667,4.7386,4.7966,4.7966,4.9165,5.0113,5.0113,5.055,5.0898,5.0898,5.0898,5.0898,5.0898,5.0898,5.0898,5.0898,5.0898,5.0898,5.0898,5.0898,5.0898,5.0898,5.0898,5.0898,5.0898,5.0898,5.0898,5.0898,5.0898,5.0898,5.0898,5.0898,5.0898,0.0,0.0,0.0,0.0,0.0,0.0,0.0,0.0,0.0,0.0,0.0,0.0,0.0,0.0,0.0,0.0,0.0,0.0,0.0,0.0,0.0,0.0,0.0,0.0,0.0,0.0,0.0,0.0,4.5807,4.5807,4.5807,4.5807,4.5807,4.5807,4.5807,4.5807,4.5807,4.5807,4.5807,4.58,4.5602,4.561,4.578,4.5602,4.5618,4.5807,4.5807,4.5585,4.5222,4.5222,4.5222,4.5222,4.5222,4.5222,4.5222,4.5222,4.5222,4.5253,4.5436,4.5498,4.5533,4.5737,4.5807,4.5807,4.5807,4.6406,4.7115,4.7134,4.7773,4.843,4.8469,4.8469,4.8469,4.8469,4.8469,4.8469,4.8469,4.8469,4.8469,4.8411,4.9107,4.9707,4.9707,5.0376,5.0898,5.0898,5.0898,5.0898,5.0898,5.0898,5.0898,5.0898,5.0898,5.0898,5.0898,5.0898,5.0898,5.0898,5.0898,5.0898,5.0898,5.0898,5.0898,5.0898,5.0898,5.0898,5.0898,5.0898,5.0898,5.0898,5.0898,5.0898,3.0236,0.0,0.0,0.0,0.0,0.0,0.0,0.0,0.0,0.0,0.0,0.0,0.0,0.0,0.0,0.0,0.0,0.0,0.0,0.0,0.0,0.0,0.0,0.0,0.0,0.0,0.0,0.0,4.5807,4.5807,4.5807,4.5807,4.5807,4.5807,4.5807,4.5807,4.5807,4.5807,4.5807,4.5807,4.5745,4.5745,4.5807,4.5745,4.5745,4.5807,4.5807,4.5737,4.5634,4.5634,4.5634,4.5634,4.5634,4.5634,4.5634,4.5634,4.5634,4.5642,4.5708,4.5723,4.573,4.5773,4.5807,4.5807,4.5807,4.6406,4.7231,4.785,4.8662,4.9475,5.0047,5.0202,5.0202,5.0202,5.0202,5.0202,5.0202,5.0202,4.9861,4.8643,4.9107,4.9707,4.9707,5.0376,5.0898,5.0898,5.0898,5.0898,5.0898,5.0898,5.0898,5.0898,5.0898,5.0898,5.0898,5.0898,5.0898,5.0898,5.0898,5.0898,5.0898,5.0898,5.0898,5.0898,5.0898,5.0898,5.0898,5.0898,5.0898,5.0898,5.0898,5.0898,3.0824,0.0,0.0,0.0,0.0,0.0,0.0,3.6671,0.0,0.0,0.0,0.0,0.0,0.0,0.0,0.0,0.0,0.0,0.0,0.0,0.0,0.0,0.0,0.0,0.0,4.5807,4.5807,4.5807,4.5807,4.5807,4.5807,4.5807,4.5807,4.5807,4.5807,4.5807,4.5807,4.5807,4.5807,4.5807,4.5807,4.5807,4.5807,4.5807,4.5807,4.5807,4.5807,4.5807,4.5807,4.5807,4.5807,4.5807,4.5807,4.5807,4.5807,4.5807,4.5807,4.5807,4.5807,4.5807,4.5807,4.5807,4.5807,4.5865,4.6232,4.6941,4.7811,4.8701,4.9552,5.0299,5.0782,5.0898,5.0898,5.0898,5.0898,5.0898,5.0898,5.0898,5.0608,4.9629,4.9861,5.021,5.021,5.0589,5.0898,5.0898,5.0898,5.0898,5.0898,5.0898,5.0898,5.0898,5.0898,5.0898,5.0898,5.0898,5.0898,5.0898,5.0898,5.0898,5.0898,5.0898,5.0898,5.0898,5.0898,5.0898,5.0898,5.0898,5.0898,5.0898,5.0898,5.0898,0.0,0.0,0.0,0.0,0.0,0.0,3.6684,3.5897,0.0,0.0,0.0,0.0,0.0,0.0,0.0,0.0,0.0,0.0,0.0,0.0,0.0,0.0,0.0,0.0,4.5807,4.5807,4.5807,4.5807,4.5807,4.5807,4.5807,4.5807,4.5807,4.5807,4.5807,4.5807,4.5807,4.5807,4.5807,4.5807,4.5807,4.5807,4.5807,4.5807,4.5807,4.5807,4.5807,4.5807,4.5807,4.5807,4.5807,4.5807,4.5807,4.5807,4.5807,4.5807,4.5807,4.5807,4.5807,4.5807,4.5807,4.5807,4.5807,4.5962,4.6844,4.7715,4.8604,4.9571,5.0337,5.0898,5.0898,5.0898,5.0898,5.0898,5.0898,5.0898,5.0898,5.0898,5.0898,5.0898,5.0898,5.0898,5.0898,5.0898,5.0898,5.0898,5.0898,5.0898,5.0898,5.0898,5.0898,5.0898,5.0898,5.0898,5.0898,5.0898,5.0898,5.0898,5.0898,5.0898,5.0898,5.0898,5.0898,5.0898,5.0898,5.0898,5.0898,5.0898,5.0898,5.0898,5.0898,5.0898,0.0,0.0,0.0,0.0,0.0,0.0,0.0,3.375,3.4587,0.0,0.0,0.0,0.0,0.0,0.0,0.0,0.0,0.0,0.0,0.0,0.0,0.0,0.0,0.0,4.5807,4.5807,4.5807,4.5807,4.5807,4.5807,4.5807,4.5807,4.5807,4.5807,4.5807,4.5807,4.5807,4.5807,4.5807,4.5807,4.5807,4.5807,4.5807,4.5807,4.5807,4.5807,4.5807,4.5807,4.5807,4.5807,4.5807,4.5807,4.5807,4.5807,4.5807,4.5807,4.5807,4.5807,4.5807,4.5807,4.5807,4.5807,4.5807,4.5962,4.6844,4.7715,4.872,5.0241,5.0782,5.0898,5.0898,5.0898,5.0898,5.0898,5.0898,5.0898,5.0898,5.0898,5.0898,5.0898,5.0898,5.0898,5.0898,5.0898,5.0898,5.0898,5.0898,5.0898,5.0898,5.0898,5.0898,5.0898,5.0898,5.0898,5.0898,5.0898,5.0898,5.0898,5.0898,5.0898,5.0898,5.0898,5.0898,5.0898,5.0898,5.0898,5.0898,5.0898,5.0898,5.0898,5.0898,5.0898,0.0,0.0,0.0,3.4286,0.0,0.0,0.0,0.0,3.3596,3.5298,0.0,0.0,0.0,0.0,0.0,0.0,0.0,0.0,0.0,0.0,0.0,0.0,0.0,0.0,4.4543,4.4949,4.5374,4.5768,4.5807,4.5807,4.5807,4.5807,4.5807,4.5807,4.5807,4.5807,4.5807,4.5807,4.5807,4.5807,4.5807,4.5807,4.5807,4.5807,4.5807,4.5807,4.5807,4.5807,4.5807,4.5807,4.5807,4.5807,4.5807,4.5807,4.5807,4.5807,4.5807,4.5807,4.5807,4.5807,4.5865,4.631,4.6445,4.6689,4.8005,4.8972,4.9823,5.0666,5.0898,5.0898,5.0898,5.0898,5.0898,5.0898,5.0898,5.0898,5.0898,5.0898,5.0898,5.0898,5.0898,5.0898,5.0898,5.0898,5.0898,5.0898,5.0898,5.0898,5.0898,5.0898,5.0898,5.0898,5.0898,5.0898,5.0898,5.0898,5.0898,5.0898,5.0898,5.0898,5.0898,5.0898,5.0898,5.0898,5.0898,5.0898,5.0898,5.0898,5.0898,5.0898,5.0898,5.0898,0.0,0.0,0.0,0.0,0.0,3.4573,0.0,0.0,0.0,3.5422,0.0,0.0,0.0,0.0,0.0,0.0,0.0,0.0,0.0,0.0,0.0,0.0,0.0,0.0,0.0,4.3556,4.4349,4.5471,4.5265,4.5284,4.5768,4.5807,4.5807,4.5807,4.5807,4.5807,4.5807,4.5807,4.5807,4.5807,4.5807,4.5807,4.5807,4.5807,4.5807,4.5807,4.5807,4.5807,4.5807,4.5807,4.5807,4.5807,4.5807,4.5807,4.5807,4.5807,4.5807,4.5807,4.5807,4.5904,4.6174,4.6864,4.7328,4.785,4.9262,5.026,5.0898,5.0898,5.0898,5.0898,5.0898,5.0898,5.0898,5.0898,5.0898,5.0898,5.0898,5.0898,5.0898,5.0898,5.0898,5.0898,5.0898,5.0898,5.0898,5.0898,5.0898,5.0898,5.0898,5.0898,5.0898,5.0898,5.0898,5.0898,5.0898,5.0898,5.0898,5.0898,5.0898,5.0898,5.0898,5.0898,5.0898,5.0898,5.0898,5.0898,5.0898,5.0898,5.0898,5.0898,5.0898,5.0898,0.0,0.0,0.0,0.0,3.6562,0.0,0.0,0.0,3.3694,3.2607,0.0,0.0,0.0,0.0,0.0,0.0,0.0,0.0,0.0,0.0,0.0,0.0,0.0,0.0,0.0,4.1583,4.2202,4.4562,4.3305,4.3421,4.5691,4.5807,4.5807,4.5807,4.5807,4.5807,4.5807,4.5807,4.5807,4.5807,4.5807,4.5807,4.5807,4.5807,4.5807,4.5807,4.5807,4.5807,4.5807,4.5807,4.5807,4.5807,4.5807,4.5807,4.5807,4.5807,4.5807,4.5807,4.5807,4.631,4.696,4.7076,4.814,4.9436,4.9649,5.026,5.0898,5.0898,5.0898,5.0898,5.0898,5.0898,5.0898,5.0898,5.0898,5.0898,5.0898,5.0898,5.0898,5.0898,5.0898,5.0898,5.0898,5.0898,5.0898,5.0898,5.0898,5.0898,5.0898,5.0898,5.0898,5.0898,5.0898,5.0898,5.0898,5.0898,5.0898,5.0898,5.0898,5.0898,5.0898,5.0898,5.0898,5.0898,5.0898,5.0898,5.0898,5.0898,5.0898,5.0898,5.0898,5.0898,0.0,0.0,0.0,0.0,0.0,0.0,0.0,0.0,3.2315,0.0,0.0,0.0,0.0,0.0,0.0,0.0,0.0,0.0,0.0,0.0,0.0,0.0,0.0,0.0,0.0,0.0,0.0,0.0,4.2415,4.2918,4.4987,4.5548,4.5807,4.5807,4.5807,4.5807,4.5807,4.5807,4.5807,4.5807,4.5807,4.5807,4.5807,4.5807,4.5807,4.5807,4.5807,4.5807,4.5807,4.5807,4.5807,4.5807,4.5807,4.5807,4.5807,4.5807,4.5807,4.5865,4.6387,4.6786,4.727,4.8275,4.9417,5.0395,5.0395,5.0627,5.0898,5.0898,5.0898,5.0898,5.0898,5.0898,5.0898,5.0898,5.0898,5.0898,5.0898,5.0898,5.0898,5.0898,5.0898,5.0898,5.0898,5.0898,5.0898,5.0898,5.0898,5.0898,5.0898,5.0898,5.0898,5.0898,5.0898,5.0898,5.0898,5.0898,5.0898,5.0898,5.0898,5.0898,5.0898,5.0898,5.0898,5.0898,5.0898,5.0898,5.0898,5.0898,5.0898,5.0898,5.0898,5.0898,3.7252,0.0,0.0,0.0,0.0,0.0,0.0,0.0,0.0,0.0,0.0,0.0,0.0,0.0,0.0,0.0,0.0,0.0,0.0,0.0,0.0,0.0,0.0,0.0,0.0,0.0,0.0,0.0,0.0,4.1777,4.4458,4.5142,4.5568,4.5787,4.5807,4.5807,4.5807,4.5807,4.5807,4.5807,4.5807,4.5807,4.5807,4.5807,4.5807,4.5807,4.5807,4.5807,4.5807,4.5807,4.5807,4.5807,4.5807,4.5807,4.5807,4.5807,4.5807,4.5923,4.6806,4.7405,4.8063,4.9552,5.0415,5.0898,5.0898,5.0898,5.0898,5.0898,5.0898,5.0898,5.0898,5.0898,5.0898,5.0898,5.0898,5.0898,5.0898,5.0898,5.0898,5.0898,5.0898,5.0898,5.0898,5.0898,5.0898,5.0898,5.0898,5.0898,5.0898,5.0898,5.0898,5.0898,5.0898,5.0898,5.0898,5.0898,5.0898,5.0898,5.0898,5.0898,5.0898,5.0898,5.0898,5.0898,5.0898,5.0898,5.0898,5.0898,5.0898,5.0898,5.0898,5.0898,0.0,0.0,0.0,3.6026,0.0,0.0,0.0,0.0,3.4892,0.0,0.0,0.0,0.0,0.0,0.0,3.3063,0.0,0.0,0.0,0.0,0.0,0.0,0.0,0.0,0.0,0.0,0.0,0.0,0.0,0.0,4.4323,4.4613,4.5007,4.5787,4.5807,4.5807,4.5807,4.5807,4.5807,4.5807,4.5807,4.5807,4.5807,4.5807,4.5807,4.5807,4.5807,4.5807,4.5807,4.5807,4.5807,4.5807,4.5807,4.5807,4.5807,4.5807,4.5807,4.5923,4.6806,4.8198,4.9745,5.0589,5.0879,5.0898,5.0898,5.0898,5.0898,5.0898,5.0898,5.0898,5.0898,5.0898,5.0898,5.0898,5.0898,5.0898,5.0898,5.0898,5.0898,5.0898,5.0898,5.0898,5.0898,5.0898,5.0898,5.0898,5.0898,5.0898,5.0898,5.0898,5.0898,5.0898,5.0898,5.0898,5.0898,5.0898,5.0898,5.0898,5.0898,5.0898,5.0898,5.0898,5.0898,5.0898,5.0898,5.0898,5.0898,5.0898,5.0898,5.0898,5.0898,5.0898,0.0,0.0,4.049,3.7975,0.0,0.0,0.0,0.0,0.0,0.0,0.0,0.0,0.0,0.0,3.2869,3.2341,3.2245,0.0,0.0,0.0,0.0,0.0,0.0,0.0,0.0,0.0,0.0,0.0,3.7928,0.0,0.0,4.3982,4.471,4.5007,4.551,4.5807,4.5807,4.5807,4.5807,4.5807,4.5807,4.5807,4.5807,4.5807,4.5807,4.5807,4.5807,4.5807,4.5807,4.5807,4.5807,4.5807,4.5807,4.5807,4.5807,4.5807,4.6174,4.6864,4.8314,4.9571,5.0531,5.0801,5.0898,5.0898,5.0898,5.0898,5.0898,5.0898,5.0898,5.0898,5.0898,5.0898,5.0898,5.0898,5.0898,5.0898,5.0898,5.0898,5.0898,5.0898,5.0898,5.0898,5.0898,5.0898,5.0898,5.0898,5.0898,5.0898,5.0898,5.0898,5.0898,5.0898,5.0898,5.0898,5.0898,5.0898,5.0898,5.0898,5.0898,5.0898,5.0898,5.0898,5.0898,5.0898,5.0898,5.0898,5.0898,5.0898,5.0898,5.0898,5.0898,5.0898,3.9789,4.0748,0.0,3.9486,3.9009,0.0,3.4346,0.0,0.0,0.0,0.0,0.0,0.0,0.0,0.0,3.2772,3.219,0.0,0.0,0.0,0.0,0.0,0.0,0.0,0.0,0.0,3.5162,3.7212,0.0,0.0,0.0,0.0,4.4284,4.4594,4.5374,4.5807,4.5807,4.5807,4.5807,4.5807,4.5807,4.5807,4.5807,4.5807,4.5807,4.5807,4.5807,4.5807,4.5807,4.5807,4.5807,4.5807,4.5807,4.6,4.6271,4.6271,4.6999,4.8198,4.932,5.0221,5.0898,5.0898,5.0898,5.0898,5.0898,5.0898,5.0898,5.0898,5.0898,5.0898,5.0898,5.0898,5.0898,5.0898,5.0898,5.0898,5.0898,5.0898,5.0898,5.0898,5.0898,5.0898,5.0898,5.0898,5.0898,5.0898,5.0898,5.0898,5.0898,5.0898,5.0898,5.0898,5.0898,5.0898,5.0898,5.0898,5.0898,5.0898,5.0898,5.1033,5.1351,5.137,5.137,5.137,5.137,5.1215,5.0898,5.1215,5.137,5.137,5.1679,5.1815]}]]